GFSGL_925_spd_000.txt.gz
Wind_Speed
2 3 5 7 8 10 12 14 12 10 9 10 6 9 10 12 13 13 14 16 17 16 13 11 9 11 10 4 5 3 4 6 0 3 9 7 7 9 9 11 13 15 13
3 3 6 4 5 6 8 10 9 9 9 10 11 9 11 13 12 11 12 13 13 11 8 7 4 4 7 7 6 3 2 3 4 10 8 9 10 12 13 9 10 11 12
6 3 1 5 3 2 4 4 6 8 8 8 10 12 13 12 13 14 17 17 16 14 11 10 11 12 10 13 7 7 1 2 2 10 9 10 10 14 13 15 12 9 8
5 3 1 3 5 4 5 5 5 7 7 9 12 14 15 13 12 13 13 10 9 8 6 5 6 11 9 6 10 12 8 7 5 3 12 13 11 10 10 11 9 8 8
5 7 7 5 3 5 7 7 7 8 8 10 13 14 13 13 13 14 13 12 11 9 6 4 3 4 5 3 5 10 13 10 6 5 10 10 12 9 10 8 8 13 9
5 8 12 7 12 8 9 10 10 9 10 12 12 12 11 9 10 8 8 10 10 10 9 7 6 5 6 4 7 6 10 4 6 11 7 9 12 9 6 5 4 5 2
10 7 15 11 11 11 10 10 11 15 19 18 19 17 10 9 7 5 5 7 8 8 8 9 8 10 9 11 8 7 12 18 16 17 19 14 14 11 8 6 7 6 6
7 11 17 14 10 11 10 12 21 22 22 21 19 16 13 11 8 7 8 11 14 15 15 13 12 10 10 12 8 12 16 18 17 16 16 14 11 7 8 5 4 3 3
8 11 16 14 10 16 15 19 21 22 23 23 20 18 17 16 14 15 16 16 14 15 14 13 13 14 13 11 12 17 20 19 19 17 15 12 10 9 6 6 8 6 3
8 8 21 21 21 25 25 25 25 24 22 21 19 18 16 18 14 14 11 15 17 16 19 20 17 15 13 12 16 17 18 16 12 13 13 11 11 12 11 10 5 7 5
20 24 26 24 25 24 27 26 24 22 21 20 20 20 21 19 14 15 18 17 16 16 16 20 19 15 13 12 10 12 11 7 7 6 5 4 5 5 6 8 5 5 9
24 27 25 25 22 21 22 21 20 20 21 22 26 25 24 22 21 20 17 15 14 18 19 18 16 11 11 11 12 10 7 6 3 4 5 1 8 7 11 10 7 7 4
29 29 30 29 27 24 26 26 27 24 25 23 19 20 20 19 20 17 14 14 13 16 16 16 14 13 13 12 9 8 6 5 8 11 10 9 7 7 9 9 6 11 10
29 28 28 29 29 28 26 22 23 19 19 19 19 15 16 16 16 15 17 16 16 16 15 13 12 11 10 9 7 7 9 10 8 9 10 9 7 6 7 7 7 8 10
25 25 26 26 29 27 26 22 22 20 19 19 15 11 12 12 11 10 7 5 7 6 5 4 5 5 5 4 7 7 10 9 9 6 4 5 7 7 6 6 8 8 8
22 23 26 27 26 25 27 27 21 20 19 16 14 12 13 12 11 9 10 10 9 6 8 9 9 10 10 9 9 8 9 8 6 8 8 7 7 8 8 9 9 5 7
21 19 19 19 20 20 20 19 19 19 18 17 14 12 11 13 13 14 12 8 5 7 10 8 7 6 5 4 6 8 9 6 5 6 7 7 8 9 10 11 8 7 8
21 20 17 16 15 19 18 18 18 15 11 9 12 12 12 12 10 8 5 4 1 8 9 9 8 7 6 5 7 9 8 8 10 8 7 7 8 9 11 9 9 6 6
18 14 12 11 11 13 12 12 11 12 13 12 10 11 14 14 11 7 6 4 8 7 7 7 6 5 7 8 7 6 5 2 2 4 7 8 8 9 9 9 9 5 4
14 16 14 11 9 9 8 8 7 7 8 16 11 9 5 4 6 6 6 7 8 8 7 6 5 7 3 3 4 6 7 5 1 7 9 8 8 9 9 9 10 10 9
9 7 2 4 10 7 5 6 9 8 10 12 9 4 2 4 6 7 6 5 6 6 6 5 6 5 3 6 6 6 6 5 6 8 9 10 10 10 9 9 10 11 11
4 5 13 7 4 3 10 7 4 1 1 5 9 5 6 2 6 5 5 4 5 4 5 4 5 5 4 3 3 4 7 7 6 7 9 11 11 11 9 9 10 10 10
3 5 11 9 8 8 6 6 4 5 6 6 8 11 6 2 2 2 2 4 3 3 3 2 3 4 5 5 6 7 7 11 5 7 6 8 10 11 9 11 10 10 10
12 3 4 16 14 9 6 8 9 3 3 5 7 3 1 1 0 5 1 2 1 1 1 3 4 6 7 8 8 6 3 3 4 5 10 6 10 11 9 10 11 11 11
16 3 3 11 11 10 14 12 10 6 5 6 5 4 3 3 3 2 1 1 2 3 4 3 4 6 6 6 3 3 3 6 9 9 7 5 3 8 12 9 10 11 12
11 2 6 9 4 6 10 6 5 6 6 7 6 5 4 5 6 5 3 4 4 1 4 1 2 3 1 2 6 6 6 6 7 8 7 2 5 9 8 8 10 11 13

GFSGL_925_spd_003.txt.gz
Wind_Speed
3 5 6 7 6 6 9 10 10 10 12 10 6 3 2 5 8 14 14 16 13 14 15 12 12 14 12 4 2 7 2 4 4 2 6 9 8 7 8 7 13 16 14
4 6 6 6 5 5 6 8 9 10 11 12 11 13 11 11 14 15 16 13 11 10 11 12 9 7 7 6 6 5 8 6 5 8 10 7 7 10 8 9 11 14 14
9 5 9 3 3 2 4 7 8 9 9 10 12 11 11 14 17 18 20 21 22 22 21 18 15 11 12 14 17 19 13 7 1 7 6 6 8 11 13 11 8 9 9
13 7 5 4 3 5 5 5 7 8 11 14 15 15 15 14 18 19 18 16 16 16 15 15 16 15 12 8 10 14 16 13 12 1 6 5 3 10 12 15 11 8 9
13 12 9 7 6 9 8 7 11 11 14 16 16 16 15 14 12 11 11 9 7 6 5 5 6 8 8 6 3 4 5 7 5 3 8 4 5 10 10 9 10 11 9
14 17 14 14 12 14 12 13 13 14 16 16 16 14 13 15 11 11 11 12 12 13 14 13 11 9 8 7 8 6 3 2 5 6 2 9 11 6 5 3 15 12 4
11 18 20 19 16 16 16 21 22 22 21 18 15 12 12 11 9 8 10 12 12 12 13 11 11 11 14 10 6 10 12 12 8 11 21 15 13 11 8 11 10 8 5
2 16 21 21 22 26 26 28 27 24 21 18 15 14 12 11 8 12 14 15 15 15 12 11 11 11 12 13 17 20 22 22 20 19 17 16 12 9 7 9 8 7 8
5 8 17 23 30 29 27 25 24 25 22 19 18 17 17 17 14 16 18 20 20 17 16 16 16 17 13 13 16 20 22 21 18 17 16 14 11 10 9 6 10 7 5
16 19 26 30 32 32 29 26 23 22 21 18 19 18 20 19 16 13 12 17 21 22 21 21 19 16 16 16 17 17 19 13 10 10 12 13 13 13 12 11 8 10 7
16 22 26 30 32 32 29 25 24 22 21 20 21 21 21 21 16 16 16 19 20 21 21 21 19 14 15 15 13 12 11 9 10 11 11 12 12 12 12 12 10 3 2
20 24 26 29 29 27 28 24 22 22 24 24 22 22 20 19 17 18 16 15 16 19 20 17 14 11 10 10 11 10 6 7 7 8 9 11 8 6 7 4 4 3 4
26 26 27 28 26 25 28 27 26 24 25 21 21 21 19 19 18 16 16 15 14 17 16 15 15 14 14 14 12 11 9 8 11 13 10 9 7 7 6 7 4 5 3
29 27 27 27 26 27 27 24 25 24 21 21 20 19 17 16 18 18 18 16 18 18 17 14 11 11 12 11 10 9 11 12 11 10 9 7 6 6 6 7 5 6 7
26 27 26 25 29 32 30 27 25 21 18 19 16 15 15 13 12 13 12 10 11 9 7 5 4 3 4 4 5 10 10 9 10 12 7 10 11 9 9 9 5 6 6
26 24 23 25 27 30 31 29 23 20 17 16 14 13 14 14 13 12 10 10 7 8 13 16 15 12 10 11 12 8 11 14 10 11 11 10 10 11 10 12 8 4 7
30 28 27 27 26 27 28 28 24 19 17 16 14 14 15 17 15 13 10 7 9 13 13 12 9 6 8 13 13 12 12 13 10 9 10 8 8 9 10 12 10 7 7
20 22 23 24 26 26 27 25 23 21 19 16 14 15 16 14 12 12 11 8 7 15 12 12 11 11 12 10 9 8 8 7 10 5 9 10 11 11 12 12 10 4 6
21 19 18 18 18 20 21 20 18 20 19 19 16 14 12 11 10 10 10 9 11 12 11 9 7 5 4 6 5 5 6 5 3 7 11 11 11 10 12 11 11 11 5
14 17 17 15 17 18 18 18 21 21 19 15 13 12 11 7 4 4 5 11 11 10 10 6 9 4 4 5 4 4 10 5 4 9 9 10 11 11 12 11 10 12 13
18 15 12 10 12 9 11 13 14 23 18 15 12 13 7 5 3 12 11 8 7 7 5 2 2 3 9 6 3 5 6 8 9 6 5 7 9 12 10 6 7 10 12
13 12 10 16 11 11 13 11 9 12 22 14 9 9 10 6 14 11 9 8 7 5 4 2 4 5 5 4 3 1 6 8 6 4 3 8 8 11 8 7 11 12 6
5 14 15 14 12 12 11 7 8 9 17 14 14 14 8 9 9 9 8 8 5 5 2 2 3 9 8 6 6 4 5 8 5 1 4 8 4 8 8 7 12 10 10
3 6 19 17 13 15 14 10 9 6 14 15 16 12 13 8 10 8 6 5 4 4 5 6 4 3 3 3 5 3 1 1 4 8 8 3 2 2 5 12 6 8 9
11 3 13 19 18 18 17 14 14 13 12 8 14 12 11 10 9 7 10 7 4 2 10 7 3 4 3 2 2 4 5 7 6 5 4 3 2 2 7 7 6 10 11
8 11 6 10 15 16 19 17 15 18 15 12 11 13 11 10 9 13 11 8 6 10 9 3 2 1 1 2 5 4 4 3 4 5 4 4 3 3 4 6 7 9 11

GFSGL_925_spd_006.txt.gz
Wind_Speed
7 7 7 7 8 9 10 10 11 11 9 8 5 2 2 5 8 11 12 14 15 17 15 13 13 17 15 13 7 11 17 6 7 5 5 7 8 10 7 0 5 12 10
7 7 8 6 6 7 8 9 9 10 12 12 13 11 10 10 10 10 11 14 15 12 12 10 10 12 9 8 9 4 4 5 7 7 7 5 7 4 5 7 10 11 10
10 9 9 7 6 8 9 8 9 10 12 14 13 15 15 15 15 15 15 15 17 16 17 17 20 20 17 14 14 13 14 12 9 4 6 3 2 9 10 8 5 7 6
12 9 9 8 6 7 9 9 11 13 15 16 17 18 18 19 20 21 22 25 25 23 21 20 19 19 18 16 17 13 11 11 14 9 7 7 4 3 8 10 6 8 9
15 11 8 7 8 10 10 12 14 16 17 17 17 17 17 15 12 11 11 10 10 11 11 12 13 11 7 5 4 5 5 6 7 7 4 1 1 4 6 6 7 10 9
21 17 14 13 13 14 13 13 17 17 16 15 15 15 16 16 12 12 12 12 11 11 12 11 10 8 8 6 5 3 3 4 4 5 6 5 3 3 4 7 12 12 3
17 18 18 20 21 20 19 18 18 17 14 14 13 11 13 14 12 12 12 13 14 13 11 10 9 9 9 8 7 6 5 4 8 14 13 11 9 8 8 9 10 6 5
6 19 22 23 25 25 25 22 21 18 14 12 11 10 11 12 10 11 12 13 13 12 11 8 9 11 13 15 18 20 21 21 18 16 15 13 9 6 6 7 9 12 11
3 19 25 26 28 28 28 26 21 19 17 14 13 11 11 15 12 13 15 17 17 15 13 15 16 14 14 15 19 22 22 21 19 19 17 14 12 10 7 6 8 7 4
6 12 22 29 30 28 27 27 23 20 19 17 16 14 15 15 13 13 14 18 21 21 20 18 16 16 14 15 18 17 17 14 12 12 11 11 12 13 12 10 6 8 6
8 16 24 29 31 30 28 24 23 21 20 20 21 20 18 17 14 10 12 17 21 23 23 23 20 16 15 13 13 14 13 10 11 11 10 9 10 12 12 11 10 6 2
14 18 20 23 25 28 28 23 22 23 23 23 23 22 21 20 16 13 14 17 18 21 20 17 15 13 13 12 12 11 12 12 12 13 10 8 10 10 9 5 6 4 3
19 21 21 22 22 22 25 22 23 22 23 21 20 20 19 19 20 18 18 18 16 18 17 18 17 15 15 15 15 15 13 13 13 13 11 9 9 8 6 7 5 5 3
26 24 23 25 22 23 22 19 21 21 21 19 20 19 19 18 18 18 18 19 21 21 17 14 12 13 13 14 15 15 14 13 10 10 10 9 8 9 10 8 7 8 6
24 24 25 25 25 27 24 20 21 16 16 20 20 20 19 19 18 18 18 16 14 11 10 8 8 9 7 9 12 13 13 10 12 11 10 11 11 10 11 13 6 5 8
24 20 21 25 27 26 27 24 19 16 14 13 13 14 16 15 14 14 14 12 11 12 16 14 12 12 14 13 12 14 13 12 11 11 10 10 10 11 12 12 9 6 7
27 26 26 27 27 26 24 25 23 17 15 15 14 14 15 16 14 11 8 9 14 10 14 13 10 13 14 12 10 10 10 9 7 10 10 11 10 11 13 12 6 7 8
26 26 27 27 26 24 23 22 21 20 18 15 14 15 15 12 10 8 8 11 14 12 14 12 13 11 9 7 7 7 7 8 11 12 12 11 11 10 12 10 10 8 6
21 23 24 24 22 20 21 21 20 20 18 17 15 13 11 10 10 10 11 13 12 11 10 8 5 5 6 6 6 5 8 3 5 7 8 8 8 10 10 9 8 10 10
20 19 20 19 19 17 16 16 17 18 18 17 16 14 11 8 8 10 12 12 11 8 7 5 5 3 4 3 4 5 9 2 7 4 4 5 7 10 9 6 8 10 12
18 19 18 18 20 21 22 19 20 20 18 15 14 13 10 7 6 6 11 9 8 7 6 6 7 5 7 4 1 4 5 7 5 1 3 6 7 8 5 8 9 12 6
20 18 18 14 18 20 20 21 27 22 17 15 14 13 8 6 13 14 11 8 5 3 1 4 5 6 8 3 2 2 2 7 6 4 3 6 8 4 4 7 11 8 6
19 15 15 20 15 14 14 13 17 21 18 14 13 16 13 18 16 13 11 10 8 6 5 4 2 9 7 4 4 4 5 8 7 5 6 10 6 1 4 6 5 6 8
5 12 22 21 19 17 15 13 14 19 23 19 19 20 17 19 17 15 13 10 9 7 7 9 9 5 3 4 2 2 4 5 5 7 8 5 3 1 3 4 5 6 7
6 9 20 25 21 19 18 16 17 16 20 23 22 21 19 18 21 17 14 11 9 10 12 14 9 2 6 4 1 4 5 6 6 4 4 4 3 2 2 4 4 5 6
8 3 9 21 18 18 21 21 22 20 21 22 24 25 24 23 20 18 19 15 13 10 17 15 9 5 5 5 2 1 1 2 2 2 3 5 6 3 1 7 5 6 7

GFSGL_925_spd_009.txt.gz
Wind_Speed
11 7 6 4 4 7 9 10 12 11 11 8 5 3 2 4 7 9 9 10 11 13 14 15 18 18 17 10 5 3 5 3 3 3 7 5 2 6 8 5 5 4 4
11 9 8 5 4 7 8 8 8 10 10 11 10 10 9 7 7 7 7 7 9 12 12 12 12 14 12 9 7 4 5 5 4 2 3 4 5 3 1 3 2 1 4
13 10 8 5 4 6 7 7 7 7 9 9 12 14 15 14 13 13 15 14 12 11 11 10 11 13 12 11 10 10 9 8 5 5 3 3 3 3 4 4 3 2 3
12 9 7 5 4 6 7 7 8 9 12 14 17 18 18 18 17 16 16 16 15 13 11 13 14 15 15 13 13 13 10 9 8 9 8 7 5 4 3 4 5 5 5
12 10 9 8 8 8 9 9 10 11 12 13 15 16 16 16 17 18 18 18 17 17 17 16 14 12 12 11 11 9 9 11 10 7 5 2 2 2 3 4 4 6 7
14 12 12 15 16 13 13 13 12 12 12 13 14 15 16 16 12 11 10 10 10 10 12 10 9 6 6 6 6 4 4 3 4 5 4 4 4 4 5 7 12 8 3
12 13 11 15 18 18 17 15 13 12 10 10 11 12 14 14 12 12 12 14 14 13 11 10 11 9 9 10 9 7 5 1 5 6 3 3 1 2 1 2 13 8 4
3 11 15 20 20 19 19 17 16 13 12 11 11 10 12 10 7 9 10 12 13 12 11 12 14 15 14 17 19 22 24 23 20 18 15 13 9 7 6 4 3 10 11
7 6 20 24 23 22 21 18 16 14 13 12 11 11 13 12 9 9 11 14 15 16 16 15 14 16 14 16 19 22 21 21 19 20 20 19 18 14 8 7 9 5 4
8 2 17 25 25 25 22 19 16 14 14 14 13 13 14 14 10 10 11 15 18 19 19 18 15 14 13 13 15 15 17 13 11 13 15 16 15 15 14 14 11 10 6
5 6 17 20 24 23 24 21 19 17 16 16 17 15 15 13 11 9 11 17 21 24 24 22 18 15 14 13 13 13 13 10 10 12 13 14 15 16 16 15 14 13 8
7 9 12 15 18 22 23 23 21 19 19 19 21 19 17 15 13 12 12 16 19 22 22 18 15 14 15 14 14 13 12 11 12 12 12 14 14 15 14 9 10 6 5
13 14 14 15 17 17 18 18 21 19 19 19 21 18 18 17 17 16 16 16 16 19 18 18 16 15 15 17 16 15 13 13 13 13 13 12 12 12 10 8 7 6 4
17 17 17 17 17 15 15 14 16 18 16 16 18 18 19 18 18 17 17 18 18 19 16 16 16 17 16 16 16 14 14 12 14 15 14 12 10 11 12 8 7 8 7
19 18 20 21 22 21 19 14 14 13 12 15 18 18 20 18 17 18 17 16 14 13 12 12 11 11 13 14 14 15 14 13 13 13 12 11 11 12 11 10 8 7 9
20 19 21 23 22 23 22 21 17 14 13 13 15 16 18 17 15 14 12 11 11 14 15 13 12 12 12 11 11 12 12 11 11 9 10 10 10 11 10 8 8 9 9
23 21 22 22 22 22 21 22 22 16 14 14 14 15 15 16 14 12 12 14 12 9 13 13 13 12 10 7 7 7 8 7 7 10 10 10 9 9 9 9 7 6 7
22 22 23 22 20 19 17 17 17 18 18 16 15 16 14 12 9 9 11 10 11 9 10 10 10 8 5 3 5 7 7 10 9 8 8 8 8 8 8 8 9 9 6
23 21 20 18 17 15 15 15 16 17 17 18 16 13 11 9 8 9 10 12 11 10 9 9 8 6 6 5 4 5 4 5 4 4 5 6 7 7 6 6 7 8 9
19 19 18 16 15 14 14 14 14 14 15 16 15 13 11 10 11 10 12 10 9 8 8 7 7 5 4 3 3 4 4 4 5 3 3 5 6 7 5 6 8 9 7
17 17 16 15 14 14 13 12 11 11 11 12 12 11 10 7 6 6 8 7 6 6 6 6 8 7 5 4 3 1 2 4 4 2 1 3 8 6 4 5 7 6 4
15 16 17 18 17 18 18 16 15 14 12 12 13 11 9 8 8 10 11 8 6 4 4 4 5 8 8 7 7 5 4 6 8 6 5 5 8 5 2 3 4 5 6
15 16 17 20 18 19 19 20 22 21 19 16 13 14 15 12 13 14 14 12 9 7 5 7 7 6 11 9 9 9 9 8 8 7 7 9 10 4 2 2 0 2 4
17 17 22 21 18 18 18 19 17 18 22 20 16 17 19 17 19 17 15 13 11 12 10 10 9 8 9 8 7 5 5 7 8 9 10 10 5 4 2 2 2 3 4
5 5 11 24 22 21 21 19 18 20 23 23 21 22 23 21 23 21 19 16 13 16 15 14 14 11 7 4 1 3 5 8 9 9 8 7 6 6 4 2 2 3 3
3 5 7 11 19 22 20 19 21 21 24 26 28 27 28 27 26 24 22 21 20 18 18 16 19 15 11 10 6 4 5 6 6 6 7 7 8 8 5 5 5 4 4

GFSGL_925_spd_012.txt.gz
Wind_Speed
11 5 3 1 1 2 4 7 9 10 10 6 2 1 4 6 7 8 8 10 11 12 12 14 16 16 16 17 13 11 9 6 4 2 3 3 8 8 8 6 5 3 3
12 9 7 4 1 2 4 7 9 9 10 10 8 7 6 4 5 6 6 7 7 8 9 10 11 14 14 14 10 8 7 8 7 4 1 3 6 6 6 4 4 3 4
15 13 10 7 3 2 4 6 9 10 12 12 12 14 13 11 9 8 8 9 8 8 7 6 6 10 13 12 10 8 7 6 8 6 3 3 4 8 10 10 9 7 7
16 15 14 11 7 5 5 7 9 11 14 16 16 17 16 15 13 12 12 11 10 8 6 5 5 5 6 6 6 8 11 12 10 8 7 7 6 6 5 6 8 7 9
17 17 16 12 11 9 8 9 10 11 13 13 13 14 15 16 15 16 17 17 17 17 17 17 17 13 11 8 6 5 5 7 7 6 4 2 3 2 0 3 6 9 10
18 16 11 13 14 12 11 11 11 12 12 13 14 14 15 14 10 9 9 11 12 13 14 13 11 7 5 4 3 3 3 1 1 1 2 3 6 6 5 0 10 8 4
13 13 13 17 17 15 12 13 12 11 9 12 13 14 15 14 11 12 12 14 16 15 14 12 13 12 12 12 11 10 11 8 3 2 9 7 7 8 6 8 7 8 6
4 10 16 20 20 18 15 13 13 11 10 11 12 11 11 11 9 9 10 13 15 16 16 17 18 18 17 19 21 25 27 27 25 23 19 16 13 11 12 9 7 12 11
4 0 15 22 22 21 19 16 13 13 12 12 11 11 11 11 8 8 10 15 19 20 19 18 18 18 15 15 17 22 24 24 22 23 23 21 20 18 11 10 8 4 4
6 3 10 19 22 23 21 19 16 13 14 14 14 12 12 12 9 7 10 15 21 22 20 19 17 16 13 12 14 15 18 16 17 17 19 20 21 21 19 18 13 10 6
6 4 11 16 18 19 20 17 17 16 17 17 17 14 13 12 10 7 9 16 21 23 23 21 18 15 16 16 14 15 15 13 15 18 19 20 21 19 18 17 16 15 12
6 7 9 10 14 18 18 18 16 17 17 17 20 17 14 14 12 10 12 16 19 21 21 18 16 14 15 16 17 15 13 13 14 17 18 18 18 18 16 14 13 10 9
10 12 12 11 13 15 18 17 16 16 18 19 16 20 17 17 17 14 15 17 17 20 18 17 16 18 19 20 17 14 14 14 14 16 16 16 15 14 11 10 11 10 8
13 16 15 15 16 14 13 13 13 12 15 19 19 17 18 16 15 16 16 16 17 18 18 18 18 18 18 17 17 17 16 16 16 16 15 14 13 12 13 10 10 10 10
17 17 18 18 19 19 18 15 13 9 10 14 18 19 21 17 14 15 16 16 15 15 16 15 14 14 16 16 16 15 14 13 13 12 12 12 13 13 12 9 10 10 9
19 20 19 20 19 21 22 21 17 14 12 12 14 16 18 18 15 13 12 11 11 11 13 12 11 12 12 11 11 11 10 9 9 10 10 11 11 10 9 9 9 9 7
19 19 18 19 18 18 19 20 21 16 14 13 14 15 14 15 11 10 13 14 11 7 12 13 13 11 9 8 7 7 6 6 9 10 11 10 9 8 8 8 8 6 5
19 18 18 17 17 16 15 16 17 18 17 14 13 13 13 11 9 11 12 11 10 9 10 10 8 6 6 6 6 6 7 8 7 7 8 9 8 8 7 7 8 7 5
21 19 17 17 15 14 12 12 12 13 15 16 15 12 9 8 8 10 10 8 9 9 9 8 7 5 6 5 4 3 5 4 3 4 6 7 7 6 5 4 5 5 5
16 15 14 13 12 11 10 10 10 10 11 12 11 10 8 7 7 9 9 10 8 8 8 8 7 5 5 4 4 2 1 4 5 3 2 4 5 5 3 2 3 5 3
13 12 10 9 8 7 7 7 7 8 9 10 11 10 8 7 7 7 9 8 6 7 8 8 9 8 6 4 1 0 2 2 5 4 2 1 4 6 3 2 4 3 4
11 10 9 9 9 10 11 10 10 9 9 10 11 11 10 9 8 9 10 9 7 6 6 6 8 10 9 8 7 8 6 5 7 8 6 4 5 7 3 2 2 2 3
11 11 13 16 18 19 17 19 17 17 16 14 12 14 15 14 14 13 12 12 10 8 7 7 8 6 6 9 12 12 11 11 10 9 7 6 8 6 4 3 2 1 1
17 16 15 18 19 20 20 21 21 21 19 19 20 18 16 19 19 16 16 15 13 12 11 8 8 8 8 11 11 11 8 7 7 8 8 9 8 5 5 4 3 3 3
21 19 19 19 23 26 24 22 20 18 17 19 21 20 18 19 20 18 19 17 16 15 15 15 14 14 13 10 7 5 5 6 8 9 9 8 7 7 7 6 4 4 4
4 8 11 13 15 17 19 21 20 18 20 21 24 24 24 23 24 23 22 22 21 20 18 18 19 19 18 14 13 9 7 6 7 8 8 8 9 10 9 7 6 5 5

GFSGL_925_spd_015.txt.gz
Wind_Speed
5 2 2 1 2 4 6 7 7 8 9 8 7 4 4 4 4 5 6 6 8 7 9 10 10 10 10 12 13 11 9 6 4 3 2 1 2 3 5 5 5 3 2
5 4 4 1 2 3 4 5 6 6 8 8 10 9 7 2 1 3 1 1 2 3 5 7 7 8 11 11 12 10 10 9 7 8 6 5 4 5 8 8 7 7 7
7 5 4 3 2 2 2 4 6 7 9 10 10 12 12 11 9 7 6 7 6 5 4 2 1 5 8 12 11 11 9 8 12 9 8 5 5 10 12 11 10 8 9
8 8 7 5 4 2 2 4 7 8 10 12 12 14 14 13 12 11 11 11 11 10 8 7 7 7 9 7 4 2 4 8 7 8 8 6 7 5 5 8 7 9 10
9 9 9 7 6 4 4 6 7 8 9 10 10 12 13 14 13 14 14 15 16 16 16 15 14 11 10 9 7 8 7 7 6 5 5 4 6 6 6 2 6 10 11
12 12 10 10 10 8 9 7 7 9 10 10 11 11 12 11 8 8 9 11 12 13 14 13 11 9 9 8 7 6 5 4 4 3 6 8 7 6 5 2 10 5 3
11 14 12 12 14 12 12 10 8 9 10 12 11 11 12 13 11 12 12 12 13 12 11 12 14 15 15 16 16 16 16 12 9 9 11 7 8 8 5 6 5 6 4
5 9 14 15 15 16 12 11 10 9 10 13 12 12 11 13 10 10 11 13 15 15 15 15 15 15 16 17 19 22 23 21 19 18 17 14 13 12 10 8 10 13 11
5 5 8 17 17 17 15 12 10 10 10 10 12 11 11 11 9 9 13 14 16 16 15 14 14 14 13 15 15 18 18 19 21 22 22 21 19 14 9 6 6 2 6
4 5 6 17 23 21 17 14 10 10 12 12 12 11 12 12 9 8 12 13 14 15 15 16 15 14 11 12 11 12 15 13 12 13 14 16 16 18 18 16 10 7 4
3 3 5 13 18 22 20 14 14 13 14 17 15 11 11 11 9 6 8 12 13 14 13 13 14 13 13 13 13 13 15 13 13 12 12 13 14 15 15 14 13 11 8
6 6 6 8 13 17 17 17 16 15 14 14 16 17 14 13 10 8 10 13 15 18 16 16 14 13 14 15 17 15 14 11 10 10 11 12 13 12 12 11 11 10 10
9 10 10 10 12 14 16 17 15 15 15 11 19 15 15 17 15 14 15 16 15 17 17 17 16 16 16 16 14 13 11 9 9 10 11 11 11 10 8 8 9 9 9
12 12 11 13 15 15 14 13 14 15 16 17 14 14 13 15 15 16 16 15 16 15 15 13 14 15 15 14 12 13 12 11 10 10 9 9 9 9 9 7 8 6 6
12 11 13 14 16 17 16 13 11 10 12 16 15 13 12 11 13 13 14 15 15 14 13 9 7 8 10 10 10 9 9 8 9 8 8 8 8 8 8 6 7 6 6
12 9 10 13 17 18 20 19 16 12 11 10 12 12 12 15 16 14 13 12 13 12 7 6 6 7 7 7 6 6 6 6 7 7 8 8 8 7 6 5 6 6 6
13 13 12 12 12 13 14 15 16 16 15 14 12 15 15 15 12 12 13 13 10 6 6 7 6 5 5 4 3 4 5 7 7 7 7 7 6 5 4 5 5 4 4
14 15 13 13 13 12 11 10 10 10 10 10 10 11 10 9 10 13 11 10 8 6 6 7 5 3 3 3 4 5 6 7 6 5 6 6 5 4 3 3 3 4 3
14 14 14 14 14 13 11 10 10 9 8 9 8 7 7 7 9 9 9 4 5 5 5 6 5 5 4 3 4 3 4 4 4 3 3 3 4 3 2 1 1 2 3
14 16 13 12 11 10 9 9 9 8 7 7 6 6 5 5 6 8 7 6 4 4 5 5 6 5 5 3 4 3 4 5 5 4 2 0 2 2 1 1 2 3 1
11 10 10 8 7 6 5 5 5 5 4 5 5 6 6 3 5 5 6 7 6 5 7 7 7 8 7 6 4 3 2 3 5 5 5 3 2 3 2 2 2 2 2
7 6 4 3 3 3 3 3 4 4 5 5 6 8 10 7 7 6 7 8 6 6 7 8 8 9 9 8 7 6 5 4 5 7 7 6 5 4 3 4 3 3 4
5 5 4 5 6 7 8 9 9 10 9 9 8 9 10 12 11 11 10 9 10 9 9 8 8 8 8 8 8 8 8 9 9 9 9 8 7 6 5 6 5 5 5
7 8 8 9 9 10 11 12 12 13 12 12 12 12 12 13 14 14 12 11 11 12 11 10 9 10 9 8 7 8 9 9 9 9 10 9 8 7 7 7 7 6 6
10 11 11 12 12 13 12 13 13 11 11 11 13 14 14 15 15 15 15 14 14 13 12 11 11 13 14 12 10 8 8 9 8 10 9 9 9 8 9 9 8 7 7
1 3 6 8 9 9 9 8 9 8 9 11 13 15 16 17 18 17 16 16 17 17 16 15 15 16 15 15 15 14 13 10 9 10 9 9 8 9 10 11 9 7 7

GFSGL_925_spd_018.txt.gz
Wind_Speed
6 4 4 3 3 5 5 7 8 8 9 10 11 9 8 7 7 1 4 1 0 1 3 5 6 7 11 12 12 12 11 11 11 9 3 2 2 2 1 2 3 3 4
5 4 3 2 3 4 5 7 7 8 9 10 11 12 12 12 12 11 8 6 4 3 1 1 3 5 8 9 10 9 8 5 5 4 5 4 3 1 4 6 9 10 12
6 5 4 2 2 2 5 6 6 8 9 10 11 13 14 14 15 14 12 12 11 9 8 6 6 4 3 2 3 4 5 4 5 6 4 3 2 4 8 10 11 9 8
8 7 4 2 0 2 3 5 5 6 7 9 11 13 13 14 14 12 12 13 13 13 13 12 12 13 12 11 7 6 3 4 8 10 9 8 6 6 4 5 8 9 10
9 5 4 3 2 2 3 4 3 4 5 6 9 10 11 12 12 12 13 13 13 14 15 16 15 14 12 10 8 9 9 9 8 7 6 10 9 5 4 3 7 9 10
8 7 6 7 7 5 4 4 3 4 5 6 8 9 10 10 10 9 10 11 11 11 11 12 12 11 11 10 8 7 7 7 7 7 8 7 6 4 4 3 9 4 3
4 6 9 10 10 8 6 6 5 5 6 6 7 9 11 11 11 11 12 10 10 10 10 10 12 14 16 16 19 19 19 14 11 9 9 7 6 6 4 5 4 5 4
3 5 9 10 10 12 9 8 7 6 7 7 6 7 9 11 10 11 13 11 12 13 13 12 13 12 13 13 16 19 19 18 16 14 14 12 10 12 10 9 10 12 10
4 6 7 10 10 14 12 11 9 8 7 7 6 7 7 9 11 14 10 11 12 12 12 12 11 11 14 13 12 14 16 18 19 20 20 18 15 10 8 3 3 1 6
5 7 8 9 13 15 15 13 11 10 9 8 8 7 8 7 9 12 8 9 11 12 12 12 11 10 9 9 7 9 12 10 9 9 10 12 12 13 13 11 6 5 2
5 6 6 2 11 17 18 13 13 11 11 9 9 10 8 5 5 5 8 5 8 9 10 10 11 9 8 7 9 9 11 10 9 7 7 8 8 10 11 10 10 8 4
5 6 5 2 6 13 15 15 11 13 11 10 9 8 6 6 6 6 6 8 11 12 11 11 12 10 11 12 12 11 11 5 4 5 6 7 8 8 9 9 10 10 10
6 6 7 7 7 8 11 12 16 14 15 12 11 12 10 11 11 9 10 12 14 13 11 15 15 13 12 12 11 8 3 3 4 5 6 7 7 7 5 5 6 8 9
7 8 8 10 11 11 11 10 11 11 14 15 15 14 10 12 10 11 12 13 14 16 13 9 9 8 8 9 7 5 6 5 5 6 5 5 5 5 5 4 4 2 2
9 9 9 10 13 14 13 11 8 8 8 9 10 11 11 8 8 10 7 7 9 11 10 6 5 4 5 5 5 4 5 4 4 4 4 4 4 4 4 3 3 2 3
10 9 9 11 11 11 13 16 12 9 9 8 10 9 10 8 10 10 9 9 12 9 4 3 3 2 3 3 3 4 4 4 4 4 4 3 3 3 2 2 2 3 3
12 12 12 12 11 11 10 11 14 14 11 11 10 11 13 14 11 10 8 8 8 4 5 3 3 2 1 1 1 2 3 4 3 3 2 2 2 3 1 2 2 1 2
12 12 11 11 10 9 7 7 8 8 9 9 10 9 10 9 10 11 10 8 6 4 3 3 2 2 1 1 1 2 3 4 3 2 1 2 2 2 0 0 0 2 1
13 14 13 13 12 11 9 8 7 6 6 8 9 7 7 8 11 9 9 8 2 3 3 3 3 3 3 2 3 3 4 5 4 4 2 0 1 3 1 2 1 1 3
14 15 14 13 11 10 9 8 8 6 5 5 6 8 9 9 10 10 8 5 4 3 3 4 5 4 4 4 5 4 7 7 8 8 5 2 2 3 3 4 4 4 4
14 10 10 9 8 7 6 5 5 4 4 4 5 5 7 8 6 7 6 6 6 5 6 7 7 7 7 7 7 7 7 8 8 8 7 6 4 5 4 6 6 5 5
10 9 6 5 4 2 1 0 1 1 1 2 4 6 9 8 6 6 6 6 6 7 7 7 9 10 10 10 9 9 10 9 8 9 9 8 7 7 7 7 8 6 6
6 4 3 2 2 2 5 6 6 6 5 4 5 6 9 11 11 9 9 9 9 8 8 8 9 10 10 10 10 11 12 11 11 10 10 10 10 9 8 9 9 8 8
4 3 4 5 5 7 8 8 8 9 10 8 7 8 9 10 11 12 13 11 11 10 10 10 10 11 10 10 10 11 12 12 11 11 12 12 11 10 11 11 11 10 9
3 5 7 7 8 9 10 11 10 11 10 10 10 10 11 13 14 14 14 14 14 14 14 13 12 11 13 15 14 12 10 11 11 11 10 11 12 12 12 13 12 12 11
3 1 4 6 9 11 10 11 9 7 8 8 10 11 13 14 16 16 18 17 18 17 17 17 16 16 14 15 17 17 17 16 13 12 11 12 13 13 13 14 14 14 13

GFSGL_925_spd_021.txt.gz
Wind_Speed
9 6 5 4 4 5 5 7 8 9 12 13 12 11 10 11 13 11 9 7 7 5 3 1 3 5 7 8 9 8 8 10 8 4 3 4 5 3 3 4 6 9 11
9 7 4 4 3 5 5 8 8 9 11 12 12 14 13 13 12 12 12 11 11 10 8 3 3 4 4 5 4 4 3 4 2 6 3 4 4 5 6 8 10 14 13
10 8 5 4 4 6 5 6 8 8 10 12 13 13 13 13 13 14 15 15 14 15 13 10 10 8 6 6 5 4 2 2 3 3 4 6 6 7 10 10 10 11 13
8 6 6 4 4 5 5 6 7 7 9 11 12 12 13 14 14 13 13 13 14 15 15 14 13 12 10 9 10 9 7 9 10 13 10 9 8 7 5 7 10 10 12
6 8 7 5 4 5 5 5 4 6 8 10 11 11 10 11 11 11 13 13 13 14 16 16 16 14 14 12 11 10 10 10 10 12 12 11 10 5 4 3 7 9 11
5 8 6 6 5 8 4 4 6 5 6 8 9 10 9 9 10 10 9 10 11 11 12 12 12 14 17 16 13 10 8 7 7 8 7 8 5 4 3 4 8 3 3
7 10 7 5 8 9 6 5 8 5 6 6 7 7 9 9 10 11 10 9 10 11 11 11 13 14 14 15 19 20 20 16 12 11 10 8 6 4 4 6 3 4 3
5 6 6 2 4 11 7 8 8 6 5 6 6 7 7 8 9 11 10 9 11 12 12 11 11 11 13 13 14 17 17 17 14 13 12 10 9 9 8 8 8 10 7
1 2 4 6 6 12 10 11 9 8 6 6 6 6 6 6 8 6 8 7 9 10 10 12 10 10 11 11 10 13 14 15 18 18 17 15 11 6 3 7 3 4 4
4 5 6 6 3 9 11 13 12 10 8 8 8 8 7 6 6 4 4 4 7 9 10 10 9 9 7 7 7 6 8 8 7 7 8 9 10 12 9 11 9 2 3
5 6 8 8 5 7 13 13 10 11 12 9 8 6 5 4 5 3 4 5 5 6 6 6 8 8 5 5 8 6 6 7 8 4 4 5 5 8 9 9 11 9 12
7 10 11 10 8 7 12 11 10 8 12 11 9 8 5 5 5 4 1 3 8 8 6 7 8 7 8 9 8 9 6 3 4 2 4 5 5 6 6 8 9 9 10
10 13 13 14 11 7 7 10 10 8 10 10 10 9 9 8 9 8 9 9 11 9 7 9 12 10 11 9 8 5 3 5 1 2 4 3 4 3 1 4 4 6 8
11 12 12 13 13 12 11 9 8 7 7 9 10 8 10 8 8 8 9 9 9 12 10 5 5 4 5 5 2 4 4 4 4 3 3 3 2 2 3 2 3 0 2
11 12 12 12 14 15 14 11 9 7 7 8 8 8 9 7 8 9 7 4 5 6 8 6 7 4 2 2 1 1 1 0 1 2 1 2 2 1 2 3 3 2 3
10 9 10 10 9 10 11 14 13 11 8 7 8 7 7 5 8 6 5 6 8 7 5 9 3 2 2 0 1 2 1 1 1 1 2 2 2 3 3 2 2 3 3
10 10 10 9 9 9 9 10 12 12 10 8 5 6 6 9 8 8 6 6 6 5 8 3 3 2 2 2 3 3 2 1 1 1 2 2 2 1 5 2 2 3 2
8 7 7 6 6 6 5 6 9 9 9 7 7 8 8 7 6 6 6 5 6 5 8 3 3 3 3 3 4 3 2 2 3 2 2 2 2 4 4 3 4 3 4
10 9 8 8 7 7 6 5 5 4 6 9 6 4 4 5 7 6 6 7 12 3 3 3 4 4 5 4 5 4 4 4 3 4 6 5 4 6 4 5 3 3 5
10 11 10 9 8 7 6 7 6 5 3 3 6 8 7 6 6 6 7 10 7 6 4 6 5 5 6 5 6 6 5 7 8 9 9 7 6 7 7 5 8 6 9
12 7 5 7 6 6 6 5 6 4 3 2 2 3 4 8 10 9 8 8 7 8 6 8 9 9 8 7 8 9 9 10 9 10 11 9 9 9 7 8 9 8 9
10 7 5 6 5 2 3 1 1 2 1 1 2 5 6 10 10 6 6 7 8 7 9 9 10 11 11 10 9 9 10 12 11 10 11 12 11 11 11 10 11 11 11
7 6 6 4 2 3 7 7 4 5 5 4 3 4 7 7 10 10 9 10 10 10 10 10 11 11 11 10 11 11 13 13 12 11 12 13 13 13 13 13 12 13 13
6 3 3 4 7 8 9 10 10 8 9 9 9 7 7 8 8 9 10 12 13 12 12 12 12 12 11 11 11 12 13 14 13 12 12 15 16 15 14 15 15 15 14
3 3 4 4 5 6 12 10 10 14 8 13 10 9 10 11 11 12 14 13 15 15 15 15 15 14 14 14 16 15 11 10 11 12 12 14 15 16 16 16 15 16 16
2 6 3 7 7 7 8 8 9 10 10 9 8 6 10 12 15 16 14 14 17 19 18 17 18 18 19 18 17 18 20 22 19 18 13 15 17 17 18 18 17 19 18

GFSGL_925_spd_024.txt.gz
Wind_Speed
12 8 7 5 7 6 5 8 8 10 13 14 16 18 18 17 18 17 14 13 12 11 9 7 6 4 1 3 5 7 5 7 4 2 4 5 8 11 12 14 15 15 15
12 9 7 6 9 6 7 8 8 12 12 14 15 17 18 18 16 14 14 14 13 12 12 11 11 7 9 8 8 6 5 3 2 5 6 6 9 10 11 12 15 14 16
12 10 9 9 10 7 5 6 8 9 10 14 15 16 18 18 16 15 15 15 15 16 16 15 14 12 11 10 9 8 6 5 5 6 5 5 7 9 13 14 15 15 15
14 13 8 8 9 8 6 6 7 8 10 11 12 12 15 16 18 15 14 14 14 15 15 15 14 12 10 11 12 11 10 10 10 13 12 10 9 7 7 11 14 13 13
8 9 10 10 11 9 7 6 6 8 9 10 10 12 13 12 16 13 14 15 15 16 16 18 18 15 14 11 11 12 12 14 14 15 13 11 10 6 5 4 10 11 12
9 3 5 10 7 7 10 7 8 8 8 9 9 12 12 12 13 13 13 13 13 13 13 13 15 21 22 19 15 12 11 9 11 11 9 9 7 7 4 6 10 3 3
2 3 5 5 7 9 10 13 9 7 7 9 9 10 11 13 13 13 13 13 14 13 12 11 13 10 12 15 15 19 22 18 11 11 12 9 7 6 7 8 5 5 5
5 6 8 8 4 7 9 16 13 8 8 8 8 9 9 12 13 14 14 13 16 14 13 11 12 13 13 13 16 20 18 16 14 12 13 11 12 10 8 7 8 11 9
10 9 7 8 8 2 14 15 13 11 10 8 8 8 8 9 7 8 12 11 9 10 10 11 9 9 9 10 11 13 14 16 17 17 16 15 10 8 7 4 3 7 7
9 8 6 6 3 3 12 14 13 11 12 12 13 9 9 7 4 5 7 9 11 9 9 7 8 7 7 9 6 8 9 7 5 7 10 12 13 11 12 11 14 10 9
7 6 6 6 6 6 11 12 13 12 12 12 12 8 5 7 4 3 9 6 5 11 10 6 6 5 4 4 5 7 6 3 4 3 3 5 9 10 13 9 13 13 16
8 9 9 9 10 9 11 11 10 15 15 12 11 9 3 5 6 3 4 6 9 11 8 4 6 7 6 5 5 6 4 3 7 4 8 8 10 11 8 11 11 11 12
13 12 12 12 11 10 10 11 13 13 13 12 9 6 7 7 7 7 7 6 9 8 7 8 9 10 10 7 6 4 7 12 5 7 9 7 3 6 1 3 2 7 8
13 12 11 13 13 13 13 10 10 9 8 7 7 7 5 5 7 7 8 7 6 7 8 4 4 6 6 5 2 6 8 7 10 10 7 4 2 4 4 5 3 6 9
13 12 12 11 12 15 15 13 11 9 6 8 7 6 5 5 5 7 7 4 3 2 4 3 4 6 8 4 2 3 2 5 4 4 5 6 5 2 2 3 5 6 2
12 11 10 9 10 11 12 14 13 10 7 5 5 5 4 4 6 3 2 2 4 5 3 9 12 5 4 5 3 1 3 1 4 5 4 6 6 5 6 2 4 6 5
12 11 12 11 11 11 10 10 11 11 9 6 5 4 3 5 4 3 3 3 4 5 8 16 2 3 5 4 5 5 6 5 1 5 5 3 5 4 3 7 4 6 5
8 9 8 8 9 12 13 13 13 13 11 6 6 5 5 4 3 2 3 3 5 8 7 10 5 3 4 5 6 7 3 3 4 3 3 4 4 6 9 6 6 4 8
8 9 10 9 9 7 6 7 8 8 15 11 7 4 3 2 2 2 4 6 11 16 7 2 2 1 3 4 3 5 7 9 7 3 3 8 8 6 11 6 8 3 4
11 12 11 10 7 7 7 8 8 6 4 6 11 13 9 4 5 5 5 7 14 9 8 3 4 5 5 4 6 5 7 7 9 8 9 12 8 6 10 13 7 8 9
11 6 4 7 8 7 7 8 4 4 5 4 9 8 7 5 10 12 12 12 8 6 6 5 7 9 5 8 9 8 9 12 12 11 11 13 11 9 10 11 9 12 10
9 7 5 9 6 3 3 1 3 1 1 2 11 9 6 7 7 12 8 5 6 5 5 7 8 9 11 12 9 10 9 9 13 14 12 10 12 11 11 11 13 14 14
6 5 4 5 1 3 4 8 8 7 6 4 2 14 10 8 9 9 9 8 6 5 6 7 9 10 11 12 12 11 11 12 13 14 11 8 9 12 14 15 15 15 16
3 3 7 8 3 5 7 12 10 8 8 10 7 7 2 4 7 6 7 9 9 10 12 12 12 12 12 12 12 12 13 15 14 14 13 11 10 14 18 17 18 18 19
4 6 6 6 2 2 6 9 9 9 10 3 8 5 10 10 12 16 13 9 8 11 12 11 8 13 16 16 15 15 16 16 12 13 14 15 17 18 19 19 19 17 15
6 5 7 6 11 13 15 16 13 9 8 13 11 6 9 7 9 11 10 6 9 8 5 11 15 15 18 21 13 18 23 20 24 23 20 18 16 18 21 21 20 21 20

GFSGL_925_spd_027.txt.gz
Wind_Speed
14 11 9 8 8 9 11 12 8 13 14 13 15 18 19 20 17 18 19 17 17 16 14 13 13 8 5 3 2 3 6 6 4 8 16 14 16 17 16 15 14 13 12
16 11 12 11 10 10 11 11 8 11 12 13 14 17 18 20 21 20 18 18 17 17 15 13 13 11 11 11 10 8 7 3 4 13 11 12 15 14 15 15 15 15 15
14 13 14 11 12 10 7 10 6 8 10 11 15 18 19 20 19 19 17 18 19 17 16 16 15 14 15 12 11 9 6 6 6 13 9 12 15 16 18 16 15 14 14
15 15 13 15 13 13 10 8 7 7 8 10 12 14 16 17 19 19 18 17 18 20 18 18 16 14 13 12 13 12 10 13 14 16 16 15 15 11 13 18 16 12 11
19 18 16 17 15 16 15 11 8 8 6 9 11 11 13 14 15 16 15 16 17 18 20 21 19 17 14 13 13 12 12 15 17 17 14 12 10 7 6 8 14 14 14
14 14 16 20 18 16 15 10 9 8 6 7 7 10 14 15 12 12 13 13 12 13 15 17 20 21 19 16 15 13 11 11 14 15 12 12 9 7 7 11 15 7 3
16 15 15 14 13 13 16 13 12 11 7 10 8 10 14 13 11 10 12 13 12 12 13 11 14 12 12 11 15 16 15 14 11 10 14 9 7 5 7 8 5 5 7
15 12 9 7 9 11 19 18 14 14 10 8 7 9 11 11 10 12 12 12 12 12 13 12 13 13 13 15 16 18 19 18 14 13 14 15 13 9 5 4 5 10 10
15 11 7 2 3 5 23 21 15 15 12 10 8 8 8 8 7 10 9 7 8 13 11 9 9 11 7 9 12 14 16 17 15 15 16 14 11 9 5 5 1 7 3
10 8 7 7 6 5 20 20 15 15 15 14 13 9 6 5 5 4 9 7 11 11 8 8 7 7 10 5 4 8 7 6 7 9 11 11 10 11 7 8 8 8 11
8 8 9 8 9 11 15 15 15 18 17 14 12 8 6 4 6 8 7 6 13 10 8 7 6 5 4 4 5 4 4 2 1 2 1 8 9 15 15 10 11 11 11
10 11 11 11 11 11 14 15 14 19 18 14 11 7 5 6 6 6 7 12 12 7 6 6 6 6 6 5 6 6 5 8 8 2 15 14 9 9 9 12 13 13 14
13 13 12 12 12 13 14 14 17 17 16 13 10 7 7 7 7 7 6 5 5 4 7 9 9 8 7 7 8 10 9 14 11 10 10 8 6 6 2 3 3 5 7
14 13 13 13 13 14 14 12 13 11 10 9 7 7 6 6 7 7 7 6 7 7 7 5 4 5 7 6 4 8 7 7 8 9 7 4 3 4 5 3 3 6 3
16 15 14 13 13 15 15 13 11 9 7 7 7 7 6 5 6 6 6 4 4 4 3 1 1 4 5 5 3 3 2 6 8 8 8 9 7 5 2 3 5 7 11
19 16 14 14 13 15 17 17 13 11 8 7 6 5 4 4 5 3 2 2 0 1 1 6 10 14 6 8 4 0 1 4 3 3 5 5 8 5 5 3 4 6 4
16 17 16 15 14 15 15 16 18 12 9 7 6 5 4 5 4 2 1 1 2 3 5 9 11 8 10 9 10 7 5 2 3 1 1 4 4 5 8 8 5 6 7
14 16 17 15 14 14 14 15 17 16 14 10 8 7 6 5 3 2 1 1 1 4 10 10 5 7 5 4 4 5 6 5 4 2 1 2 4 6 8 12 10 6 4
10 11 10 13 13 12 17 15 14 13 12 12 10 6 5 4 2 2 2 3 4 8 15 7 9 3 2 3 4 5 7 8 7 5 5 7 7 11 8 11 12 7 7
15 11 13 14 12 9 14 12 17 16 14 14 11 8 8 7 5 4 6 6 2 6 7 3 0 4 6 5 7 9 8 6 8 10 10 9 10 9 7 9 12 10 9
12 12 6 3 12 13 10 6 7 10 15 16 14 12 6 7 8 9 11 11 9 7 5 2 4 5 3 9 12 11 8 8 9 10 10 17 13 13 12 10 13 13 13
8 7 6 10 9 7 4 5 6 9 13 16 17 15 8 7 9 8 8 10 13 11 8 6 5 3 6 9 7 9 13 11 10 11 12 15 16 14 11 11 13 13 14
8 8 12 9 11 6 4 9 4 10 8 4 16 16 16 11 6 5 7 8 9 8 8 8 8 9 10 8 7 9 12 14 13 11 13 12 9 8 8 10 12 15 17
12 16 15 10 6 5 8 11 10 9 9 10 5 9 7 8 10 10 9 8 11 7 10 9 9 11 10 11 13 14 13 13 17 17 16 17 16 15 15 15 18 18 17
14 13 11 10 15 19 19 18 15 11 13 15 9 3 9 13 17 14 9 10 9 3 8 6 7 3 2 5 4 7 12 17 16 19 17 20 20 20 20 21 20 19 20
15 20 21 21 21 19 18 19 18 16 11 12 19 31 25 25 23 23 24 24 22 18 14 12 12 12 11 11 12 12 14 17 19 22 23 22 26 23 22 21 20 19 21

GFSGL_925_spd_030.txt.gz
Wind_Speed
12 13 10 10 11 10 12 12 12 13 12 11 12 14 17 15 13 14 16 15 16 15 14 13 13 10 10 6 5 5 8 8 8 9 17 14 11 9 8 8 8 8 8
13 13 13 12 11 11 13 12 10 11 11 10 11 14 16 16 16 17 16 15 16 17 14 13 13 10 11 9 7 8 6 4 15 17 15 9 13 13 13 12 12 12 12
18 16 18 15 12 11 12 12 10 9 10 10 12 15 15 15 16 16 16 17 17 16 14 14 14 13 13 11 9 8 7 9 19 19 12 14 14 13 14 14 13 12 12
23 20 20 18 15 15 15 13 11 9 9 8 11 12 13 15 16 17 17 19 20 18 18 18 16 14 13 12 12 11 10 15 18 20 18 14 13 13 13 14 11 9 10
22 22 24 20 17 15 13 13 11 10 9 8 8 10 11 12 13 13 15 16 18 21 21 21 20 17 14 13 13 13 14 16 17 17 13 13 11 14 9 6 10 10 10
24 23 20 21 20 18 16 11 11 10 9 6 7 10 11 11 9 10 12 11 13 13 15 15 16 16 15 14 12 11 10 14 17 16 12 11 8 8 9 15 16 8 3
20 17 19 22 21 22 16 15 14 13 10 7 8 9 10 9 7 8 9 10 11 11 13 14 16 16 13 14 14 13 13 11 8 7 12 9 7 7 11 15 10 5 4
19 16 16 17 16 21 20 16 15 14 11 8 8 9 9 9 8 8 8 9 10 11 10 12 12 15 16 15 17 18 17 15 14 14 13 10 8 5 5 5 6 7 9
13 10 8 8 10 19 22 19 16 16 13 11 8 8 8 8 7 8 7 6 9 9 7 8 9 8 10 10 12 15 16 16 14 14 15 12 8 6 5 5 8 11 3
9 8 6 4 7 12 23 21 18 17 15 14 12 7 6 5 4 8 6 7 9 7 6 7 7 8 5 5 5 7 9 8 9 9 8 10 10 7 5 2 3 15 5
7 10 9 9 8 11 18 19 19 18 17 16 11 7 5 5 6 5 11 8 8 7 6 5 5 4 5 7 5 5 5 3 1 3 6 6 8 11 10 6 7 4 12
10 11 11 9 9 10 16 17 18 19 18 14 10 7 5 5 5 5 5 12 8 3 5 5 6 6 6 8 9 8 6 3 4 6 9 8 3 7 8 9 10 10 8
15 13 11 12 11 11 14 17 20 18 17 13 10 8 6 5 6 6 8 7 5 5 7 8 7 6 7 8 9 7 9 11 12 12 9 6 5 4 2 2 1 2 6
16 13 12 12 13 13 12 13 14 14 13 10 8 7 7 6 6 8 8 7 7 8 6 3 5 6 5 4 5 7 9 7 8 7 4 1 2 2 3 1 2 4 5
16 14 13 13 14 14 14 12 10 8 7 7 7 7 8 6 7 6 6 5 5 4 4 4 5 4 3 2 1 1 4 5 4 4 5 6 4 1 1 2 2 1 9
17 15 16 16 16 15 16 15 12 10 7 6 6 5 5 5 6 4 3 3 3 3 2 6 8 4 7 7 3 2 1 2 3 2 2 2 3 3 5 4 5 4 2
18 17 17 17 17 17 15 15 15 10 9 7 5 4 3 5 5 3 2 2 2 0 3 7 6 8 8 7 6 5 4 2 3 4 3 2 3 4 7 8 10 7 4
15 16 17 17 17 16 15 14 13 12 12 9 7 6 5 5 4 3 2 2 3 2 4 4 3 6 5 1 1 1 1 2 4 5 4 4 5 6 9 8 12 8 7
16 15 14 15 15 15 14 13 11 10 10 10 7 6 6 5 4 3 3 4 1 2 4 0 7 8 5 3 4 5 5 8 6 7 8 9 11 8 10 10 9 9 8
14 16 17 15 18 15 16 16 13 11 10 11 10 7 9 8 6 5 6 6 5 2 0 4 6 8 6 6 7 8 7 7 8 9 10 12 13 9 10 12 12 8 9
16 16 13 11 9 17 18 17 17 17 17 16 13 11 9 10 9 7 5 7 7 9 4 7 4 3 4 7 7 9 11 11 11 12 12 12 13 15 17 14 14 14 13
14 10 7 15 15 13 11 9 10 18 20 20 17 14 12 10 10 10 9 10 9 13 15 13 9 6 5 5 7 6 8 11 13 13 13 12 12 14 14 14 13 14 15
11 9 9 15 12 6 6 7 7 6 5 14 18 16 17 14 11 11 12 10 9 9 13 12 12 8 6 5 6 9 12 14 15 16 17 16 16 16 14 13 13 13 14
9 9 13 13 11 13 10 8 8 11 9 4 9 13 11 9 11 13 12 10 2 6 4 7 7 5 4 4 5 7 10 11 11 11 16 21 22 22 20 18 18 17 20
19 20 20 21 21 19 19 18 16 13 12 12 12 13 16 17 17 15 12 13 13 13 13 11 8 6 5 5 6 8 10 13 15 16 15 15 19 21 22 24 21 21 19
17 20 21 19 17 15 13 12 15 16 18 17 20 21 21 21 20 18 17 14 13 11 9 8 8 8 8 9 12 14 14 16 16 17 19 20 20 20 24 26 30 25 20

GFSGL_925_spd_033.txt.gz
Wind_Speed
13 13 10 10 10 9 10 8 8 8 7 9 11 13 13 12 12 14 15 14 14 14 14 14 13 9 7 4 5 8 11 13 6 4 9 9 5 1 2 4 5 7 8
13 13 12 12 11 10 10 9 6 8 9 10 12 14 15 15 14 14 14 14 14 16 15 14 14 11 11 9 7 6 8 13 9 10 12 7 6 6 7 7 8 9 11
12 12 14 13 13 11 11 8 7 6 9 10 11 14 17 16 17 17 16 17 18 16 15 16 16 14 14 11 9 6 5 7 11 14 9 8 10 8 9 8 8 8 9
14 13 15 16 14 12 11 8 6 6 7 9 9 12 14 15 16 16 17 17 19 20 19 18 16 15 15 14 13 11 10 11 12 16 12 11 10 9 9 9 7 7 8
18 18 19 18 14 12 11 9 6 6 7 7 8 11 11 11 12 13 15 18 19 19 19 18 18 17 15 14 15 15 12 12 13 13 10 9 8 9 7 5 6 7 7
18 20 20 16 15 14 12 12 9 9 8 7 8 9 9 8 9 8 8 11 13 14 15 14 15 16 16 15 14 14 14 13 12 11 9 7 6 4 6 7 9 3 2
17 16 15 18 21 18 15 13 12 12 9 7 9 8 8 7 7 7 7 8 11 13 13 16 15 15 14 14 14 14 14 11 8 6 10 5 2 1 4 7 7 2 0
14 10 16 21 23 22 18 14 13 12 9 6 8 8 8 8 7 7 7 8 9 11 12 12 14 15 16 15 15 17 17 17 14 13 10 9 6 2 2 3 5 2 6
6 5 6 11 17 23 20 18 15 14 10 8 7 7 8 7 5 5 3 5 7 8 9 10 8 8 11 11 12 15 15 15 13 14 13 11 8 3 3 4 7 9 3
7 5 6 6 10 18 23 20 17 16 13 12 9 6 6 5 3 5 3 4 6 6 7 6 7 6 4 6 6 8 11 10 9 9 9 9 9 6 1 5 5 9 3
10 7 4 3 6 10 18 21 19 16 15 13 10 7 4 4 4 5 7 4 4 4 5 5 5 4 5 4 3 3 3 3 3 3 4 6 7 7 6 6 6 3 10
12 10 7 7 6 12 16 20 18 17 16 12 9 8 5 4 4 3 6 6 4 1 3 6 6 6 8 8 6 6 4 5 8 8 7 4 2 4 5 6 8 8 4
12 11 10 8 8 11 17 19 19 17 16 12 7 5 5 3 3 5 7 8 4 2 6 7 6 6 7 7 7 5 6 4 7 8 8 4 3 3 2 1 2 1 2
13 13 13 11 11 11 13 16 17 16 14 11 9 7 5 5 5 6 6 5 6 6 6 4 5 6 5 5 4 5 5 5 5 4 1 2 5 5 5 4 5 5 7
11 10 11 11 12 13 13 13 12 11 10 9 7 7 8 7 7 6 6 5 5 5 5 5 3 2 1 2 1 1 1 2 2 2 1 1 2 3 4 4 5 6 7
12 11 12 12 12 12 12 13 11 10 8 7 7 5 6 6 7 5 4 4 5 5 5 3 3 6 5 3 1 2 3 1 1 2 3 4 3 3 4 4 5 6 7
12 13 13 14 13 13 12 12 14 11 9 8 6 5 5 6 6 4 3 3 4 4 4 4 8 6 3 1 1 1 0 3 6 7 6 5 4 4 5 5 7 5 5
12 13 15 15 15 14 12 11 10 11 9 7 6 5 6 6 5 4 4 4 5 5 3 4 5 4 4 3 1 1 2 3 7 7 7 6 7 8 8 7 7 8 7
13 13 13 12 12 11 10 9 10 9 8 7 6 7 7 6 5 4 4 5 4 2 2 3 6 7 7 6 6 7 6 6 6 7 8 8 9 10 9 10 8 7 7
15 13 13 12 12 12 11 11 10 7 5 5 5 6 7 6 5 4 5 6 4 2 1 4 6 7 8 8 8 9 10 10 10 10 10 11 12 11 10 12 13 14 12
15 15 16 16 15 17 16 15 13 11 11 10 9 7 6 6 5 5 4 4 5 6 7 7 7 8 9 9 9 9 11 10 11 13 13 12 10 11 12 13 14 13 14
13 15 16 19 17 19 20 17 16 16 15 15 14 11 10 9 9 8 9 10 11 11 13 14 12 10 10 8 8 9 10 11 13 14 16 17 17 16 15 15 14 14 14
17 16 14 16 16 16 16 14 13 12 13 16 17 14 14 15 12 11 11 11 9 10 9 8 11 10 8 8 7 8 9 10 12 14 15 17 18 21 20 19 18 17 17
16 12 11 15 12 13 13 12 9 7 6 4 4 5 7 7 8 9 8 7 5 4 6 6 5 4 3 1 1 4 7 9 11 13 14 15 17 18 18 20 22 20 20
15 15 17 18 17 17 17 14 12 10 10 9 10 10 10 7 6 5 7 9 9 8 8 6 5 3 2 4 6 9 12 13 14 16 15 15 16 17 18 18 20 21 23
20 22 22 21 19 16 15 15 13 13 12 12 12 12 12 13 13 12 11 9 8 7 6 4 3 4 5 8 10 13 15 17 18 18 16 15 15 16 17 17 18 18 19

GFSGL_925_spd_036.txt.gz
Wind_Speed
16 11 9 10 8 7 7 8 8 8 9 11 12 12 11 11 12 13 15 14 15 14 13 13 12 8 5 1 3 7 6 5 6 4 7 9 8 7 9 10 10 11 11
15 12 11 11 9 8 7 7 7 9 10 12 13 15 15 15 15 15 16 16 17 18 16 14 12 10 10 8 6 3 6 6 6 8 12 6 9 7 8 8 10 11 13
15 15 11 10 8 8 7 6 7 8 10 12 14 17 17 18 18 17 18 19 19 18 17 16 16 15 14 11 8 6 5 6 6 10 7 6 8 7 9 9 10 10 10
14 12 10 11 10 9 6 6 5 6 8 10 12 13 15 16 17 17 18 19 20 19 18 18 18 17 17 15 13 12 9 9 8 13 10 9 7 6 6 8 9 8 10
13 12 12 13 14 11 9 7 6 7 7 9 9 11 12 12 13 14 15 16 16 17 18 18 18 16 15 15 15 13 10 11 12 11 9 8 6 5 3 2 5 6 7
13 14 13 15 17 14 12 11 8 8 7 8 8 9 10 10 10 8 10 13 15 17 17 17 17 17 16 15 15 15 14 12 11 10 8 7 5 3 3 4 7 2 1
18 15 15 15 16 17 15 12 11 10 7 8 8 7 9 10 9 9 8 11 13 15 16 17 19 18 16 15 14 14 14 12 10 8 10 7 4 1 1 5 5 1 2
18 18 16 19 18 19 17 15 11 10 8 8 8 7 8 10 9 9 8 8 10 12 12 14 15 16 16 14 14 17 18 18 16 15 12 9 7 5 2 1 3 1 5
16 16 12 11 15 19 18 15 13 14 11 10 9 8 8 8 7 6 6 7 9 10 10 9 8 11 12 11 11 14 14 16 14 14 14 13 10 6 5 4 1 3 1
10 8 5 6 9 13 17 16 16 15 12 10 10 9 8 6 5 4 4 6 7 7 8 8 9 6 6 8 7 8 9 8 8 8 10 11 11 9 7 5 4 5 2
6 5 4 3 4 9 13 18 19 18 14 12 10 9 7 5 3 7 5 3 4 6 7 7 7 6 7 7 7 5 3 2 1 2 4 7 9 9 9 11 11 5 3
6 6 5 4 3 4 11 17 20 18 16 13 10 8 7 6 4 5 7 5 3 4 6 7 8 8 9 8 7 9 7 3 4 3 2 2 4 4 5 7 8 8 5
4 7 7 7 7 8 11 19 20 17 16 13 9 7 5 5 4 4 7 6 5 5 8 7 6 7 7 9 11 10 10 10 7 4 1 2 4 5 5 6 6 5 4
6 6 7 9 10 10 14 16 18 16 15 13 10 7 6 6 6 7 6 6 6 8 6 6 6 5 4 6 6 7 6 5 4 4 4 6 7 7 7 7 8 8 8
7 6 7 9 11 13 13 12 12 11 11 10 8 7 7 7 7 7 7 8 7 6 7 6 4 2 0 2 3 2 3 3 3 4 4 6 7 7 7 7 8 9 8
10 8 8 9 11 13 15 14 12 10 8 7 7 6 6 6 8 7 6 6 6 7 5 4 4 6 6 6 6 6 5 4 5 7 8 8 8 7 8 8 9 10 9
10 10 11 11 12 14 13 13 16 11 10 9 8 7 6 9 7 6 5 6 6 4 3 4 8 6 4 3 4 3 3 4 6 8 8 8 7 8 9 10 9 10 8
12 13 13 14 14 13 12 12 12 12 11 8 7 7 8 8 6 5 5 6 5 5 4 6 6 4 2 1 1 1 2 3 5 6 7 7 7 8 10 8 9 9 8
16 16 16 16 14 13 12 12 12 11 10 9 8 8 8 7 6 5 5 6 6 4 4 5 5 5 5 5 5 6 6 6 6 6 7 7 8 9 10 9 9 9 10
14 15 15 14 13 12 11 10 8 8 7 7 7 7 7 6 6 6 7 7 5 3 2 2 4 5 6 7 7 8 8 8 9 9 9 9 10 10 10 11 12 12 11
15 15 14 13 12 11 10 10 9 8 7 6 5 4 5 4 5 6 6 5 4 4 5 6 5 5 7 7 8 9 9 8 8 9 10 11 12 13 13 14 15 14 13
16 16 16 16 15 13 13 12 12 11 11 10 9 10 9 9 8 7 6 5 6 9 9 10 12 12 10 10 9 9 9 9 9 10 12 13 15 15 15 17 17 16 14
17 18 18 17 16 14 13 13 13 13 15 16 15 16 16 15 12 10 9 9 9 8 8 10 10 10 8 7 6 6 7 8 9 10 11 12 13 13 13 15 15 14 14
16 18 16 16 17 14 12 13 11 11 11 9 9 10 12 12 10 10 9 8 6 4 2 2 3 3 2 1 1 3 5 8 9 10 11 12 14 15 14 14 13 13 14
17 17 15 17 16 14 13 13 14 11 9 7 6 7 8 8 8 8 6 6 6 6 6 5 5 3 2 1 3 6 8 11 13 13 11 12 12 13 13 12 12 12 12
19 17 17 19 17 16 16 17 13 10 9 10 10 11 10 9 9 10 10 9 7 6 5 3 1 1 2 4 6 7 9 11 11 12 11 11 11 11 12 10 11 10 11

GFSGL_925_spd_039.txt.gz
Wind_Speed
14 12 11 10 10 11 11 10 9 8 9 10 10 11 11 10 11 11 11 10 11 11 10 10 9 8 6 4 3 0 1 3 7 6 12 11 11 10 11 11 11 12 12
17 13 11 10 10 10 10 9 10 10 10 11 11 13 12 13 13 13 12 11 12 13 12 12 12 8 9 8 6 5 1 4 5 8 12 7 11 10 10 10 11 12 13
16 15 15 12 10 9 9 9 10 10 10 10 11 12 13 13 14 13 14 14 14 14 14 14 13 13 13 11 9 7 5 5 5 10 8 8 9 9 10 11 10 9 9
14 14 14 14 13 12 11 9 10 9 9 9 9 9 12 13 14 14 13 13 13 13 14 15 16 15 13 11 12 11 9 8 9 12 12 9 8 7 6 8 8 8 10
12 12 12 12 12 11 10 10 10 9 8 9 9 8 9 10 10 11 12 12 12 14 15 15 16 17 17 15 12 11 10 10 11 11 9 8 7 4 3 3 5 5 6
11 11 11 12 12 11 10 11 10 9 8 8 8 8 8 8 10 11 12 12 13 12 13 14 14 15 16 16 16 16 13 10 9 9 8 7 5 4 3 3 5 2 1
9 7 8 10 11 12 11 11 11 10 9 8 7 7 8 8 9 9 11 11 12 14 13 13 14 14 14 13 15 16 16 15 13 11 10 8 5 4 2 3 2 1 1
7 1 4 8 9 11 12 10 12 11 10 8 7 8 8 9 8 8 8 10 11 11 12 12 12 14 14 12 13 15 16 17 15 13 12 9 8 6 4 2 2 0 2
7 4 2 3 8 12 14 12 12 13 11 10 8 7 8 9 7 6 6 7 9 10 10 9 9 11 11 11 11 12 12 13 14 14 15 13 11 8 5 2 2 4 1
6 5 2 2 8 11 18 18 15 16 14 14 11 9 7 6 6 5 5 6 7 7 8 9 6 6 7 7 7 7 7 6 6 6 8 10 11 11 11 10 6 6 6
4 3 3 5 8 11 18 20 19 18 15 15 14 11 7 6 6 7 5 5 6 6 5 5 6 7 7 7 7 4 2 2 2 3 4 5 6 8 8 9 11 9 7
7 4 3 3 4 8 13 20 21 21 18 14 14 11 8 6 5 9 7 6 5 6 7 8 9 8 8 7 9 9 6 2 0 0 1 4 5 6 6 6 7 6 5
13 10 6 4 5 9 14 19 21 20 19 14 13 10 7 6 6 6 8 7 7 6 8 8 10 8 8 9 9 10 10 8 6 6 5 5 6 6 6 6 5 6 6
12 9 8 7 7 9 12 18 22 16 17 15 12 9 8 7 8 8 9 9 9 9 8 8 8 5 5 4 5 7 7 6 7 6 6 6 6 7 7 6 7 8 9
9 9 8 8 8 12 14 14 15 16 15 15 13 10 11 8 9 9 9 9 8 8 8 7 5 4 2 3 4 5 5 5 6 6 6 7 8 7 7 7 8 8 9
9 7 7 10 11 13 15 15 12 12 11 10 9 10 9 9 10 10 9 9 9 9 6 5 6 6 5 5 5 5 5 6 7 7 7 7 6 6 8 8 8 9 9
9 11 9 11 12 13 11 11 14 13 11 10 9 9 8 11 10 8 8 8 8 7 4 6 8 5 5 4 4 4 4 4 6 7 8 7 6 6 8 10 8 7 9
8 12 11 10 10 10 10 10 10 11 11 9 9 9 10 9 8 7 7 7 6 5 5 8 7 4 3 2 1 1 2 2 4 5 6 7 7 7 8 9 7 7 9
10 10 10 11 10 10 10 11 11 11 10 10 9 8 10 9 8 7 7 5 7 6 6 5 4 3 3 2 1 2 3 3 5 5 6 6 6 7 8 8 8 8 10
10 13 13 12 12 11 11 12 11 11 11 11 10 10 10 9 7 7 7 6 4 5 4 4 3 3 4 4 4 4 4 4 5 6 6 7 8 8 9 10 11 12 12
12 13 12 11 11 11 11 10 11 9 9 9 9 10 12 8 8 8 8 6 5 4 4 4 4 5 5 6 6 6 7 7 6 7 8 9 9 11 12 13 14 14 14
14 14 14 12 12 12 11 11 9 9 8 8 8 8 10 8 7 9 9 9 6 5 5 7 7 7 6 5 5 5 5 6 6 6 7 8 11 11 12 14 15 16 17
15 14 13 13 13 12 12 11 10 10 9 8 9 10 12 11 9 9 8 6 5 6 9 7 6 5 6 5 5 4 2 3 5 7 7 8 10 11 12 14 16 17 18
15 15 16 16 15 13 12 11 10 10 7 5 6 8 12 12 12 12 12 10 8 6 5 4 4 5 4 2 1 1 3 4 5 6 8 9 11 12 13 14 16 16 17
14 15 14 14 13 14 12 11 10 8 5 4 4 5 7 9 10 14 13 11 8 7 6 6 6 5 3 2 1 3 6 9 9 9 6 7 8 9 9 10 11 13 13
17 15 15 14 11 11 13 11 9 9 7 8 8 7 7 8 10 8 9 9 9 8 7 6 5 4 2 1 4 6 7 7 6 5 3 4 5 6 7 8 9 10 10

GFSGL_925_spd_042.txt.gz
Wind_Speed
10 7 9 8 7 7 6 6 8 8 8 8 8 8 8 9 8 7 8 9 10 11 9 11 10 10 9 8 6 3 4 6 8 7 12 11 11 11 10 11 10 10 10
11 9 10 9 7 7 8 8 7 8 8 9 10 10 10 10 9 9 9 9 12 12 12 12 12 10 10 10 10 9 7 4 9 12 11 7 10 10 10 10 9 11 11
14 11 10 10 10 8 6 6 8 8 8 8 10 10 9 10 11 10 11 12 13 13 13 14 14 13 14 12 12 11 9 10 8 13 10 9 10 8 10 10 9 8 8
15 11 12 10 9 8 8 6 5 7 8 8 9 9 10 11 10 10 11 12 12 13 14 15 15 15 12 12 13 12 11 11 13 12 15 11 8 7 6 6 6 7 9
16 14 13 11 11 9 9 7 7 7 8 9 8 8 8 8 8 9 10 10 11 13 13 14 17 19 19 15 12 12 11 12 13 14 11 9 8 4 3 3 3 4 4
18 14 12 14 12 12 11 10 9 8 8 8 9 9 8 8 10 12 10 10 11 12 13 13 13 14 19 20 19 16 14 10 11 11 11 10 7 5 4 2 4 2 2
18 13 10 13 13 13 12 11 10 9 9 8 8 8 9 9 10 10 12 10 11 11 11 11 12 13 13 13 17 18 18 17 15 11 10 9 9 6 3 3 3 1 0
13 12 9 10 12 14 13 13 11 10 10 9 9 9 10 10 10 10 12 9 10 10 10 11 11 12 12 11 12 15 16 16 14 13 12 10 8 6 4 3 1 1 2
13 10 8 12 13 14 15 14 12 11 10 10 9 9 9 9 10 11 9 8 9 8 7 8 9 9 12 13 10 11 11 12 14 15 14 13 12 10 6 4 2 5 6
18 14 13 11 12 16 14 14 14 12 10 9 9 8 9 8 9 9 7 7 8 7 7 7 7 7 8 8 6 6 6 6 5 5 7 9 9 10 12 10 7 7 7
11 10 8 8 8 8 12 13 16 15 11 10 10 8 7 6 7 7 7 6 6 6 5 5 5 7 8 8 7 3 3 3 2 2 1 2 2 4 6 8 8 8 9
10 10 9 7 8 10 14 19 20 18 15 12 10 8 6 5 6 9 7 7 7 6 7 6 7 8 8 8 8 8 6 3 0 1 1 2 5 5 5 5 5 6 4
4 4 5 4 4 6 13 20 23 21 15 14 12 10 8 6 6 10 8 7 7 7 8 9 10 10 8 9 9 8 4 3 3 3 4 4 4 5 5 4 5 4 6
5 4 3 5 7 9 12 17 22 16 15 14 12 9 9 8 7 7 7 8 9 8 10 11 8 5 3 3 2 3 4 5 4 4 4 4 4 6 5 6 7 7 7
4 4 5 5 6 11 14 14 17 18 13 17 11 10 9 9 9 10 9 8 8 9 10 8 8 7 5 3 2 3 3 3 4 4 5 5 5 5 5 6 7 8 8
6 7 8 8 7 10 13 14 12 12 12 12 12 10 7 8 10 11 11 11 11 12 9 10 7 4 2 2 2 4 4 4 5 5 5 6 5 5 7 7 7 7 8
8 8 8 9 9 10 10 13 18 12 11 11 11 11 10 12 12 10 9 9 10 11 9 8 7 5 4 3 3 3 4 4 2 4 5 6 6 6 6 8 7 7 8
9 11 10 10 10 11 12 12 13 13 12 10 11 12 12 12 11 9 10 9 9 9 8 9 8 6 5 4 2 2 1 1 2 4 4 5 6 7 7 8 8 7 10
9 10 10 11 12 12 13 13 13 13 11 12 11 10 12 11 10 9 10 9 10 10 9 8 7 7 6 4 3 2 1 2 3 5 5 5 6 8 8 9 10 6 7
9 8 11 12 12 12 12 12 11 12 12 13 13 13 13 11 10 10 11 9 8 8 8 8 9 7 6 5 4 4 4 4 4 6 6 7 8 9 11 12 13 13 15
11 12 12 11 12 12 13 13 14 15 14 13 12 13 14 11 10 11 11 10 9 9 8 8 9 9 8 7 7 7 8 8 9 8 9 10 11 13 16 17 17 18 18
13 14 14 12 12 13 14 14 14 13 13 13 12 11 15 8 8 10 11 10 10 9 8 8 10 10 9 6 6 8 10 9 8 8 9 10 11 12 14 16 19 22 21
15 15 16 13 13 13 13 15 14 12 11 11 11 13 14 12 10 10 11 10 8 8 8 8 10 7 6 4 4 5 6 5 5 5 7 9 12 14 16 18 20 21 21
17 15 13 15 16 17 17 14 12 10 9 11 11 10 11 13 14 13 11 10 11 9 8 7 7 8 7 6 4 2 2 3 2 5 7 10 13 14 15 15 15 15 16
16 18 19 16 15 15 9 12 15 12 12 9 8 8 7 9 10 10 12 11 12 8 8 9 8 8 7 7 6 5 4 5 7 8 7 9 9 10 10 11 12 13 14
19 17 17 18 19 16 16 15 13 12 9 8 7 6 6 6 8 13 10 9 11 11 10 9 9 9 8 6 6 7 8 8 6 5 3 6 7 8 8 10 11 12 12

GFSGL_925_spd_045.txt.gz
Wind_Speed
14 13 12 9 9 8 5 4 5 4 5 5 5 6 7 10 11 9 9 12 14 13 12 14 13 12 12 9 7 4 4 7 9 7 14 12 11 11 10 9 8 8 8
13 10 11 10 9 9 6 4 4 4 5 5 7 8 9 10 10 11 11 13 13 14 13 15 17 13 14 13 11 12 10 7 12 14 13 9 11 9 8 8 7 8 8
15 13 13 11 9 7 6 5 4 4 5 5 6 8 8 9 10 11 11 11 12 13 14 16 15 15 16 15 13 12 12 11 9 14 10 11 10 7 8 7 7 6 5
15 14 13 12 10 8 7 6 5 4 4 4 5 6 7 8 9 9 10 10 11 13 14 16 16 14 13 11 14 14 14 14 15 14 15 12 8 6 6 6 4 4 4
14 13 11 11 11 11 9 6 5 5 3 3 4 4 5 5 6 7 8 9 10 12 13 15 18 19 16 15 12 11 12 14 16 17 12 9 8 6 4 4 4 4 1
18 12 10 12 13 12 9 9 7 5 4 3 3 3 4 5 8 9 9 8 9 10 11 11 10 15 20 19 16 16 15 13 13 12 10 9 7 6 5 5 5 4 3
16 14 11 12 13 14 13 11 9 8 6 4 3 4 4 5 8 10 9 7 8 9 9 8 9 11 11 12 16 17 19 17 13 12 12 10 8 5 2 3 2 1 2
13 12 10 12 14 13 14 13 11 10 8 6 4 4 6 4 7 10 10 6 6 8 8 9 9 9 12 11 12 15 15 15 15 12 11 9 6 4 3 1 2 2 3
9 9 11 14 14 14 15 13 16 13 11 9 8 7 6 6 8 9 3 4 5 6 6 8 7 8 11 11 9 10 10 12 14 14 13 12 12 10 7 8 5 8 6
11 15 11 13 14 14 17 13 15 16 13 12 10 9 8 7 8 8 4 4 5 6 5 6 5 7 7 7 6 5 5 5 4 4 5 6 5 7 13 11 8 10 8
8 9 4 8 10 10 13 15 16 16 15 13 11 9 10 8 9 9 6 5 7 6 5 5 4 6 7 5 5 3 3 3 2 4 3 2 1 3 6 8 9 10 9
5 3 3 4 7 11 13 15 17 19 20 15 13 12 10 9 11 11 9 6 4 6 6 4 6 7 7 7 5 4 3 4 3 1 1 3 4 6 6 5 3 5 3
6 6 8 7 8 8 12 15 19 23 23 18 15 14 11 10 7 12 10 9 6 6 6 7 9 9 8 7 4 4 2 5 2 1 4 4 4 3 6 4 6 6 8
7 6 6 6 8 11 8 16 21 20 20 14 14 13 11 10 10 10 9 9 9 8 9 11 12 6 4 5 5 2 2 3 4 4 3 3 4 4 4 5 7 7 8
5 5 6 6 8 10 11 14 18 20 21 16 15 15 13 12 12 13 12 11 11 10 12 12 9 10 11 8 3 1 1 2 2 3 3 3 3 4 4 5 5 6 7
5 6 7 9 6 8 10 11 16 16 17 14 15 13 8 7 13 16 16 12 13 13 11 12 13 12 5 4 3 4 4 2 2 3 3 4 4 4 6 5 5 5 6
7 7 8 8 8 8 9 10 12 11 12 13 14 15 11 13 11 13 14 14 14 17 11 15 9 6 5 4 4 2 4 3 1 1 2 3 4 5 4 5 5 5 8
8 10 10 10 10 11 11 11 11 13 13 10 12 12 11 12 13 13 13 13 11 16 14 13 10 8 7 6 5 4 3 4 3 2 2 3 4 6 6 6 7 5 8
9 11 11 11 11 12 13 13 13 16 17 14 11 11 15 14 13 13 14 14 16 16 15 11 8 9 8 7 4 3 1 2 2 5 5 4 4 7 8 9 10 7 7
12 13 12 12 13 14 15 18 21 21 19 17 13 15 16 15 13 14 15 16 15 14 11 10 11 9 10 7 7 6 8 10 9 9 7 6 8 8 13 16 17 16 14
10 15 16 17 19 15 16 15 12 12 13 14 15 16 19 18 16 16 16 16 13 12 10 10 11 12 10 10 10 10 10 10 9 8 9 7 10 13 15 15 15 21 19
12 13 12 18 15 14 14 14 14 15 15 15 14 15 19 18 13 13 13 13 12 10 10 10 10 9 10 9 11 9 8 11 12 11 9 10 13 15 16 18 18 15 18
13 18 14 16 13 11 13 14 15 16 16 16 17 16 17 15 12 12 12 11 11 11 9 8 10 10 8 3 5 6 10 11 6 6 8 11 13 16 17 17 19 19 18
13 21 12 14 15 11 14 17 16 15 14 13 13 19 20 17 13 12 11 9 7 8 8 10 10 11 10 9 8 7 5 7 3 5 7 10 13 15 15 15 16 15 15
15 20 16 15 13 10 14 22 15 9 9 7 10 14 14 10 11 12 11 10 10 11 11 10 10 9 10 11 8 10 11 7 8 9 10 11 12 11 12 12 12 13 13
17 19 18 18 24 26 24 8 5 1 10 14 13 12 8 5 5 4 6 9 12 11 11 12 12 11 11 11 11 14 9 9 10 10 9 7 10 10 10 9 11 13 13

GFSGL_925_spd_048.txt.gz
Wind_Speed
8 10 11 11 11 10 9 10 9 7 7 8 7 5 7 9 9 7 12 12 14 15 15 17 16 16 17 15 11 7 7 9 10 9 18 14 14 12 11 10 8 7 8
9 10 11 12 12 10 10 10 7 6 7 8 8 9 9 10 10 10 12 14 15 15 16 16 18 17 15 15 15 18 15 10 19 16 14 10 11 9 8 7 6 7 8
12 15 14 13 12 11 10 10 8 7 7 8 8 9 9 9 10 11 12 15 15 16 16 14 15 15 16 16 14 14 17 14 14 17 12 13 10 7 7 7 7 5 5
16 18 17 14 12 11 9 9 8 8 7 7 7 8 7 9 10 11 12 13 15 16 18 20 19 17 13 14 15 14 14 18 18 18 16 12 8 7 5 5 4 3 4
18 13 17 15 13 12 11 8 8 7 8 7 7 6 6 7 9 9 11 11 13 15 15 19 22 21 19 15 14 13 16 18 17 17 11 8 7 5 3 3 2 3 0
18 13 14 13 15 14 11 10 9 9 8 6 5 7 8 7 8 10 11 10 10 11 10 11 15 18 21 19 19 20 12 16 15 13 10 8 6 6 6 6 7 5 2
15 12 13 14 15 16 13 12 12 10 9 6 6 7 5 8 9 10 10 10 10 9 10 12 11 12 14 13 15 18 18 17 13 11 13 10 9 5 4 6 7 5 5
20 17 16 16 18 17 16 16 13 14 11 9 7 9 7 7 10 11 10 9 10 11 10 8 10 10 12 12 15 16 15 13 10 10 9 8 5 1 1 1 4 4 5
10 7 7 6 13 18 21 19 17 15 13 11 9 12 8 7 11 11 6 7 8 8 7 9 7 9 10 11 9 12 12 14 13 11 9 9 10 9 6 9 1 9 10
4 4 2 13 12 15 15 16 18 18 17 13 11 11 10 9 11 9 5 6 9 9 6 7 4 7 7 7 7 6 8 8 6 4 5 5 5 10 11 10 11 17 15
7 8 7 17 10 10 8 13 14 17 16 14 13 13 12 10 12 11 5 8 9 10 10 8 5 6 6 4 2 3 7 5 3 7 8 7 6 7 10 10 8 8 10
6 9 8 11 10 7 7 10 10 13 16 15 13 11 11 11 12 12 10 8 7 10 8 6 6 6 5 5 4 4 4 4 8 13 4 9 7 7 7 6 4 5 2
5 6 8 7 8 6 3 5 9 16 20 17 17 14 14 11 10 12 12 10 8 7 9 8 9 9 8 7 4 4 2 9 11 4 10 8 4 2 5 3 8 8 9
4 5 6 7 7 9 8 4 11 18 22 21 18 18 15 14 13 12 13 12 10 10 9 9 11 10 7 5 6 3 3 3 6 7 6 4 2 2 2 5 4 7 10
5 5 6 7 7 10 8 8 11 15 21 26 23 17 13 14 16 13 13 13 12 11 11 11 13 11 10 13 13 5 6 3 2 2 2 2 2 2 6 3 3 5 6
6 7 8 8 7 8 9 9 12 16 17 20 17 14 14 12 14 19 18 14 14 14 14 13 16 18 20 19 16 12 8 5 3 1 3 3 2 3 5 6 1 3 4
6 6 6 8 9 6 9 10 10 11 14 16 14 14 12 12 13 15 16 16 15 14 16 18 20 20 13 7 7 9 15 10 6 2 1 2 0 3 4 4 4 4 5
6 8 9 10 12 8 9 10 12 14 12 15 16 14 13 11 13 14 15 16 15 18 18 18 17 16 10 10 8 8 10 6 10 5 3 3 2 1 9 5 9 5 3
7 8 10 10 8 13 13 12 13 14 13 12 15 14 15 14 15 15 15 16 15 16 20 21 20 15 12 11 9 7 5 4 5 3 7 8 7 5 9 8 10 13 9
10 13 13 10 12 13 15 15 15 15 17 20 18 16 16 17 15 15 17 20 18 17 23 24 15 13 13 11 12 10 10 12 13 12 12 12 6 6 5 10 13 11 18
13 14 13 13 17 17 17 20 23 22 24 23 20 21 21 19 16 17 17 18 20 22 21 19 16 16 13 17 14 15 15 16 21 20 14 3 1 4 9 9 12 16 15
14 16 9 14 21 18 24 25 26 22 24 23 17 22 20 20 20 21 20 20 21 22 13 10 10 17 20 19 20 18 16 15 6 8 4 2 4 9 11 12 15 15 14
16 17 13 13 17 15 18 13 12 10 10 14 20 22 23 18 20 19 22 21 20 16 11 11 11 7 6 12 11 11 10 8 4 3 4 4 6 9 12 13 15 16 14
16 16 13 14 14 14 16 7 11 9 13 14 18 25 23 20 18 20 14 16 17 16 15 12 12 11 11 5 8 8 9 11 7 3 5 6 7 10 13 13 12 14 15
16 15 15 15 14 14 10 3 5 4 7 7 5 10 7 5 11 20 16 8 14 11 10 12 12 12 12 9 13 14 16 15 12 9 8 9 10 12 12 12 14 14 11
15 14 14 14 15 15 13 11 9 10 7 7 4 4 2 8 12 8 2 8 10 12 13 12 13 14 13 12 13 14 15 13 11 11 12 12 10 11 12 13 10 8 11

GFSGL_925_spd_051.txt.gz
Wind_Speed
11 14 16 14 10 11 12 11 10 11 11 10 10 11 12 13 12 15 16 14 14 14 18 18 17 17 18 14 10 9 7 12 10 10 18 15 15 12 11 8 8 10 11
15 17 16 17 14 13 10 10 9 12 10 11 11 12 13 15 12 16 17 15 14 15 14 17 18 16 16 16 15 14 12 8 22 17 16 11 11 9 9 7 7 8 9
17 17 15 15 14 12 13 11 11 11 11 10 11 12 12 14 15 15 17 14 12 12 12 15 16 16 17 14 14 16 15 18 23 21 13 13 10 7 8 8 7 7 7
15 17 16 17 15 13 11 10 11 10 10 10 11 11 14 13 14 15 15 16 19 20 20 19 16 16 15 15 15 16 16 20 22 21 18 12 9 8 6 7 5 5 6
19 18 19 20 17 16 13 12 11 12 11 10 10 11 12 12 13 14 15 14 15 17 21 22 21 19 15 13 16 13 16 20 20 19 14 10 8 7 6 5 4 5 3
20 16 22 22 19 17 16 16 14 14 12 10 10 14 8 13 12 15 14 14 12 11 14 16 18 18 20 18 15 16 13 18 19 16 10 12 9 8 8 9 7 5 2
15 13 22 19 18 17 18 17 17 16 13 10 14 11 8 12 11 13 13 13 12 12 11 12 13 12 13 17 19 18 14 10 9 11 12 9 9 7 6 6 8 6 5
14 10 14 10 8 8 16 18 17 18 16 12 12 9 10 14 13 14 13 12 11 10 9 9 12 11 13 13 15 16 14 12 12 11 11 9 7 4 3 2 2 5 5
5 2 4 9 7 8 13 16 16 19 18 16 14 13 10 13 15 13 13 12 13 10 8 9 10 10 11 11 12 15 15 15 11 11 13 12 11 8 7 6 8 6 4
6 13 11 8 4 3 10 11 14 19 19 18 16 14 10 11 15 14 11 12 12 9 11 9 8 10 10 8 8 10 11 9 8 9 10 11 11 11 11 6 9 11 7
6 10 9 5 4 2 3 8 10 4 14 14 13 15 13 8 13 12 7 13 15 12 10 9 9 9 8 7 7 10 9 5 4 6 6 6 8 7 6 9 10 8 10
5 4 4 3 2 3 6 7 9 13 14 15 17 16 14 12 11 13 10 13 12 12 15 10 9 9 8 6 5 7 8 6 7 8 10 8 12 10 5 6 5 3 2
3 4 4 2 0 2 5 14 18 18 21 21 21 20 17 14 13 13 13 11 10 13 13 10 10 10 10 7 8 7 4 6 10 12 16 13 7 4 3 2 4 1 6
2 3 4 5 6 7 6 7 11 18 23 23 24 22 18 20 15 16 16 15 14 13 13 12 11 12 12 8 9 6 3 2 7 9 8 7 4 4 7 4 2 4 5
2 1 4 6 4 6 6 7 9 14 18 23 27 27 20 24 22 16 16 19 17 15 14 14 15 16 13 12 11 9 8 4 5 5 5 5 5 7 5 1 2 2 3
2 5 8 8 7 6 5 6 8 12 14 17 19 22 18 18 17 17 13 14 15 17 16 17 18 19 16 14 13 10 15 11 8 5 6 4 4 4 0 2 4 3 1
1 6 8 5 11 8 6 6 9 7 10 12 13 18 15 15 16 22 19 17 18 17 22 17 18 21 20 18 21 22 18 16 11 9 6 8 5 4 3 5 5 6 8
3 1 6 9 9 11 10 9 9 11 11 10 12 10 12 12 16 19 20 18 20 23 23 21 20 19 19 21 19 25 21 16 14 12 10 8 7 6 6 7 8 7 10
8 7 6 8 11 9 12 11 10 11 13 15 14 15 16 16 16 17 18 22 24 25 25 24 26 22 18 22 17 20 23 18 16 14 13 11 12 12 11 8 2 4 6
9 9 10 11 11 13 14 17 18 17 16 17 18 20 18 17 19 21 21 21 20 21 22 26 28 24 21 22 20 21 19 16 17 17 15 14 17 15 9 3 5 7 9
11 10 11 13 12 15 16 19 21 19 21 21 22 21 23 25 25 23 21 23 24 26 26 20 24 23 27 23 22 21 18 15 16 20 21 21 16 12 5 4 5 7 10
13 12 13 13 13 17 15 19 21 25 27 26 25 21 24 20 23 22 21 22 23 26 28 26 26 27 31 27 25 24 21 19 23 22 25 21 17 11 7 6 6 8 8
16 16 16 15 16 16 14 18 18 10 13 20 25 30 33 29 22 20 19 20 22 21 23 23 18 26 26 25 25 26 25 24 18 15 19 17 13 10 8 8 9 12 13
22 19 17 14 15 15 11 7 2 9 9 10 15 26 34 29 20 21 19 7 28 27 20 15 16 13 13 15 14 20 20 17 16 16 14 12 11 10 11 12 13 13 12
21 23 19 20 19 17 14 10 6 4 4 10 14 12 6 11 11 4 1 5 12 14 27 25 22 17 13 13 21 23 22 20 17 14 12 12 11 11 13 14 15 17 16
25 18 20 15 16 16 14 10 8 7 9 9 13 14 12 9 10 8 5 6 8 9 6 3 4 9 9 10 13 16 18 17 13 10 9 9 11 13 13 13 14 11 8

GFSGL_925_spd_054.txt.gz
Wind_Speed
16 16 15 15 15 13 12 11 12 11 10 9 10 8 10 11 9 12 13 10 11 11 10 12 12 10 11 11 16 15 15 16 10 8 20 17 15 13 10 10 10 10 11
17 18 16 17 15 15 12 12 10 11 10 11 12 11 13 10 11 13 14 11 11 10 12 11 11 11 13 11 14 14 15 13 23 20 19 16 15 11 10 9 11 11 10
17 18 19 16 18 16 12 13 11 11 12 13 13 12 12 12 12 12 10 10 10 10 11 10 12 10 11 13 13 13 13 15 21 21 13 15 13 11 10 10 9 10 10
20 18 20 19 18 17 14 13 12 12 12 13 14 14 13 13 12 11 13 16 16 15 13 12 11 11 10 11 12 13 16 19 20 22 18 14 9 9 9 9 8 7 7
19 20 18 18 18 18 15 13 13 13 13 13 15 15 13 12 12 12 13 16 18 18 16 15 11 11 13 10 10 13 16 20 18 18 13 10 8 9 8 8 8 8 6
18 19 15 19 20 20 17 14 14 14 13 14 15 16 13 15 14 13 12 13 14 15 17 15 15 13 12 14 15 12 11 19 21 17 11 11 8 7 9 10 10 5 2
19 18 15 21 22 18 15 16 17 20 16 15 17 16 16 16 17 14 13 11 11 11 9 10 12 12 12 12 13 14 13 11 10 11 15 12 10 9 8 8 6 3 0
13 12 9 19 15 15 12 6 6 10 15 17 20 15 15 16 14 14 13 13 12 12 10 11 9 11 12 13 14 15 13 11 9 9 9 9 7 7 5 4 4 4 2
9 9 9 12 9 8 7 3 9 15 17 17 19 15 14 17 16 15 15 14 13 12 10 10 9 11 12 10 12 14 14 13 12 12 11 11 9 7 4 5 6 7 3
8 8 7 11 10 11 10 13 10 13 10 16 17 15 13 17 18 15 14 16 14 12 11 10 9 10 11 10 10 12 12 12 13 14 14 13 12 10 7 4 6 8 8
10 10 8 8 8 6 7 7 8 13 0 13 16 16 14 14 19 17 15 18 13 13 13 12 12 11 10 11 10 10 9 11 10 9 9 9 7 6 5 7 6 7 8
10 7 6 6 8 6 5 4 5 10 2 13 15 16 17 15 16 19 16 15 18 15 14 13 13 14 12 10 10 11 11 9 9 8 9 12 12 8 7 4 4 4 4
8 8 6 4 2 2 3 5 11 13 13 15 19 19 19 19 18 18 17 15 19 17 14 14 11 13 12 11 9 10 9 8 13 15 14 13 12 13 12 6 2 3 3
6 5 3 4 4 6 7 8 8 14 20 17 21 22 24 26 23 20 21 19 16 17 17 17 14 14 14 11 13 11 8 6 11 15 16 14 14 14 12 8 5 2 1
3 1 2 2 4 7 9 10 10 10 9 15 20 24 25 24 29 25 23 24 23 20 19 18 18 18 18 15 14 13 8 11 12 12 12 11 13 11 13 9 6 4 3
5 3 3 4 5 6 7 8 9 12 15 17 17 15 23 30 28 25 20 22 23 21 21 22 21 21 22 20 18 15 12 12 13 12 12 10 12 13 10 10 7 7 6
5 5 6 6 7 10 11 10 11 10 12 13 15 14 14 20 21 24 23 20 22 23 24 22 22 23 24 21 19 18 14 18 17 15 14 12 12 11 8 6 8 9 10
7 5 4 4 6 9 11 13 12 11 12 11 10 12 13 17 17 19 22 24 25 27 26 25 23 22 24 24 23 22 22 20 21 18 16 16 14 14 12 10 6 5 7
10 8 8 8 8 10 14 15 13 14 13 12 11 11 11 11 12 14 22 28 28 29 30 28 26 24 21 22 21 24 24 27 29 23 21 19 18 17 13 11 9 8 7
15 11 11 11 11 12 12 16 20 17 15 14 16 17 16 16 18 21 25 28 29 29 30 30 29 27 25 26 22 22 27 32 30 27 26 22 19 20 19 17 16 15 13
18 14 14 15 15 16 17 15 17 19 20 20 22 20 20 22 25 27 29 31 32 32 29 28 29 26 25 26 24 27 33 36 31 30 28 24 20 22 22 22 21 16 13
17 19 18 17 16 17 20 16 15 17 19 24 27 27 22 23 25 26 27 29 30 29 27 28 26 21 19 23 25 33 36 34 31 29 28 26 24 23 22 22 19 17 15
17 14 21 21 20 19 20 16 14 12 12 18 23 24 25 28 28 24 22 21 21 20 20 23 24 27 28 29 29 38 37 34 29 23 24 24 25 25 24 21 18 16 15
19 20 17 19 21 18 20 14 8 5 5 8 10 17 22 28 28 23 17 13 7 13 19 20 23 18 14 17 24 34 34 31 28 24 23 25 25 26 23 18 16 16 14
20 18 17 11 11 13 15 9 10 11 10 11 11 14 18 21 17 17 16 16 13 11 9 12 15 21 18 25 31 31 31 26 26 22 21 23 21 18 16 14 13 14 15
13 12 10 9 9 10 7 6 6 8 12 9 7 9 14 18 19 16 16 12 12 12 15 14 12 4 8 15 14 13 7 10 13 17 19 15 12 11 11 13 13 15 17

GFSGL_925_spd_060.txt.gz
Wind_Speed
13 15 13 13 12 12 11 9 5 5 5 3 4 5 3 2 1 2 2 2 2 1 1 1 1 3 8 13 15 22 15 12 9 7 16 15 13 12 12 12 13 13 13
12 14 12 13 13 12 10 9 8 7 6 5 4 6 5 2 2 3 4 3 2 1 1 1 3 2 5 9 14 20 15 12 15 15 18 13 15 13 14 14 14 13 14
13 15 14 14 13 13 10 8 8 6 6 6 7 6 5 3 3 3 3 3 3 3 2 2 2 2 5 9 13 16 15 12 16 19 15 19 17 15 15 14 13 14 14
15 17 16 15 13 12 10 9 8 7 6 6 6 6 5 4 2 2 3 5 5 5 3 4 4 3 4 8 11 13 14 13 15 21 18 15 16 13 13 14 13 12 12
16 16 15 13 12 12 10 10 10 10 8 7 7 8 8 6 3 2 4 6 7 7 6 6 7 6 5 3 7 11 13 15 17 19 15 13 12 14 13 12 11 10 10
13 15 13 13 12 12 13 12 11 12 10 10 11 11 9 8 7 5 5 6 7 8 7 8 8 7 6 6 6 8 11 17 18 11 11 12 15 16 15 16 16 9 4
10 12 13 14 15 13 14 15 16 16 15 13 13 14 13 11 11 9 7 6 6 6 5 6 7 8 8 8 10 9 8 10 12 16 18 17 15 18 17 16 16 12 5
11 11 12 15 14 13 13 16 18 18 18 18 18 17 16 13 13 14 11 9 7 5 4 4 4 7 8 9 11 11 11 11 9 8 11 12 10 15 14 14 16 10 7
14 12 12 15 16 12 10 10 12 18 17 18 14 16 17 13 14 16 14 13 11 10 7 5 5 6 7 7 9 11 10 10 9 8 10 10 10 11 13 13 14 11 4
14 11 11 11 9 8 6 7 9 10 14 11 15 15 16 15 14 16 17 15 13 11 10 8 8 8 9 8 8 11 12 12 12 12 11 11 11 11 11 11 11 11 6
12 11 10 9 8 7 6 6 6 7 9 11 8 11 10 14 16 16 19 18 16 14 13 13 12 11 11 10 10 11 10 13 14 13 13 12 11 9 8 7 9 11 10
14 13 10 9 8 6 2 2 5 8 9 10 7 9 14 16 17 18 19 21 19 17 16 13 14 14 14 13 12 10 10 14 15 15 14 12 11 8 8 5 5 5 6
13 13 10 8 6 5 3 2 5 5 8 7 10 10 11 12 13 18 22 21 22 22 19 14 14 16 16 16 17 15 13 17 18 18 17 17 15 11 9 9 8 6 5
13 14 11 6 2 3 4 7 8 8 9 14 12 14 15 15 16 19 23 25 24 23 23 21 18 18 20 19 18 18 19 21 22 24 23 22 19 18 16 15 12 11 12
9 10 8 4 2 4 5 4 2 1 6 11 13 12 13 17 21 22 24 30 31 30 25 25 22 22 23 22 21 20 19 20 23 22 24 25 23 22 20 19 15 14 11
9 9 6 3 5 8 9 6 5 5 6 9 9 12 17 17 17 15 21 21 30 29 25 26 26 28 29 28 26 24 23 23 22 19 16 18 21 22 22 20 18 17 15
10 6 3 4 8 9 8 8 5 5 8 10 13 14 11 15 16 18 17 20 24 30 23 26 27 29 31 31 30 29 29 28 24 22 21 21 22 22 22 22 22 19 17
5 4 4 5 5 6 8 11 11 8 11 16 12 13 14 13 14 16 17 15 22 28 25 24 29 29 30 31 32 32 32 28 27 24 24 24 24 23 22 23 24 22 20
4 5 7 8 10 9 12 11 10 12 13 16 19 18 16 15 13 12 13 14 19 24 31 29 27 28 29 28 29 31 33 33 30 28 29 27 26 25 26 26 25 25 23
8 11 13 15 15 15 16 15 14 15 16 17 18 18 19 17 16 14 13 13 16 21 25 29 29 30 27 25 24 26 29 31 30 32 30 30 31 30 30 29 26 22 22
7 7 8 11 15 20 21 19 18 18 17 19 20 19 20 19 21 20 20 20 20 20 21 22 23 27 28 27 24 25 27 27 31 34 34 34 32 31 34 33 31 29 23
8 8 8 9 10 13 18 19 20 18 21 20 21 20 18 18 19 20 19 20 21 20 20 20 23 25 26 26 28 29 28 29 29 35 36 34 31 33 33 35 32 31 29
9 11 12 12 12 14 16 16 18 18 18 17 17 16 16 17 16 17 17 17 17 18 16 17 19 22 24 25 25 26 26 27 33 33 32 32 30 28 30 32 33 29 30
11 9 11 14 15 15 14 14 13 11 9 10 10 13 15 16 15 16 16 15 13 13 16 14 16 19 22 22 22 23 25 26 28 30 28 31 32 25 23 28 28 31 31
14 12 10 11 10 9 8 9 9 10 10 10 10 13 15 15 13 13 13 11 9 8 9 10 12 14 16 18 19 19 19 22 24 25 24 24 27 25 26 34 30 23 23
16 16 14 16 16 15 16 16 16 17 17 16 17 17 17 16 16 15 14 12 10 10 10 11 12 14 15 14 11 9 10 15 14 13 19 26 33 28 27 27 26 25 20

GFSGL_925_spd_063.txt.gz
Wind_Speed
11 10 9 8 8 10 8 7 6 4 4 4 3 3 2 1 2 2 2 2 2 3 2 1 2 3 5 11 10 11 13 14 8 6 16 15 14 13 13 13 11 10 11
9 10 11 9 9 10 9 7 6 8 7 6 4 4 4 2 1 2 3 3 1 1 2 1 1 1 4 7 11 13 16 13 14 15 17 15 14 12 14 14 11 10 10
10 11 11 10 11 11 9 9 8 8 8 7 7 5 4 2 1 1 2 3 3 1 2 2 1 1 3 6 8 11 17 13 16 19 13 17 16 15 14 12 12 14 11
11 13 12 12 12 11 11 10 9 8 8 8 9 8 6 4 3 3 3 3 2 1 1 1 1 1 3 8 8 11 14 14 15 21 17 15 15 16 15 13 11 9 11
13 13 13 12 12 12 11 9 9 9 7 8 9 8 8 7 4 2 2 4 3 2 2 3 3 2 4 6 8 10 12 12 14 19 17 14 15 18 16 13 11 14 10
12 13 14 14 13 12 12 11 12 14 14 14 11 9 9 7 7 4 4 4 4 3 3 3 4 3 4 5 7 11 11 13 14 13 13 16 17 16 16 19 17 12 9
11 11 15 15 14 13 12 11 13 14 15 15 13 12 11 8 8 7 6 5 4 3 3 3 4 4 5 7 7 8 8 10 11 11 13 17 16 18 19 19 14 14 9
12 14 15 14 14 11 10 11 13 12 12 11 14 14 13 9 9 10 9 6 5 4 3 3 3 4 5 7 8 8 8 7 7 7 9 12 11 14 19 17 18 12 6
13 13 13 13 12 11 11 11 9 9 11 13 14 17 18 14 10 12 13 9 8 7 5 6 4 5 6 8 8 9 8 7 7 8 9 10 11 13 15 13 15 14 11
13 12 10 11 11 11 10 10 7 7 8 7 5 9 9 13 14 10 16 11 9 8 8 9 8 7 8 8 7 8 8 9 9 9 10 10 11 13 15 12 13 14 12
10 7 7 6 7 8 9 8 6 7 7 7 5 4 5 12 13 12 13 12 10 9 9 9 9 11 11 10 8 8 7 10 11 9 9 9 10 11 12 13 11 12 12
12 9 7 6 6 7 7 6 4 6 6 6 5 4 5 7 10 12 15 16 15 13 13 11 10 13 14 13 12 11 10 10 10 11 11 12 12 11 10 9 11 11 11
9 8 9 8 6 5 6 6 5 4 3 2 4 5 5 7 10 14 16 18 18 19 17 14 13 13 16 16 15 14 13 13 13 14 15 14 14 11 11 10 10 9 7
5 8 9 7 5 4 4 5 4 5 3 4 6 7 8 7 8 12 16 19 22 24 23 20 18 16 18 19 19 21 18 16 17 17 17 15 13 13 14 13 12 11 10
8 7 7 6 6 6 5 3 2 3 4 1 5 8 10 10 11 14 17 19 23 26 26 20 15 14 16 17 17 17 18 18 20 19 18 17 18 17 17 16 15 13 13
12 9 8 7 8 8 5 2 2 2 0 3 4 6 6 9 10 11 13 14 19 23 24 22 20 20 21 21 22 21 21 21 21 21 21 20 20 21 20 18 17 15 15
13 9 6 7 7 5 3 1 2 2 3 4 5 7 7 8 7 8 9 13 15 18 21 20 23 21 22 24 25 26 23 23 24 21 20 18 17 17 19 18 18 18 17
8 10 7 6 4 3 3 2 1 4 3 4 6 9 8 8 9 11 9 9 11 11 21 21 22 23 24 24 23 24 26 26 26 24 21 21 19 18 17 19 19 20 20
6 6 6 5 5 5 4 3 5 6 5 6 5 7 7 8 10 11 11 9 9 13 16 22 25 24 24 23 23 21 18 17 17 20 23 23 23 22 22 22 22 23 23
5 8 9 9 7 9 9 9 9 7 7 6 6 7 3 5 8 9 8 8 9 10 11 16 18 21 28 29 26 27 27 24 25 26 25 24 24 24 25 23 24 23 23
1 2 4 4 6 9 11 12 11 10 9 7 6 5 8 6 9 10 11 9 9 8 9 10 12 13 16 20 20 21 22 24 24 28 29 27 26 26 27 26 26 26 24
6 4 4 5 6 6 6 6 6 9 9 8 7 6 11 8 8 9 10 9 8 7 8 9 9 11 11 13 13 14 15 16 19 26 29 29 28 25 26 25 27 28 27
7 6 6 7 6 7 5 4 4 3 3 3 4 6 8 10 10 10 11 12 12 11 9 8 8 9 10 12 13 14 16 17 18 18 23 27 25 26 28 27 24 25 29
1 1 2 2 3 3 1 4 7 9 9 8 8 9 11 11 12 14 14 14 13 13 11 10 9 10 11 11 11 13 15 16 16 17 19 23 26 27 31 32 29 29 29
10 9 8 7 8 10 11 13 13 13 13 13 13 13 12 12 12 13 13 13 13 12 14 14 14 14 14 15 14 13 11 12 12 17 21 23 25 24 25 26 26 25 27
16 16 15 14 16 17 17 18 18 18 18 17 14 15 15 12 11 14 14 13 12 12 13 13 14 15 16 17 17 16 14 15 15 15 16 18 21 24 24 27 29 29 29

GFSGL_925_spd_066.txt.gz
Wind_Speed
9 7 6 7 8 7 7 7 6 5 4 5 5 5 4 3 3 3 3 4 5 4 5 6 6 6 8 9 11 10 11 11 9 6 13 15 13 12 11 12 10 9 9
10 7 7 7 8 9 8 7 6 6 6 4 4 4 5 4 3 3 3 2 3 4 5 6 5 4 6 6 9 11 11 10 11 13 17 16 14 10 11 13 9 9 8
11 8 8 8 9 9 8 6 6 5 5 5 5 5 6 5 3 3 2 3 3 3 3 4 5 4 5 4 6 9 10 11 15 18 13 17 17 15 12 10 12 13 11
10 8 9 10 9 9 8 8 7 7 7 8 8 7 6 6 5 3 2 3 2 2 0 2 4 4 2 3 5 9 11 14 13 19 15 15 16 16 13 13 12 10 11
11 9 9 9 9 8 8 8 8 9 9 8 8 7 6 7 6 4 3 3 3 3 2 2 0 2 4 4 3 6 10 11 13 13 14 13 13 15 16 13 13 12 10
13 11 11 11 11 9 9 9 8 9 9 9 9 9 8 8 7 7 5 4 4 4 4 2 1 3 1 3 7 9 10 11 13 13 13 16 15 16 17 18 16 15 6
13 12 12 11 11 10 10 9 9 9 10 11 11 11 11 10 9 7 7 5 5 4 3 3 3 2 4 3 2 6 10 11 11 13 15 18 17 20 21 16 16 17 11
12 10 12 14 12 10 10 11 9 9 11 12 13 13 15 13 12 9 8 5 5 4 3 3 3 3 4 5 5 4 5 7 9 9 11 13 15 21 24 20 20 20 9
10 8 9 12 13 12 11 11 9 8 9 13 11 11 15 18 17 13 12 9 7 6 4 4 4 5 5 9 6 6 6 6 9 10 10 11 15 16 17 15 17 16 12
10 7 7 9 11 11 10 8 7 7 6 7 9 8 10 14 16 15 15 12 9 8 8 7 9 7 8 9 7 8 7 7 7 7 8 10 12 13 18 17 16 17 16
13 5 6 8 9 10 9 8 6 6 4 5 8 9 7 12 16 16 16 15 11 9 9 9 9 11 10 10 10 8 8 9 10 9 9 10 11 12 16 17 15 17 14
21 17 5 5 9 8 9 8 5 6 4 6 8 8 7 8 14 16 17 17 16 10 10 8 7 11 12 12 12 10 11 9 10 12 11 12 12 13 15 15 15 15 14
21 18 13 5 7 6 9 7 6 5 7 8 7 12 9 7 10 16 14 15 18 20 15 12 11 9 12 14 15 14 12 11 12 12 12 11 11 11 10 11 10 9 11
22 20 16 9 10 9 9 8 7 7 7 9 8 10 7 7 8 8 13 16 18 20 21 19 14 13 14 14 13 18 15 15 15 15 14 13 13 14 14 14 13 11 12
15 19 19 20 14 10 9 7 4 4 5 7 8 7 8 11 9 8 12 13 14 17 18 16 16 15 16 16 18 19 20 20 20 20 18 17 17 17 18 18 17 16 17
11 14 17 17 12 11 8 6 4 6 6 5 6 6 5 8 9 9 11 13 15 17 15 18 18 18 18 21 21 21 21 22 23 21 22 22 21 21 21 21 21 21 20
12 14 13 11 11 10 8 6 7 8 7 8 8 7 6 7 8 7 9 11 11 12 15 17 17 19 22 23 24 23 19 22 22 21 21 23 17 20 21 23 22 22 21
9 12 10 9 9 8 7 6 4 5 6 8 10 6 9 9 8 10 10 11 8 7 10 12 14 16 17 20 20 24 25 24 20 22 27 22 19 16 19 23 23 23 25
9 8 8 8 6 6 4 4 6 6 7 6 5 8 6 5 7 9 9 10 9 6 6 8 10 12 16 18 18 20 21 21 23 25 26 23 21 25 22 24 20 28 27
5 5 5 8 9 10 10 9 10 10 10 11 6 4 9 5 10 11 11 7 6 6 5 6 7 7 8 9 13 13 14 16 21 23 24 25 29 31 25 24 28 25 28
8 6 6 8 9 9 9 10 11 11 12 10 6 1 2 5 6 5 7 7 7 6 6 2 5 5 4 4 4 4 7 10 12 16 21 23 24 27 30 29 28 31 32
8 8 7 8 7 7 6 7 10 10 11 11 5 3 0 4 3 4 5 5 7 7 9 8 8 8 8 8 6 3 7 10 11 12 14 16 20 23 25 25 27 26 23
8 8 8 8 7 5 8 9 9 8 5 1 3 6 4 5 4 5 7 8 8 9 8 8 8 9 9 9 9 10 14 13 11 10 9 12 15 17 23 26 31 29 24
6 5 5 4 4 6 5 3 0 5 7 7 9 9 10 11 10 9 9 9 9 10 10 10 10 11 11 12 11 12 13 12 11 10 12 13 12 12 15 21 24 26 30
9 9 9 9 10 7 8 12 13 13 13 13 11 11 11 10 10 10 10 9 11 12 12 12 12 12 14 16 14 14 14 15 15 13 13 15 15 15 19 20 23 25 28
14 16 16 15 17 18 16 14 13 13 13 12 11 10 10 11 12 12 11 12 12 12 13 13 12 13 12 13 16 14 13 15 16 13 14 14 13 11 12 12 11 9 8

GFSGL_925_spd_069.txt.gz
Wind_Speed
10 8 7 8 10 9 8 6 5 4 4 4 4 4 2 2 4 4 5 4 6 5 6 7 7 7 9 9 9 12 15 12 8 5 13 14 12 10 10 9 10 8 9
10 7 8 10 10 9 8 6 5 5 5 4 4 3 4 5 4 5 6 4 5 5 4 5 7 5 4 7 7 11 13 11 11 12 15 15 13 12 11 9 10 8 8
13 11 8 13 11 10 8 7 6 6 6 6 4 4 5 5 4 4 5 6 5 5 4 3 4 4 5 4 4 7 10 11 10 14 12 14 14 13 13 8 9 11 8
16 12 9 11 12 11 9 8 7 7 7 7 6 6 5 5 5 5 5 6 6 5 4 4 3 3 3 2 1 5 9 11 10 17 14 15 16 17 14 12 11 9 9
13 13 10 11 10 11 10 9 9 8 9 8 6 7 7 7 8 7 4 5 6 5 3 4 1 3 3 1 2 6 11 10 13 14 14 12 13 16 15 15 13 13 12
13 13 11 12 11 11 10 9 8 9 8 8 7 8 8 10 3 4 6 6 5 5 5 4 1 2 1 3 4 7 10 11 12 12 12 15 16 18 16 16 14 15 10
17 16 15 16 15 14 11 9 9 7 8 7 9 8 9 8 9 6 7 6 5 5 4 4 6 4 3 2 5 7 7 11 11 11 13 15 16 21 19 19 20 19 11
18 16 16 17 16 15 13 11 7 5 5 6 8 7 8 7 10 11 10 8 6 5 5 4 6 1 2 2 4 4 4 6 9 8 9 12 15 19 23 20 19 12 12
19 17 17 18 18 17 15 12 9 5 4 5 5 4 7 8 12 14 13 11 9 8 6 4 4 3 4 6 3 4 4 4 5 7 7 11 13 14 18 16 14 15 9
21 19 18 18 18 17 15 12 10 8 4 3 3 5 6 7 10 14 14 14 13 10 9 8 10 7 6 6 4 3 5 6 6 5 7 10 11 13 18 19 16 18 18
20 19 18 17 16 13 12 10 9 8 6 1 4 3 6 8 6 7 13 15 14 11 11 10 10 11 11 9 11 6 6 5 6 7 8 9 10 13 16 19 20 20 17
18 18 17 16 14 14 12 11 9 8 6 4 5 6 7 6 7 10 15 17 16 13 13 11 8 9 8 11 12 12 11 9 9 10 13 14 17 19 18 18 18 16 14
20 17 16 15 13 11 13 11 7 6 6 5 6 8 7 7 6 8 12 14 16 19 18 12 6 7 9 11 15 15 13 11 12 13 13 13 13 13 12 12 13 13 20
18 21 14 14 14 14 12 12 7 5 4 4 9 9 4 6 5 6 9 14 17 17 19 18 15 12 12 11 12 16 17 14 16 17 16 15 13 13 13 14 14 14 14
8 13 13 10 10 10 8 7 7 4 3 4 4 5 6 6 4 4 6 9 11 12 14 14 14 16 18 17 16 17 19 19 19 19 18 17 13 13 17 16 17 19 18
9 11 11 12 12 12 12 9 4 4 3 6 4 4 2 3 6 7 8 10 12 14 13 15 19 19 16 17 16 19 21 22 21 21 19 16 15 15 16 16 23 23 21
15 10 10 9 9 8 4 5 12 7 7 7 7 6 5 5 5 7 8 8 9 11 11 11 16 16 19 22 24 23 22 23 19 19 22 20 24 25 23 20 17 22 21
6 7 9 5 5 7 8 6 4 12 14 16 16 12 7 7 6 8 8 7 8 7 6 7 9 10 11 13 14 19 21 22 23 22 21 24 22 20 21 22 21 18 17
19 17 10 10 7 8 7 5 8 7 6 6 13 14 9 6 6 10 10 8 8 9 3 4 5 5 7 7 10 12 15 16 17 19 22 25 27 27 26 24 22 26 26
11 13 14 12 13 11 9 7 11 15 10 3 8 12 10 8 10 10 10 8 9 12 13 2 3 6 7 6 5 5 8 10 12 13 16 20 21 20 22 24 25 25 25
5 8 10 16 19 22 27 24 15 9 7 8 10 7 9 3 13 7 3 7 16 19 19 10 8 10 10 7 4 3 5 6 8 11 12 14 20 21 25 26 26 27 27
10 12 15 20 16 12 6 8 6 6 7 13 8 5 6 3 9 16 17 15 12 11 12 10 10 16 18 18 17 13 14 15 13 14 11 11 14 16 20 21 21 24 25
7 9 8 8 10 6 6 8 3 11 11 15 17 19 16 16 18 14 12 14 16 14 13 13 14 13 13 12 14 15 14 16 15 14 14 15 14 14 16 19 18 18 20
5 3 5 7 4 6 16 19 14 18 19 17 14 14 12 11 12 11 9 11 10 10 9 10 10 11 10 11 13 13 15 16 16 15 13 12 13 14 15 16 17 19 21
9 9 10 10 7 10 13 14 15 13 13 14 15 13 10 10 9 9 9 10 10 9 9 9 9 9 9 11 12 10 13 15 15 14 11 11 11 11 11 11 13 14 14
12 14 15 13 12 14 13 14 14 14 14 14 13 12 11 10 14 10 9 10 10 8 9 8 9 10 12 11 11 12 13 13 13 12 10 11 11 11 12 13 13 12 13

GFSGL_925_spd_072.txt.gz
Wind_Speed
16 16 13 13 13 12 10 9 6 4 3 2 3 4 2 6 5 4 4 5 8 7 7 9 10 9 11 12 13 14 16 20 7 5 12 12 12 12 10 7 10 7 9
16 17 15 12 12 14 11 10 8 7 5 5 4 6 3 5 4 3 4 6 6 4 5 7 10 8 5 9 10 12 16 15 11 12 15 14 13 11 12 11 11 6 7
18 13 16 18 17 17 14 14 12 8 7 6 5 4 4 5 2 3 4 5 3 5 5 4 7 7 6 6 7 5 12 15 15 15 13 16 17 16 14 12 8 12 6
22 20 20 22 20 19 19 17 15 13 11 8 7 5 4 4 4 5 3 3 5 6 4 5 6 4 4 4 4 2 15 14 13 18 15 15 17 17 17 14 18 12 8
25 23 19 22 21 19 17 15 13 13 12 10 8 6 5 5 6 10 3 3 5 6 3 3 3 5 5 4 1 6 15 14 12 14 13 10 13 17 16 15 13 12 9
25 21 19 19 25 20 20 16 15 14 11 7 8 8 7 5 5 5 5 5 3 6 5 4 4 1 2 2 2 6 9 12 13 12 12 13 15 17 21 18 15 14 8
23 20 20 20 20 20 19 16 16 14 11 11 10 9 9 7 8 7 5 5 4 3 4 3 4 5 2 4 2 3 6 10 10 12 15 16 18 26 25 19 19 21 13
21 24 24 24 23 23 21 19 16 14 11 10 9 9 8 9 9 8 7 7 4 1 6 5 3 2 3 5 2 5 3 4 7 10 10 13 14 19 26 27 24 23 14
24 23 25 25 23 25 23 21 19 13 11 8 8 7 7 8 6 8 8 8 7 6 6 6 2 3 1 5 2 5 7 6 6 7 9 8 9 11 19 21 19 19 8
25 26 27 28 26 24 22 20 18 13 11 10 8 6 7 8 5 4 10 10 9 4 4 6 7 9 4 3 6 4 9 10 9 8 8 6 12 15 15 23 23 18 14
24 28 29 27 24 23 23 19 17 15 15 11 8 7 6 5 3 3 11 12 11 6 3 5 10 8 9 5 6 5 3 4 6 6 7 8 11 15 20 23 21 22 19
26 32 33 30 24 20 18 17 15 16 13 11 9 6 8 8 2 2 9 12 10 7 5 3 2 9 7 6 8 10 9 6 5 10 12 15 17 19 19 21 24 23 24
14 57 24 25 17 16 15 12 12 13 12 15 15 7 3 7 4 2 4 10 10 12 8 9 6 7 8 8 10 12 13 13 12 13 16 17 23 23 22 21 19 18 18
12 20 8 10 12 14 13 14 11 15 14 5 5 7 5 7 8 6 4 4 7 8 10 14 16 14 11 11 11 13 15 16 15 16 17 19 14 11 14 19 21 21 20
19 20 19 13 14 13 11 11 12 6 10 11 8 5 6 11 10 8 6 7 7 7 6 7 8 11 11 12 14 17 17 18 20 21 20 19 18 10 17 20 21 19 18
10 15 15 14 15 12 13 10 6 7 6 8 11 11 8 6 4 3 1 1 5 5 6 8 10 14 16 17 14 10 11 16 19 18 19 22 21 13 10 9 8 13 17
7 8 11 12 14 16 17 13 12 11 9 10 11 11 10 8 4 2 1 1 4 4 4 3 6 8 12 13 13 13 15 18 16 17 18 17 14 14 17 20 22 21 19
31 28 8 13 8 6 14 18 19 17 17 16 15 12 12 8 4 3 2 2 7 8 6 5 3 2 5 6 8 10 13 13 13 13 13 14 16 15 15 19 19 18 19
23 23 26 20 24 21 20 17 17 14 8 13 15 14 11 10 7 6 4 3 6 7 3 4 6 4 4 4 3 4 5 6 8 8 10 11 13 15 18 19 20 21 22
12 9 10 19 25 21 22 23 23 17 15 6 12 13 14 8 5 5 2 5 10 16 16 9 6 6 4 2 2 4 2 4 5 6 8 8 8 8 12 14 13 14 16
9 9 10 7 6 8 5 8 9 6 16 4 9 10 8 13 21 23 22 15 13 15 14 18 20 20 18 15 9 7 13 13 12 8 8 10 10 11 10 12 15 16 17
6 8 12 14 15 15 17 20 19 22 5 17 18 11 12 20 18 18 17 16 18 19 18 18 15 16 16 15 13 12 12 11 12 14 13 12 12 11 12 14 19 19 19
10 5 6 4 7 7 4 9 19 17 22 18 18 18 16 21 18 17 15 14 14 16 15 16 14 14 14 15 13 14 13 13 13 15 16 15 13 15 14 13 14 15 15
10 9 9 8 12 13 18 20 22 25 22 18 17 18 19 19 16 16 12 14 15 15 14 13 14 13 14 15 14 12 15 15 14 14 10 14 14 14 13 13 13 14 14
9 8 7 8 11 11 16 17 19 18 20 17 15 15 14 15 14 13 13 16 13 12 12 10 9 11 12 9 11 13 14 14 14 14 14 10 13 13 13 12 14 14 14
9 9 8 9 11 12 14 15 14 16 16 14 12 14 14 12 15 13 11 10 8 7 8 10 10 10 6 10 11 13 13 13 12 12 14 12 13 14 14 12 16 16 17

GFSGL_925_spd_075.txt.gz
Wind_Speed
26 25 23 20 19 17 17 14 12 12 11 12 11 8 10 7 7 6 5 4 9 8 9 8 8 7 9 11 12 12 13 19 8 5 15 14 12 15 10 7 9 9 11
27 26 25 21 20 20 18 16 13 11 10 10 10 10 9 8 7 6 4 2 8 7 8 5 5 4 6 6 8 11 15 19 14 13 15 17 16 14 11 12 9 9 10
26 25 26 22 23 22 20 17 15 14 10 12 9 10 7 7 6 9 6 5 3 2 5 2 5 5 3 5 7 8 11 18 20 16 12 17 18 16 15 12 14 9 8
27 26 25 24 25 23 22 20 18 15 13 14 14 10 9 7 8 7 8 6 6 5 5 2 4 3 3 3 5 3 9 13 13 18 16 17 20 19 17 16 18 13 9
32 30 29 27 26 23 23 20 20 16 16 15 13 12 10 10 9 8 9 6 7 5 3 4 4 3 5 4 1 5 14 15 14 16 14 11 15 18 18 19 18 15 10
33 32 29 30 28 26 25 22 21 17 17 16 15 13 13 10 8 7 12 10 7 3 5 9 6 1 2 2 3 8 11 14 13 12 11 13 16 18 25 24 21 14 6
28 26 24 32 33 31 27 23 22 20 18 16 14 13 13 13 10 10 12 10 8 7 7 6 6 7 5 5 5 5 6 7 5 12 16 18 20 25 24 20 23 18 12
27 29 31 34 35 32 30 28 24 22 22 19 17 16 15 14 8 9 11 10 10 10 10 9 8 7 5 7 9 9 6 5 7 6 7 8 14 17 26 27 24 21 15
32 33 33 39 36 35 34 29 26 23 20 18 16 15 14 13 11 12 13 10 11 11 10 7 9 10 8 7 6 11 9 7 6 6 8 8 7 8 14 22 18 17 10
32 37 39 38 36 42 39 31 25 24 23 19 16 13 11 11 10 10 13 13 14 11 10 9 7 3 6 4 7 11 11 10 11 11 10 9 11 10 12 17 21 19 13
18 13 9 25 35 52 19 18 24 26 24 20 17 15 14 13 12 11 12 16 16 13 13 10 8 6 6 6 4 6 7 5 12 10 7 10 10 15 18 17 20 22 19
10 10 13 5 8 14 7 36 26 27 21 21 21 17 15 16 11 9 12 17 16 13 11 10 5 8 7 7 7 8 7 5 6 13 12 13 12 15 20 23 23 25 24
5 10 11 11 12 13 29 43 32 25 28 27 21 21 21 19 13 9 15 17 15 13 10 8 8 9 9 7 5 6 7 10 10 11 12 11 20 20 20 19 20 22 25
6 8 11 11 13 12 27 37 29 24 22 19 22 19 20 23 19 14 13 16 15 12 11 9 9 9 9 9 9 9 10 11 12 12 13 12 12 12 19 25 24 22 23
4 7 3 3 14 17 18 18 22 19 17 19 23 21 19 21 21 15 13 14 13 11 9 7 7 9 8 7 8 8 10 11 15 15 15 16 14 11 6 10 11 17 17
4 13 6 9 9 12 15 11 10 12 14 17 13 16 17 18 16 14 13 12 10 10 9 7 6 8 6 6 6 7 6 3 11 13 10 10 12 13 10 8 5 4 6
17 14 10 6 11 8 12 15 14 12 11 16 15 12 9 17 15 12 10 9 9 8 7 7 7 5 3 1 3 3 3 3 2 3 5 9 11 12 13 13 13 14 20
24 25 25 26 22 22 18 8 10 13 12 14 14 14 16 16 13 10 8 5 5 9 11 11 8 6 4 3 5 6 6 5 5 4 4 4 4 5 6 8 8 8 12
15 17 16 23 21 22 32 25 19 6 14 15 14 12 12 10 9 7 5 4 4 9 13 15 13 11 9 7 5 5 5 6 7 6 6 6 6 6 7 8 9 10 10
15 13 9 13 13 17 21 14 17 21 20 8 10 6 5 6 7 7 9 12 16 20 22 20 16 13 11 9 8 8 6 5 5 6 6 6 6 4 7 9 7 9 10
8 4 7 9 9 12 9 10 11 9 6 8 15 12 7 4 16 17 20 20 24 27 27 26 24 23 21 23 20 16 14 13 12 11 10 10 9 9 8 10 11 13 13
13 10 13 11 6 8 6 2 3 9 7 9 20 20 18 18 23 25 25 25 26 25 23 25 23 20 16 15 14 15 15 15 15 13 13 12 10 14 13 12 11 11 12
11 13 15 12 8 1 3 3 8 20 22 23 22 21 21 22 24 22 21 19 21 22 21 21 24 24 21 19 18 16 15 14 13 10 10 11 8 11 10 11 10 13 13
10 9 9 8 16 20 23 23 23 22 22 24 26 25 25 24 22 22 22 20 21 23 23 23 21 19 15 14 14 15 14 13 12 11 10 8 9 10 10 10 11 11 11
11 11 12 14 19 19 22 22 20 23 24 26 23 23 22 22 21 20 16 18 18 17 16 15 13 13 13 14 14 13 13 12 12 11 11 11 8 9 11 13 11 12 15
11 8 13 17 19 18 20 22 21 20 22 22 21 21 19 19 18 16 14 14 14 14 15 15 11 10 9 10 11 12 13 12 11 10 10 11 11 16 14 14 12 12 14

GFSGL_925_spd_078.txt.gz
Wind_Speed
31 28 26 24 21 19 17 15 12 13 13 14 14 15 16 14 13 12 11 10 13 13 12 13 11 9 10 9 9 9 12 19 7 5 16 17 15 15 12 11 11 10 10
29 28 25 23 20 21 19 18 15 16 14 13 13 11 13 14 12 12 11 9 10 11 11 11 11 8 8 7 8 10 11 17 11 12 15 18 16 19 14 12 13 10 10
25 26 26 26 24 23 21 18 18 16 14 13 14 12 12 12 11 11 11 9 7 9 10 13 10 6 7 7 7 7 8 14 23 17 13 20 20 19 16 13 10 10 10
28 28 28 29 27 26 23 21 20 17 15 14 12 11 10 9 9 10 12 11 8 8 6 8 7 6 7 6 5 5 6 14 16 20 15 18 21 20 20 19 15 13 11
31 30 29 30 29 28 24 24 23 22 18 17 17 13 11 10 12 10 11 12 8 8 7 9 7 7 7 6 6 8 12 16 16 15 12 10 15 18 18 17 19 16 12
32 33 30 29 28 28 25 28 26 24 20 21 20 18 16 13 11 11 12 13 11 10 10 10 9 6 3 3 5 7 8 18 19 14 11 13 15 16 20 21 19 12 5
29 30 33 34 34 32 29 28 27 29 23 21 19 19 16 14 12 10 10 11 9 10 10 14 12 8 5 6 7 9 9 8 4 11 18 19 20 25 25 21 22 20 10
31 27 30 29 22 14 3 22 24 30 27 24 24 21 18 17 15 12 12 12 11 8 8 12 12 10 7 6 9 9 8 8 9 8 9 10 15 20 27 29 26 20 13
18 26 26 7 14 15 33 30 31 40 24 27 26 23 21 19 17 14 12 12 12 11 6 12 12 12 11 9 10 12 10 8 9 9 6 5 7 11 18 23 20 19 9
10 15 18 19 20 10 20 44 40 43 42 34 27 25 23 20 19 15 12 12 15 13 11 10 9 11 12 12 11 12 11 10 11 9 8 7 6 7 11 18 21 17 11
7 4 14 21 21 24 32 35 40 33 30 32 33 28 24 20 17 15 12 15 18 16 13 12 12 10 10 8 10 12 12 10 11 9 8 9 8 11 12 14 17 19 18
4 5 8 13 18 23 32 48 41 29 30 27 32 29 23 18 15 14 14 16 18 17 15 13 10 11 10 10 7 7 7 7 10 12 10 8 9 11 14 17 18 17 18
4 5 5 9 18 24 30 27 28 16 15 19 24 21 24 21 17 12 13 15 17 16 12 10 7 9 12 10 7 6 8 10 8 9 13 10 11 12 15 16 19 20 20
7 7 8 6 10 14 15 17 14 16 23 15 18 21 22 23 22 18 18 20 17 16 11 9 8 8 10 10 8 7 8 10 10 10 10 9 6 5 8 13 18 20 21
9 5 5 4 2 2 5 14 12 20 20 26 29 26 23 16 29 25 22 22 21 17 14 11 12 14 14 11 9 8 8 9 11 12 11 10 10 7 4 4 10 15 15
6 7 8 7 5 5 5 7 16 20 22 24 23 24 24 23 21 21 16 12 14 16 14 14 11 10 9 10 7 7 5 4 8 9 9 7 5 5 5 5 5 5 8
15 9 5 0 2 0 7 11 11 6 7 13 16 17 22 18 21 18 16 17 15 16 11 10 9 8 8 6 4 2 2 3 1 1 1 1 2 1 2 3 5 6 8
13 14 14 10 9 10 8 10 10 8 7 17 17 18 20 21 20 17 17 16 15 12 11 12 10 9 7 7 6 5 5 4 4 4 3 3 4 4 4 4 5 4 4
16 12 8 13 15 15 15 18 24 19 14 17 20 17 17 15 15 14 11 9 12 16 15 11 11 10 9 7 8 8 9 11 10 9 8 8 7 7 6 4 3 3 2
10 11 9 7 6 15 15 17 20 20 18 20 14 13 12 9 7 9 9 9 13 17 17 16 13 13 11 10 10 9 10 9 7 6 4 3 3 3 4 5 4 4 6
11 8 4 1 2 6 6 16 18 18 20 18 14 10 5 5 8 14 16 18 22 22 21 20 17 14 12 14 12 12 15 13 10 9 8 8 8 7 6 5 6 6 6
10 10 6 12 11 7 3 8 10 16 18 18 20 18 13 19 17 20 23 25 25 24 23 22 20 17 15 13 12 12 12 11 11 11 10 9 10 10 10 11 13 13 11
9 9 10 6 4 3 1 6 7 9 15 22 26 23 21 26 26 26 26 24 23 23 19 19 21 21 17 15 14 13 12 11 10 7 6 6 5 3 4 5 6 5 7
10 9 8 9 11 17 23 21 21 22 21 23 22 22 24 23 25 25 25 23 22 21 20 20 19 17 16 15 14 12 10 8 6 5 4 2 2 4 6 7 7 8 8
11 9 12 15 18 20 23 24 23 23 23 25 24 24 26 27 25 23 23 23 22 22 19 17 15 14 12 11 10 8 6 4 3 3 3 3 3 5 4 6 9 9 10
11 14 15 17 18 17 20 22 22 22 24 21 22 22 22 22 22 24 23 19 20 19 18 16 14 11 9 7 6 5 4 4 4 4 3 3 3 6 8 9 9 9 11

GFSGL_925_spd_081.txt.gz
Wind_Speed
27 26 23 23 20 18 17 15 15 15 13 12 12 12 11 11 10 12 12 13 15 15 14 14 13 11 13 14 15 18 20 20 7 8 16 14 17 15 12 11 9 8 8
24 25 24 22 20 20 18 18 17 16 17 17 17 15 14 15 12 11 10 10 10 12 14 13 15 12 12 12 11 14 15 22 16 8 16 16 15 18 13 12 10 8 7
23 22 25 24 22 21 21 21 19 16 15 14 15 16 13 14 13 11 11 13 11 12 13 12 12 10 11 12 11 11 11 12 19 13 7 18 16 20 16 11 10 9 8
28 26 28 26 26 24 21 21 19 21 21 20 17 16 14 13 13 12 14 13 12 10 8 8 9 10 11 10 9 10 11 10 15 16 15 16 18 20 19 16 12 11 10
30 29 30 28 27 23 21 20 18 18 17 15 14 15 16 15 15 14 13 12 12 10 10 10 10 8 7 9 11 10 8 10 13 13 9 6 12 17 17 17 15 13 11
28 31 27 28 26 23 4 13 8 12 17 17 16 17 17 17 17 17 14 13 13 12 10 9 9 8 6 7 7 9 8 13 14 12 11 11 13 15 19 21 16 9 5
32 28 25 22 12 17 21 21 21 22 18 19 20 21 22 24 21 18 16 14 15 14 11 11 11 9 7 5 5 7 8 9 7 13 18 19 20 26 23 23 23 19 9
34 25 15 16 21 25 24 21 21 22 21 28 21 29 31 26 24 20 16 15 14 13 11 12 12 11 8 6 6 7 9 9 8 7 9 10 16 20 27 26 25 21 13
10 21 18 22 27 29 28 26 29 35 39 38 32 31 32 34 27 24 19 17 16 14 10 11 14 12 9 8 6 7 6 7 6 6 4 3 3 7 15 18 15 14 6
9 9 17 26 32 35 30 29 33 35 32 30 43 37 34 34 29 27 21 17 16 15 13 10 12 11 9 10 9 9 8 5 6 6 6 5 4 6 8 14 18 14 6
13 12 10 21 33 34 32 33 27 23 25 28 24 31 30 33 33 28 24 19 19 17 16 14 13 12 9 8 8 7 9 6 8 6 4 4 4 6 8 11 16 18 15
11 10 13 18 20 19 28 29 26 19 22 25 24 19 19 30 32 27 24 19 19 20 19 17 15 12 11 9 7 6 6 6 5 9 7 6 6 6 7 11 13 15 17
16 12 13 15 17 18 18 17 14 16 12 15 18 18 19 30 29 22 20 17 17 18 16 14 12 12 12 10 9 7 8 8 6 7 9 9 8 8 8 10 12 15 17
18 18 14 12 11 14 12 15 14 19 14 13 12 15 14 20 24 22 21 17 17 17 15 13 9 8 13 11 9 7 6 7 7 8 9 9 9 8 7 8 11 12 16
19 17 16 13 11 12 9 8 9 11 11 20 20 10 9 13 22 25 21 19 21 20 16 13 11 10 10 8 7 7 8 8 9 9 9 8 8 8 8 7 7 8 13
17 19 19 15 14 11 8 0 7 10 11 12 14 18 18 24 21 22 16 16 18 18 15 13 11 11 10 9 7 6 5 6 8 9 7 6 5 5 5 5 5 5 6
14 17 18 15 12 9 12 8 7 4 10 20 23 28 23 20 12 19 19 17 17 18 14 12 12 11 9 8 7 6 6 4 4 3 5 4 3 3 3 2 3 4 4
16 15 13 18 16 12 11 9 9 10 8 9 9 16 16 16 19 24 21 20 20 17 13 13 10 8 8 9 10 10 9 7 6 6 5 6 6 6 7 6 4 3 3
15 18 15 14 15 15 7 5 8 15 18 15 20 24 22 24 23 20 17 18 18 14 13 13 12 12 12 11 9 7 6 7 7 9 9 10 9 9 8 5 4 4 3
14 15 13 12 10 12 10 7 11 14 15 19 21 18 18 18 17 16 10 11 13 16 14 16 15 14 13 13 13 13 12 9 8 7 5 4 4 4 4 3 2 2 4
16 16 14 11 9 8 5 5 8 12 15 17 18 15 12 16 15 16 12 11 17 19 19 17 16 14 14 13 13 12 11 10 9 8 8 8 7 8 8 9 10 10 9
14 12 13 12 9 9 3 3 8 11 12 15 17 15 15 16 16 16 17 18 18 21 20 21 20 15 14 13 12 12 11 11 10 10 10 11 9 10 9 8 7 6 6
10 9 8 8 7 6 10 10 5 5 11 15 17 13 13 17 18 21 23 24 23 23 22 21 20 18 15 14 13 10 10 10 8 7 7 6 6 5 4 3 1 1 1
10 6 3 3 3 6 7 8 8 12 13 18 19 17 18 19 23 25 23 24 23 21 20 21 20 19 17 14 11 9 8 7 5 3 2 3 3 2 1 1 2 4 5
9 4 5 8 10 13 16 16 15 16 19 20 20 21 22 25 24 24 23 22 22 23 21 18 17 17 14 11 8 6 4 3 2 1 1 1 1 1 0 1 3 4 5
11 7 8 11 13 12 14 17 15 17 19 21 22 23 22 23 21 22 24 24 22 19 18 16 14 12 10 7 6 5 5 4 4 4 4 3 2 3 3 4 5 6 8

GFSGL_925_spd_084.txt.gz
Wind_Speed
25 27 26 27 24 21 17 15 13 10 9 8 8 9 10 10 9 10 11 12 13 13 13 13 12 9 8 9 12 15 19 16 7 3 7 11 11 13 12 10 8 7 7
26 25 27 28 25 23 19 15 11 10 10 10 10 10 10 12 12 13 13 13 14 14 14 14 15 13 12 10 9 13 14 11 11 10 14 15 15 18 16 13 11 8 7
22 22 25 28 24 22 17 15 13 11 11 10 12 13 14 15 16 17 15 14 13 12 13 14 14 11 10 9 8 8 9 16 22 17 13 17 18 18 15 11 10 9 8
20 22 25 29 24 21 18 16 15 12 12 13 13 14 15 15 16 17 17 17 17 15 11 11 12 14 13 9 9 7 6 6 12 15 15 13 16 18 21 17 11 9 9
8 9 19 26 25 22 18 17 19 19 18 18 19 19 19 21 20 19 18 16 16 15 13 12 11 11 12 9 9 9 7 6 8 11 8 6 11 11 15 16 15 12 10
13 15 18 26 23 24 23 24 27 29 31 26 28 29 27 25 24 22 21 19 16 17 16 13 12 13 12 10 8 7 8 11 10 11 11 9 12 14 18 19 16 9 4
7 11 13 30 29 28 27 30 32 31 25 27 31 31 26 27 24 22 22 21 17 17 17 15 14 13 12 11 7 6 8 7 4 6 9 11 11 17 21 20 18 12 7
17 19 15 49 37 31 32 36 35 33 25 31 31 28 28 27 26 24 23 22 19 16 16 16 16 16 13 11 7 9 8 8 5 4 4 5 9 11 20 23 21 17 10
6 18 22 31 36 35 39 38 35 36 32 34 34 28 29 25 29 26 23 24 19 18 16 16 16 16 13 11 9 10 10 7 6 5 2 1 2 5 13 16 15 15 5
11 9 14 22 30 33 34 35 32 29 28 30 30 28 24 29 24 28 27 28 23 20 18 16 15 16 14 13 12 10 10 8 8 9 6 5 4 7 9 13 15 16 7
15 15 14 10 14 18 13 19 20 19 17 22 25 31 29 30 25 27 27 31 27 23 21 18 17 17 15 14 12 8 8 9 10 8 7 6 5 7 9 12 13 15 16
12 12 14 9 6 8 11 16 19 21 26 26 24 26 28 25 23 29 30 34 29 25 23 21 18 18 15 13 11 8 8 7 10 10 9 6 5 5 6 7 9 11 13
18 14 12 12 9 7 8 10 12 17 21 19 16 17 23 24 28 28 33 36 27 21 20 21 20 18 16 13 11 10 11 9 7 7 7 6 6 5 5 7 8 10 12
17 17 17 16 13 11 9 11 12 12 16 15 12 16 15 17 22 29 29 28 22 19 19 19 18 17 16 14 13 12 11 10 8 6 6 6 6 6 5 6 6 7 9
26 24 24 22 18 16 13 12 15 14 16 15 15 17 8 12 21 27 31 27 24 24 23 21 19 19 19 16 13 11 8 7 7 7 7 6 6 6 6 6 5 4 6
14 19 20 18 18 15 16 16 15 15 15 16 14 9 17 12 12 18 24 20 21 25 25 19 15 16 17 15 11 9 9 7 6 5 5 5 4 4 4 3 2 1 0
18 15 16 15 16 15 15 13 13 15 12 9 10 13 15 13 16 13 24 21 24 25 13 13 13 14 13 13 11 10 9 7 7 7 6 4 3 2 3 3 4 3 3
20 18 16 17 16 17 15 13 8 6 6 9 11 4 17 13 16 18 27 27 26 20 16 15 14 14 13 13 12 13 14 13 13 13 12 11 10 10 9 8 9 8 8
19 20 22 17 17 18 12 5 4 5 6 7 10 6 11 18 20 24 29 27 22 16 13 13 13 15 16 17 15 13 13 13 13 16 15 15 13 11 9 7 7 8 8
19 17 18 17 13 14 13 5 6 9 10 14 14 10 19 25 17 20 14 19 22 18 17 17 17 18 18 16 17 18 19 16 14 12 11 10 10 8 7 5 5 5 6
17 20 17 16 13 9 10 2 8 9 7 10 16 15 14 18 17 12 13 11 21 23 23 22 19 19 20 20 16 14 13 13 13 12 11 10 9 10 9 7 8 9 8
15 14 15 13 12 6 6 2 6 7 10 11 11 13 13 15 16 14 16 18 21 24 23 24 22 19 17 17 16 15 14 14 13 13 14 14 14 13 11 10 8 6 6
14 14 13 11 9 7 5 7 2 11 12 14 15 14 16 18 18 18 18 19 20 22 23 23 21 21 18 16 14 13 14 13 12 11 10 10 10 8 6 5 4 2 1
15 11 12 10 10 9 6 3 2 10 15 14 13 12 14 17 22 24 25 26 25 24 23 22 21 21 19 17 15 13 12 10 9 8 8 8 7 6 6 5 4 2 2
15 12 11 10 10 11 10 10 11 15 17 17 17 16 18 20 22 23 24 24 25 26 25 23 22 20 17 15 12 10 8 6 5 5 5 6 6 5 5 4 3 3 2
11 11 10 8 8 9 10 11 12 14 16 15 15 19 23 22 23 23 25 26 25 25 23 20 18 15 13 10 9 8 8 7 7 7 7 7 7 6 5 4 3 2 2

GFSGL_925_spd_087.txt.gz
Wind_Speed
25 23 20 18 19 16 16 17 16 14 15 16 15 15 15 14 13 12 12 10 11 12 12 13 14 13 11 11 12 13 12 12 8 8 10 8 9 12 12 10 9 7 7
22 22 21 19 20 18 18 17 17 18 18 17 14 15 15 14 14 14 13 12 13 13 12 13 14 12 13 12 12 12 13 13 14 11 11 10 12 14 16 14 12 9 8
22 17 19 19 19 18 18 18 18 18 18 18 18 19 18 17 16 16 14 12 11 11 10 11 13 13 14 12 11 8 10 12 14 10 8 9 13 13 15 14 13 12 10
24 16 15 15 17 17 16 17 20 22 23 22 22 22 20 18 16 14 13 13 12 11 10 10 11 12 14 12 9 8 8 8 10 11 10 9 10 13 20 19 14 14 13
18 17 16 16 11 13 15 17 18 19 20 20 21 19 16 15 15 15 15 13 12 11 10 10 10 11 13 10 8 9 8 8 8 9 7 8 8 10 17 20 17 15 11
9 14 17 24 21 12 2 7 20 21 21 21 22 20 18 18 19 20 16 14 14 12 12 11 10 12 13 13 12 11 11 10 11 9 9 9 11 12 17 22 15 9 4
5 14 13 18 18 14 7 15 23 31 25 26 25 22 22 21 22 21 21 16 16 14 13 12 11 10 13 10 11 10 11 11 9 7 8 8 9 12 16 20 19 13 8
8 12 13 11 16 7 6 24 40 34 34 30 26 23 22 23 24 23 23 20 18 16 15 15 14 13 13 12 9 8 9 9 9 6 5 5 7 11 15 21 24 18 10
7 2 4 5 11 12 22 30 39 30 29 24 18 16 18 19 22 25 25 19 19 18 16 15 15 14 13 15 10 9 9 8 9 7 6 5 5 9 13 17 18 17 4
6 2 1 3 4 18 30 33 29 26 24 16 16 14 14 16 18 21 26 22 21 20 17 15 18 15 14 16 13 11 11 11 10 9 8 6 5 7 10 11 14 15 8
7 7 7 6 4 5 17 21 22 23 22 19 17 18 18 19 18 21 27 23 23 20 18 18 15 18 17 17 14 12 10 10 10 10 8 6 6 8 9 12 11 10 10
7 6 7 8 5 2 6 12 16 21 22 21 22 23 22 24 24 27 28 35 27 25 23 19 15 18 19 17 14 10 9 10 9 9 8 6 6 6 6 7 9 11 11
11 10 9 8 6 5 6 7 9 12 13 13 15 18 21 20 20 23 26 30 34 30 25 23 20 20 19 17 16 12 12 10 10 9 9 8 6 5 5 5 6 7 6
9 10 11 11 12 7 7 7 9 9 8 9 12 14 17 18 17 18 21 28 33 29 22 20 20 22 21 17 16 14 12 11 11 10 8 7 7 7 7 6 5 5 5
13 13 10 8 9 10 9 9 13 11 10 10 11 12 14 14 15 19 24 25 31 28 25 20 20 19 17 16 14 13 12 11 10 8 8 8 8 7 6 5 5 5 5
14 14 15 12 12 12 11 10 12 13 12 9 14 19 16 16 17 16 22 29 33 30 26 22 18 19 19 17 16 14 12 12 10 9 8 7 8 8 8 6 5 5 6
11 9 9 10 10 12 13 13 11 7 8 10 11 13 20 18 13 11 22 28 28 28 21 21 17 18 17 17 18 15 14 12 11 10 10 10 10 9 8 8 8 9 9
15 13 11 12 10 12 13 12 10 8 8 9 12 13 13 15 15 22 26 28 31 28 24 22 19 18 18 20 18 18 16 15 12 11 11 12 11 11 10 10 11 10 11
14 12 13 13 12 11 11 9 10 7 5 5 7 9 7 15 24 21 27 23 23 21 24 23 21 19 20 20 19 16 15 17 14 11 10 10 10 9 8 8 9 9 10
15 15 13 11 12 9 9 6 5 4 6 9 12 12 14 13 15 13 9 8 7 20 22 22 23 22 24 22 18 15 14 14 14 13 12 11 10 8 9 9 8 8 8
13 11 11 9 9 8 5 3 0 2 4 7 8 14 17 21 16 19 19 21 20 21 21 22 21 18 16 16 17 16 15 13 12 12 11 10 9 9 9 9 9 9 8
14 12 10 10 10 7 3 1 4 5 5 5 6 8 9 12 16 18 18 21 25 24 23 23 23 20 14 14 15 15 14 13 12 12 12 12 11 11 11 9 9 8 8
11 9 8 7 8 8 3 4 2 6 6 8 9 9 9 12 13 16 17 21 27 28 27 25 24 20 18 17 16 12 13 13 13 13 13 13 11 10 10 9 8 7 5
10 9 8 7 8 7 7 6 2 7 13 11 12 14 14 13 14 17 20 24 27 28 26 24 23 22 20 18 16 14 14 13 12 11 11 11 10 10 9 8 7 6 5
7 7 8 8 8 8 8 7 6 7 8 11 12 14 15 13 15 15 25 28 23 21 22 22 20 20 18 17 16 15 14 14 12 12 10 10 9 9 7 7 6 5 4
7 7 7 6 6 7 6 6 6 6 8 8 9 10 14 18 21 21 19 19 19 19 19 17 18 17 15 14 13 13 12 12 12 12 10 10 10 8 7 6 5 4 3

GFSGL_925_spd_090.txt.gz
Wind_Speed
33 32 29 27 26 25 22 21 19 16 14 13 13 14 12 12 13 14 13 11 12 11 11 11 13 14 14 14 15 15 15 14 12 8 10 11 9 10 10 10 9 8 6
31 31 28 25 24 24 23 21 19 17 15 13 15 14 13 13 13 14 13 13 13 13 12 13 14 14 14 14 12 13 13 12 12 10 9 9 10 10 14 13 12 12 10
23 29 27 24 24 24 22 19 18 16 15 14 15 15 13 13 14 15 14 14 14 14 13 14 14 13 15 16 15 12 12 14 14 14 10 10 9 12 14 13 14 13 10
30 1 19 21 24 23 21 19 18 16 16 14 14 16 15 14 15 16 15 15 14 14 14 13 12 12 13 13 14 12 11 12 11 12 12 10 10 9 14 16 14 13 12
32 52 14 16 18 19 20 19 17 15 15 14 14 14 16 14 16 17 16 16 16 16 15 16 15 12 12 12 12 11 9 10 8 8 7 5 7 8 16 17 16 17 13
17 3 8 9 12 15 15 16 15 13 13 12 13 14 17 16 14 16 17 16 17 16 16 15 15 14 14 12 14 12 9 10 11 11 9 11 12 11 17 19 17 10 4
14 19 26 23 19 19 18 18 15 13 14 16 14 15 18 18 18 18 20 21 17 17 16 15 14 15 12 11 13 12 11 13 11 8 9 11 9 11 12 19 19 17 10
8 9 13 10 13 16 18 18 16 13 12 17 11 14 18 20 21 21 22 22 23 20 19 17 16 14 12 13 12 11 10 10 12 11 8 6 6 8 12 15 19 15 9
3 2 4 4 7 15 14 16 10 8 7 0 5 12 17 21 19 21 24 22 26 25 22 20 19 16 15 17 14 12 11 11 12 13 9 7 6 8 10 12 18 17 4
6 6 4 6 9 12 16 18 16 8 13 8 10 10 12 16 16 19 20 22 24 24 22 22 24 21 19 20 18 14 12 13 13 11 9 7 5 7 11 11 14 16 9
4 5 5 8 9 9 8 11 15 15 13 11 10 12 16 19 19 22 22 22 24 23 23 22 23 24 22 22 22 17 15 12 14 13 12 12 11 11 11 12 13 14 14
8 8 7 8 9 8 5 7 7 8 12 14 15 18 21 25 27 27 27 31 26 25 26 27 25 26 27 25 24 17 18 17 14 13 15 14 14 13 13 13 12 11 7
12 10 8 9 9 10 8 8 9 10 11 12 14 18 19 20 23 26 28 30 34 33 29 25 24 25 26 26 25 20 17 17 15 14 14 16 13 13 14 13 12 11 9
8 9 9 9 11 11 10 10 11 10 11 10 12 15 17 18 19 19 18 18 23 24 29 23 25 25 27 25 24 21 18 18 16 16 17 14 11 12 13 14 13 12 11
10 8 6 6 7 8 8 10 11 13 12 12 14 15 13 14 14 13 13 14 16 19 21 20 25 25 24 22 22 20 19 16 14 13 10 11 13 14 15 13 13 12 11
11 10 11 12 10 8 10 10 11 13 15 17 21 21 20 21 23 22 22 21 19 23 26 22 23 25 25 23 21 20 19 17 17 14 11 10 10 11 10 6 6 7 6
11 10 12 11 10 11 13 12 11 12 13 12 14 18 23 27 25 23 20 18 19 32 23 22 23 24 23 23 22 18 16 14 11 10 9 8 7 9 10 10 8 8 7
14 11 10 11 11 11 11 13 12 12 12 12 12 17 21 23 23 18 13 13 24 27 21 23 20 19 19 19 17 17 16 15 11 10 9 10 10 10 8 9 10 9 10
13 12 10 11 11 12 9 8 9 8 7 9 12 11 15 10 10 14 18 14 20 18 21 21 21 21 21 18 19 19 19 16 14 10 10 11 10 10 11 12 11 12 13
11 8 10 11 11 10 7 5 2 1 3 7 9 13 13 6 2 8 14 6 8 9 18 21 21 21 23 22 22 23 23 20 16 12 10 11 12 12 12 11 11 13 10
12 11 9 11 10 8 9 5 2 3 6 6 5 10 13 14 11 12 15 17 20 26 25 28 29 28 29 26 20 17 16 16 14 13 11 7 6 10 10 11 11 11 10
12 10 8 9 9 10 9 6 3 2 5 4 3 4 5 10 15 13 19 18 22 24 26 29 29 28 24 22 21 19 18 18 15 14 12 12 11 12 12 12 12 10 10
15 12 12 9 9 7 6 5 2 1 1 1 0 1 4 5 8 11 18 22 25 28 26 25 24 24 23 22 21 18 15 15 14 13 13 13 12 12 10 10 10 10 10
14 14 12 10 8 7 7 6 6 4 5 5 4 6 5 5 7 11 17 19 22 24 26 25 20 18 19 15 14 12 13 14 13 14 13 12 11 11 11 10 9 9 10
10 11 13 12 11 8 6 5 5 6 6 6 6 5 6 8 8 10 16 22 18 13 13 14 16 16 15 15 13 14 17 19 15 14 12 12 12 11 10 10 10 9 8
4 7 7 7 8 9 7 2 4 3 4 4 3 4 8 11 13 14 15 16 15 14 13 12 13 14 14 13 14 16 16 16 17 15 11 11 12 11 10 9 9 7 6

GFSGL_925_spd_093.txt.gz
Wind_Speed
31 32 30 27 26 23 22 21 20 17 16 12 14 15 14 14 14 13 12 9 10 9 10 11 11 11 14 15 15 16 14 14 10 14 8 9 9 9 9 9 7 6 4
24 29 29 28 26 24 23 20 20 18 16 16 16 16 15 15 15 14 13 12 13 11 11 11 11 12 13 13 14 16 15 13 15 14 9 10 10 9 10 9 9 6 7
8 2 9 25 9 18 20 19 21 19 18 18 18 17 16 14 16 16 14 14 13 14 15 15 14 15 13 14 15 10 12 13 14 14 10 10 8 7 10 10 10 11 10
13 9 9 3 29 29 13 16 18 19 19 18 18 17 16 14 16 15 16 16 15 15 15 13 12 13 13 14 14 14 12 11 11 12 11 9 11 8 8 12 9 10 10
19 14 12 21 14 21 14 21 20 20 18 19 18 20 18 15 17 19 19 18 16 15 15 14 14 13 13 11 10 13 13 12 12 11 11 10 10 8 13 10 12 15 13
14 18 24 26 22 25 33 28 22 19 18 18 16 18 17 17 18 19 14 16 15 17 16 15 16 10 15 17 16 15 13 12 12 13 18 12 12 13 12 15 15 10 4
6 18 17 17 35 36 31 26 24 21 18 18 17 17 18 17 15 13 15 17 19 15 18 18 17 21 22 15 16 18 19 18 16 9 12 7 7 13 14 17 20 18 12
6 7 7 9 15 17 18 18 16 16 15 14 16 17 19 19 19 19 20 16 19 21 19 20 19 18 12 15 16 16 17 17 17 16 12 11 9 10 14 14 18 19 11
6 5 2 3 1 7 8 9 6 13 14 11 14 17 20 20 22 21 20 18 20 23 23 20 19 19 20 18 16 19 17 15 11 16 14 10 8 9 13 15 20 20 5
8 4 2 1 0 7 6 8 11 16 14 13 15 16 17 19 20 20 20 19 21 23 24 23 24 25 23 22 20 21 17 17 17 12 14 13 11 12 17 15 18 19 9
7 6 3 2 1 4 7 4 8 13 16 13 16 18 17 20 19 19 21 21 22 23 25 24 25 25 31 25 27 22 20 17 17 15 13 13 13 14 15 16 17 18 20
10 9 9 8 5 6 7 8 5 7 9 11 15 17 19 18 16 20 23 27 26 24 26 25 28 27 29 31 29 25 19 20 17 20 18 16 15 15 15 16 16 18 17
10 10 9 8 8 7 8 10 12 9 9 9 11 12 12 12 16 21 26 29 31 32 30 27 23 17 27 31 31 26 21 20 21 21 17 19 18 14 11 16 15 13 12
12 10 10 8 9 9 9 8 9 10 11 12 12 13 16 14 13 15 14 21 28 28 27 28 32 24 30 30 28 29 26 24 23 22 19 20 17 15 15 15 14 13 10
11 10 7 9 4 3 5 8 11 9 9 10 15 16 16 17 11 9 13 13 9 11 12 19 14 17 19 24 25 26 25 25 23 18 18 17 16 17 16 16 14 15 13
13 12 12 12 13 3 5 9 8 7 10 13 15 19 22 22 27 28 28 24 23 19 20 19 16 19 22 23 25 25 25 26 22 23 18 17 17 16 15 15 13 12 10
12 13 14 13 12 12 9 8 11 8 7 7 11 13 16 22 25 27 29 26 26 23 22 22 20 21 23 22 25 27 28 27 21 12 12 11 13 18 17 15 11 8 7
14 15 12 13 13 13 11 11 13 12 10 8 7 12 18 18 25 25 23 19 16 17 17 18 20 22 24 25 23 21 21 19 15 13 8 7 7 8 8 8 8 9 11
14 13 13 16 15 14 12 10 10 9 8 10 11 11 17 20 19 13 9 11 10 12 16 16 21 21 21 20 21 23 22 19 15 16 14 11 9 9 10 9 9 10 9
15 10 7 12 13 13 11 7 6 7 7 10 12 12 16 15 13 10 2 4 6 10 13 14 18 22 26 25 27 26 23 23 19 16 15 15 12 11 13 14 13 12 11
14 14 10 12 14 11 14 7 4 7 7 6 8 7 13 11 12 14 8 3 3 9 14 18 23 26 28 28 29 31 26 26 21 20 15 11 11 12 13 11 11 10 10
17 17 19 17 16 14 13 13 9 7 7 5 6 6 9 11 10 10 12 14 16 16 17 22 22 23 24 27 28 31 27 26 21 21 20 15 13 12 11 11 12 12 12
9 12 14 20 12 17 18 10 8 6 4 4 4 6 5 6 7 6 10 11 13 18 20 24 25 24 22 20 19 23 24 20 20 18 17 15 15 15 13 12 12 11 12
2 8 10 11 13 11 10 9 9 5 5 4 5 6 4 3 4 5 10 12 15 19 22 22 21 21 18 14 14 14 13 15 15 14 13 13 12 14 11 11 12 10 9
7 7 9 9 10 12 9 5 3 2 2 2 2 2 4 4 3 4 7 7 12 6 8 7 12 13 13 13 13 15 16 18 16 17 15 12 12 12 12 12 10 10 9
5 7 6 7 12 7 7 7 5 2 2 1 1 2 3 4 6 4 10 9 8 7 8 10 11 11 12 12 11 15 18 20 18 16 12 13 14 12 11 11 12 12 11

GFSGL_925_spd_096.txt.gz
Wind_Speed
41 39 30 28 31 27 25 28 20 14 13 17 19 17 18 16 15 14 12 11 14 11 13 13 13 13 13 15 16 20 22 20 12 15 10 10 10 9 8 8 9 6 8
38 32 22 11 31 15 26 20 22 13 15 16 15 17 17 19 18 16 14 12 13 12 11 13 13 13 15 14 15 18 21 21 17 12 8 10 14 12 10 9 10 10 8
14 20 23 12 8 24 27 10 14 16 17 17 19 18 17 15 17 18 16 14 12 13 13 15 17 15 13 13 15 14 19 17 16 12 10 9 11 13 12 13 11 11 10
14 20 18 10 14 24 21 17 10 21 20 20 19 20 19 19 16 21 19 18 16 14 15 14 17 17 15 15 16 16 14 16 15 15 11 10 13 14 11 14 13 13 11
3 3 12 20 23 38 56 37 32 27 23 21 22 20 20 18 18 18 21 19 19 18 15 15 16 18 16 15 14 15 15 16 15 14 14 11 12 12 15 12 13 14 13
4 4 11 20 21 30 28 27 25 28 24 21 23 20 22 19 20 22 24 22 21 20 17 15 18 20 17 17 18 18 12 16 16 15 15 13 17 18 17 17 15 10 4
6 4 9 11 11 15 16 11 17 22 16 18 19 20 20 22 24 23 24 21 20 18 19 18 16 17 19 20 20 20 19 19 18 13 15 15 10 18 19 17 21 17 11
8 6 4 8 11 17 14 15 14 11 12 16 16 19 17 21 26 22 21 21 21 20 17 17 19 20 19 15 20 19 20 21 24 22 20 15 11 9 18 17 19 18 13
12 11 9 7 3 3 6 8 10 16 9 10 14 12 15 23 27 26 21 21 21 22 21 22 21 23 22 17 17 19 18 18 17 17 17 16 14 11 16 14 15 16 4
15 18 12 7 5 4 1 5 5 5 7 9 11 14 19 21 24 27 27 24 20 21 22 24 24 24 23 24 23 23 20 19 17 17 18 17 13 12 16 19 20 18 8
9 11 12 11 14 10 5 2 3 5 8 11 14 18 20 20 22 26 22 25 21 19 22 22 26 29 30 26 25 26 25 22 21 20 17 16 16 14 19 20 18 24 20
10 9 10 11 10 10 12 11 8 6 8 11 16 20 21 23 25 28 24 25 26 21 20 16 17 20 30 30 31 32 28 23 21 20 21 19 20 21 19 19 22 21 22
13 10 10 8 14 9 6 6 7 9 12 13 15 14 12 15 20 27 27 29 29 29 29 26 22 19 18 18 29 27 31 26 23 22 20 24 23 20 19 21 20 21 19
12 12 10 6 3 2 6 9 13 13 11 13 13 12 12 13 13 7 7 4 17 29 30 30 27 27 24 24 21 30 33 29 28 25 24 26 23 23 16 22 19 17 15
13 14 12 9 6 6 2 2 6 8 9 8 11 13 12 13 14 16 20 16 10 6 10 12 14 19 17 16 21 26 35 26 27 27 26 23 25 24 24 22 19 18 13
13 12 13 13 14 14 6 6 5 5 9 10 9 10 12 13 18 22 25 24 24 20 16 12 14 16 16 17 19 21 26 31 30 30 21 20 22 26 26 23 21 20 18
10 13 12 11 12 12 12 10 8 8 7 7 8 8 10 17 20 22 25 25 23 21 18 17 16 16 17 20 21 24 23 27 28 26 25 22 25 23 21 19 17 15 12
13 18 15 10 13 14 14 10 8 7 9 10 5 4 9 19 22 22 23 23 18 16 19 16 17 19 21 20 20 21 24 24 26 22 15 15 20 20 18 16 14 17 16
16 14 10 11 10 12 16 15 11 6 2 7 9 5 12 19 20 20 19 9 10 10 10 14 15 17 19 21 19 19 23 22 22 23 24 21 21 23 21 16 16 15 15
16 15 12 12 14 12 15 8 11 4 5 8 8 8 11 14 16 17 14 12 12 11 12 13 14 18 21 19 20 23 23 28 29 28 25 22 19 19 21 18 18 18 16
13 16 14 16 16 19 20 14 5 4 5 5 5 4 7 8 9 12 12 11 11 10 13 14 12 16 22 23 25 27 30 26 27 27 26 23 18 20 20 20 18 18 15
14 13 14 13 17 14 14 14 13 9 7 6 7 6 8 6 5 6 8 10 12 13 9 9 11 11 13 14 24 27 25 28 28 25 25 25 22 21 18 16 16 16 18
11 7 9 13 14 18 13 11 13 10 6 5 4 4 4 4 6 3 5 6 9 14 17 18 22 21 21 22 24 26 28 27 26 25 24 23 22 20 18 16 17 16 15
16 13 7 3 6 9 9 11 8 4 4 1 1 3 2 1 2 3 6 7 7 9 12 15 18 18 16 17 18 19 18 18 17 16 17 16 15 14 16 16 15 17 16
21 9 10 3 9 16 6 4 5 5 4 4 3 1 1 1 2 3 6 7 6 4 7 7 8 10 10 12 13 14 17 18 16 16 15 15 15 16 11 11 11 15 16
21 9 7 5 3 10 7 3 2 4 7 7 4 3 2 1 1 3 7 10 6 3 3 2 7 11 12 10 10 14 16 16 16 17 14 12 13 10 10 8 9 10 11

GFSGL_925_spd_099.txt.gz
Wind_Speed
37 37 36 33 25 13 9 17 22 22 20 27 30 25 23 23 21 23 20 15 15 17 14 14 15 11 13 13 14 14 20 18 7 9 14 15 14 12 9 11 12 11 11
29 17 12 21 23 14 16 17 17 13 23 20 24 24 24 24 22 23 21 19 17 22 16 17 17 14 14 14 14 16 18 21 19 13 12 13 11 10 8 9 11 10 8
22 24 20 8 17 5 9 29 32 11 14 19 24 27 25 26 23 23 22 19 18 21 18 16 16 15 15 16 16 18 18 19 20 18 15 10 10 11 13 12 10 11 11
25 29 30 37 34 22 16 27 16 26 35 22 26 28 27 24 24 24 25 25 21 20 21 19 17 18 17 17 18 17 16 14 16 18 17 14 12 14 16 15 12 13 13
16 16 15 17 18 22 27 36 48 52 39 32 30 27 24 24 25 23 27 28 26 24 23 22 21 20 19 19 17 16 15 16 16 17 15 10 9 11 19 15 14 14 14
11 8 9 12 15 20 17 16 20 12 17 26 27 27 23 25 25 21 27 28 28 26 24 22 21 19 19 18 19 16 16 18 19 19 17 13 18 19 21 19 16 10 5
9 5 3 7 9 9 11 14 13 14 16 21 23 24 24 25 24 22 19 29 30 28 26 25 23 22 21 21 21 20 18 18 18 19 19 17 14 16 22 20 21 17 11
18 15 4 8 8 12 12 12 11 16 17 18 19 22 20 20 21 24 26 20 33 30 27 28 25 25 21 22 19 22 23 21 21 21 20 17 13 10 15 23 24 20 18
21 19 14 11 3 7 15 12 9 13 15 12 17 16 14 15 16 18 19 19 28 27 26 25 23 26 23 22 22 20 24 21 19 19 20 20 19 16 16 21 18 18 7
15 14 13 13 10 8 9 12 10 1 5 9 11 10 10 14 17 15 19 25 24 23 27 27 26 28 27 25 25 22 24 24 20 17 19 17 14 16 18 18 22 19 11
12 11 9 7 7 7 6 4 1 5 6 9 9 10 16 21 19 17 17 18 21 25 40 32 27 28 28 28 29 29 29 25 23 22 22 21 19 18 20 21 21 21 22
11 9 11 10 8 5 3 3 2 1 3 5 6 9 12 15 19 21 21 22 23 25 27 21 12 11 25 33 32 33 30 27 24 24 25 24 23 24 24 25 23 23 21
14 14 8 4 6 4 5 6 6 8 6 9 8 10 7 8 5 9 10 14 19 23 23 23 19 20 20 19 16 24 30 30 28 26 25 27 28 25 23 24 26 24 21
17 20 18 14 2 2 4 3 6 7 8 9 8 9 10 11 9 8 9 12 11 9 16 24 25 26 27 24 20 21 20 29 32 30 32 34 32 26 28 27 27 26 23
17 16 17 17 14 10 7 7 2 1 1 1 4 6 8 10 13 19 22 20 19 18 19 14 16 19 21 22 22 21 23 28 27 31 32 32 30 28 30 28 28 25 18
12 14 15 14 15 16 15 12 9 2 4 3 4 4 4 5 10 13 17 21 20 16 17 20 21 21 21 23 23 25 27 27 28 31 31 32 30 29 29 30 27 26 22
13 17 18 18 16 13 17 12 5 2 1 2 5 6 4 8 13 15 18 20 18 20 22 19 19 21 22 24 25 22 24 28 29 28 29 30 30 30 28 25 25 21 22
18 22 22 12 8 12 13 12 10 6 3 3 2 7 3 8 14 15 16 16 11 10 16 17 17 18 20 22 23 26 25 26 28 28 27 29 29 30 25 22 24 22 21
19 22 24 23 19 18 18 19 19 13 5 3 3 8 3 9 10 10 12 12 12 13 11 13 17 20 21 22 23 23 23 22 24 25 25 27 27 26 24 26 27 27 23
19 21 22 15 15 12 22 18 12 5 0 2 1 2 4 7 7 10 12 13 13 14 16 16 17 16 17 19 20 22 21 18 24 23 24 29 32 30 28 30 29 29 25
16 18 16 15 15 15 15 15 11 7 5 3 0 2 6 6 7 9 10 13 16 15 16 15 16 15 16 18 19 22 22 22 24 26 31 27 27 29 30 30 29 26 25
14 19 11 8 9 11 10 10 14 11 8 4 1 2 6 5 7 7 8 10 12 13 13 12 11 6 4 10 15 22 23 24 24 28 28 29 29 26 27 27 25 25 23
14 19 15 9 5 5 3 4 7 7 5 2 5 7 8 6 6 4 5 6 5 9 12 14 19 21 20 17 15 14 14 18 24 26 25 28 32 29 30 27 24 24 25
17 21 21 22 10 8 8 1 1 3 4 1 1 4 5 5 4 4 2 2 4 7 9 11 14 15 16 17 19 21 20 19 19 23 24 25 24 24 26 28 26 24 23
19 21 26 13 8 9 8 9 4 3 4 4 4 6 5 7 7 6 4 0 2 2 3 4 5 7 8 9 13 10 11 11 11 11 17 17 16 19 20 22 23 18 18
22 22 23 22 13 13 12 11 10 6 6 7 6 8 10 9 9 8 7 7 4 3 1 1 2 3 3 4 3 7 10 9 9 9 12 16 17 12 15 16 19 25 23

GFSGL_925_spd_102.txt.gz
Wind_Speed
28 33 28 24 26 29 30 24 26 27 31 34 34 30 33 32 29 27 27 25 24 23 23 22 21 19 17 16 16 15 16 18 9 8 11 12 11 13 12 13 14 14 15
21 15 14 13 19 14 1 21 15 18 19 22 28 27 32 31 30 28 29 27 25 24 23 21 21 19 19 16 16 16 17 19 19 11 13 13 10 11 10 10 11 13 12
18 23 19 13 12 8 9 10 20 16 19 17 15 22 30 29 30 29 30 28 24 23 23 23 22 20 22 20 20 18 18 17 19 17 13 11 10 12 13 11 11 13 11
32 19 5 19 12 26 20 25 19 19 26 28 22 24 30 30 31 30 30 30 26 24 25 23 22 21 23 23 21 21 20 19 19 18 17 13 11 10 14 15 14 13 13
13 17 21 28 21 27 32 25 25 29 32 40 35 31 27 33 30 30 30 30 28 26 25 26 24 23 21 22 23 23 22 20 19 17 15 10 10 9 16 16 17 14 14
11 10 16 17 19 21 21 26 25 22 24 25 20 24 31 31 26 26 30 30 29 28 27 24 23 24 22 23 24 25 24 23 22 21 17 11 17 16 16 19 17 11 4
5 9 11 11 13 12 16 20 28 23 19 25 28 26 25 26 24 28 26 28 28 30 31 27 26 24 22 21 25 25 26 26 24 21 22 22 19 21 20 21 23 18 13
17 8 1 4 7 9 12 18 18 23 19 15 17 18 18 14 19 23 27 23 21 26 28 30 28 26 24 23 24 27 26 28 26 25 23 21 20 17 20 22 25 25 16
16 14 10 7 9 11 12 14 17 13 9 5 10 15 17 12 14 14 16 22 24 24 23 25 24 23 25 24 26 28 27 29 29 27 23 20 19 17 16 19 19 17 7
11 9 10 12 11 7 5 12 7 8 6 5 4 9 10 8 7 11 16 17 20 22 23 19 16 19 23 24 26 28 29 32 27 26 24 22 21 21 23 23 24 21 10
11 12 12 9 9 11 8 2 3 2 2 3 1 1 8 16 16 15 12 14 17 23 23 21 19 21 20 24 30 30 36 36 29 27 26 23 22 21 22 26 26 26 23
13 10 10 11 9 9 9 9 9 5 4 4 2 6 6 5 10 13 15 16 14 15 21 18 18 23 23 20 29 32 34 35 31 29 29 28 27 26 26 27 27 25 24
16 17 11 5 8 9 9 8 9 10 11 10 7 9 8 8 8 6 6 6 7 12 16 19 21 18 18 21 20 18 19 30 29 25 26 30 33 33 30 27 26 26 24
15 15 16 12 6 6 4 5 6 6 7 8 6 4 4 4 3 6 8 9 10 11 10 10 16 21 24 24 23 23 21 20 26 28 25 32 33 31 32 30 25 27 26
15 16 17 15 14 12 8 7 5 2 1 2 3 3 2 3 5 8 11 13 14 16 20 19 18 17 17 21 23 25 24 23 24 26 27 26 28 28 31 33 29 24 20
16 18 20 22 17 12 13 17 5 6 4 4 3 2 1 2 8 13 15 16 17 16 17 19 19 23 24 23 22 24 26 24 26 24 24 22 24 25 26 27 28 26 24
14 18 21 21 17 13 13 10 6 5 8 8 5 5 5 2 7 12 13 17 17 14 14 19 17 19 21 22 23 23 24 27 28 29 27 26 25 26 28 27 28 27 23
15 17 20 23 18 13 13 12 10 9 7 6 4 7 5 4 10 12 12 13 16 16 16 18 19 19 20 21 21 22 21 21 23 26 25 25 26 28 25 27 28 27 24
15 17 22 19 16 12 16 15 9 12 10 6 5 5 5 7 10 11 13 14 16 16 17 18 21 21 21 22 23 24 24 24 24 26 26 26 26 27 26 27 29 30 27
14 13 18 12 14 15 15 15 13 7 3 3 3 5 5 5 7 8 10 10 13 16 19 20 21 21 21 23 24 23 23 23 23 25 25 26 26 27 27 29 29 27 26
14 13 17 11 8 8 6 8 7 7 5 3 3 3 3 4 4 6 8 10 12 14 17 18 19 18 17 18 22 22 22 23 24 26 25 26 27 25 25 26 27 27 26
13 15 16 15 12 10 4 2 3 3 3 5 4 4 6 7 6 8 7 6 7 10 10 11 15 17 14 12 14 19 22 23 24 24 26 27 28 26 27 28 27 29 30
12 17 16 17 19 19 10 11 8 4 5 8 8 6 5 5 6 6 6 8 5 5 5 7 11 14 17 14 12 10 6 3 12 20 22 21 19 24 26 24 27 27 27
13 16 18 18 21 20 15 15 15 9 8 8 10 9 8 7 8 8 7 6 4 5 5 4 6 8 11 14 15 14 16 15 18 20 20 21 21 21 20 19 18 20 21
19 21 21 19 19 27 22 19 19 15 12 12 10 13 16 15 12 10 10 10 9 9 8 8 7 4 3 6 9 10 10 11 12 12 14 15 17 18 15 15 18 21 21
18 20 20 19 21 23 19 23 16 21 18 15 14 11 15 19 16 14 11 13 14 11 10 9 7 6 4 3 2 4 4 5 7 9 10 10 12 9 10 11 15 17 17

GFSGL_925_spd_105.txt.gz
Wind_Speed
26 16 11 11 14 13 18 20 29 33 34 35 33 32 32 31 30 28 29 26 25 25 25 25 24 21 19 18 18 17 18 19 9 8 11 11 12 12 12 13 13 14 13
5 10 25 19 24 15 12 2 12 23 31 32 33 33 31 31 28 28 28 26 25 25 25 23 24 21 18 17 16 19 18 16 17 9 13 15 12 12 11 10 11 11 13
12 30 20 7 7 13 16 5 6 17 23 26 29 32 28 26 26 29 27 27 25 25 25 25 25 22 20 18 17 18 19 16 16 17 13 8 10 11 11 11 10 9 10
35 38 31 25 22 17 16 18 8 25 23 18 16 15 16 19 22 24 26 26 26 26 26 25 24 24 21 21 18 19 19 18 15 15 14 16 10 10 13 13 11 13 13
31 16 20 26 29 24 19 18 18 22 23 23 23 31 19 17 16 22 24 27 27 28 26 26 26 26 23 22 20 19 19 19 16 13 11 10 12 9 14 14 16 14 14
2 4 3 9 17 14 17 18 22 26 26 26 25 22 23 21 14 22 28 28 29 28 28 28 26 26 27 25 24 20 17 19 21 19 16 14 19 16 17 21 19 12 3
10 5 5 6 5 9 16 25 27 30 26 21 21 18 17 17 20 26 27 28 27 28 28 29 29 27 26 25 24 24 22 21 22 23 22 23 23 23 20 18 19 17 15
15 13 7 1 4 9 12 15 19 22 26 25 23 26 26 30 26 26 24 22 24 27 26 24 27 30 29 25 24 23 23 24 23 24 26 25 22 18 19 22 22 21 19
14 13 10 6 4 5 7 9 11 13 16 22 21 25 28 29 23 17 15 15 19 21 20 20 23 25 26 26 25 24 23 24 22 24 26 24 22 18 17 18 17 13 8
11 10 8 11 10 7 7 11 8 12 13 19 16 19 18 16 15 14 16 17 19 18 20 18 23 25 25 22 20 22 25 26 22 22 25 26 24 23 21 22 22 17 12
10 12 15 12 11 9 8 6 6 4 2 1 2 1 5 12 13 15 13 14 17 18 27 23 20 23 22 20 20 23 28 25 22 24 26 25 25 26 27 28 28 29 24
16 14 12 14 14 14 9 7 7 6 5 4 2 4 6 7 7 14 15 18 20 17 19 18 15 17 18 18 21 20 21 24 22 23 26 27 29 29 30 29 29 29 31
19 20 17 12 14 12 12 8 10 10 10 9 10 10 9 8 8 6 7 4 3 5 10 15 18 20 18 22 22 20 19 17 18 18 22 27 32 32 33 30 29 29 29
16 16 17 14 13 12 8 7 8 7 8 8 7 6 5 4 3 4 5 5 7 10 11 14 14 14 18 24 25 26 23 20 21 21 23 25 25 26 29 32 27 30 28
14 15 16 14 10 11 10 9 2 2 3 3 3 3 3 4 5 7 11 13 14 14 16 17 19 20 22 23 23 25 25 23 25 27 23 21 23 25 28 28 27 23 23
16 17 18 16 13 11 11 12 2 3 0 3 3 2 0 1 3 9 12 13 15 15 12 14 17 15 15 17 19 24 26 25 27 28 26 24 21 22 22 23 26 27 25
11 15 18 16 12 10 8 7 6 2 5 7 7 7 5 4 4 8 11 10 11 12 11 14 15 18 18 19 18 18 21 25 28 26 27 26 23 23 24 22 25 26 26
10 14 17 15 12 13 12 7 6 7 7 7 8 10 9 8 5 8 6 5 9 11 13 14 16 18 21 21 20 20 21 20 20 23 24 24 24 24 23 24 26 26 27
10 12 13 12 10 9 9 10 7 4 9 8 6 4 7 8 5 4 5 6 8 11 13 15 17 17 18 20 23 22 22 22 22 22 22 24 25 24 25 27 27 30 31
9 10 13 10 11 13 10 9 8 7 5 3 5 5 6 6 5 6 7 8 9 10 12 14 15 15 17 19 20 21 23 23 23 23 24 25 25 26 26 25 26 26 28
10 10 12 11 12 11 12 9 8 7 9 10 8 7 7 7 7 7 10 10 9 9 10 12 12 14 17 18 18 19 19 20 21 21 21 23 23 23 24 25 25 27 26
11 12 13 13 12 14 16 12 12 10 10 10 11 9 10 11 10 9 11 12 11 11 10 11 12 12 14 14 15 16 15 16 18 22 22 23 25 26 24 26 26 24 26
8 11 14 16 17 17 19 17 15 15 14 13 13 14 13 13 12 10 11 10 12 11 10 9 10 11 11 11 12 13 18 17 14 12 16 22 23 23 24 26 25 22 25
10 13 16 20 21 21 18 22 18 18 20 18 15 16 18 16 15 13 13 13 13 12 12 11 11 11 10 10 11 11 13 15 14 12 11 10 8 5 4 11 18 24 25
14 15 18 22 22 21 22 25 20 21 21 23 22 19 18 17 19 17 15 14 16 17 16 15 14 13 13 12 12 11 11 11 12 11 10 10 12 14 13 15 19 20 17
16 16 16 17 19 20 21 23 20 20 25 24 28 25 21 18 20 19 18 16 16 18 20 16 15 13 11 10 11 11 9 9 8 9 8 7 7 10 12 19 21 20 24

GFSGL_925_spd_108.txt.gz
Wind_Speed
13 19 23 25 13 15 21 25 26 31 34 37 39 38 37 36 35 34 32 30 28 29 30 27 27 24 22 19 18 17 16 16 9 10 14 17 13 11 11 12 11 12 12
10 14 20 25 27 13 8 10 16 20 31 33 38 36 33 31 32 30 30 29 28 27 26 25 23 21 21 18 17 16 15 15 14 11 13 15 14 12 11 11 9 8 8
19 20 18 25 20 3 11 19 13 23 31 39 36 35 33 32 28 27 27 25 25 26 25 25 22 20 20 19 20 19 18 16 15 14 10 10 9 9 8 8 7 6 5
24 29 26 19 18 17 15 11 21 18 36 33 28 32 30 28 26 24 24 24 24 25 25 24 21 21 22 22 22 21 20 18 17 16 14 14 13 11 9 9 8 9 8
26 30 28 30 21 15 17 27 29 39 35 24 20 16 12 13 14 15 19 22 23 24 24 22 22 21 21 22 21 21 21 19 14 14 11 9 10 11 10 9 12 12 11
15 14 18 23 25 16 15 16 29 25 22 17 16 20 20 18 16 23 13 17 21 23 22 23 23 22 23 22 21 21 22 21 20 12 10 9 14 14 15 14 11 10 3
12 12 10 18 24 24 16 18 21 23 18 14 12 17 13 11 17 22 14 23 24 23 22 22 23 25 25 24 22 23 25 24 24 24 20 21 17 20 19 16 18 16 13
15 10 4 7 12 15 17 20 16 14 12 15 18 18 14 9 13 24 18 22 26 21 18 23 24 25 26 27 24 24 25 27 29 29 28 27 23 19 18 19 19 17 17
14 11 11 7 1 4 4 3 4 5 7 11 13 14 14 19 18 25 24 17 15 12 20 18 16 24 25 24 23 26 26 27 26 26 26 24 25 22 19 17 17 13 9
15 13 11 12 14 12 4 2 1 3 6 6 9 13 16 14 14 17 17 10 9 8 18 19 16 16 22 25 24 27 26 30 28 25 26 25 23 23 22 23 22 15 11
15 14 18 17 15 12 8 3 3 1 2 3 4 5 3 7 13 14 11 6 6 8 15 17 26 28 28 27 25 25 25 23 25 24 23 25 25 25 26 27 28 25 18
18 15 16 16 15 13 9 6 3 1 2 3 7 10 9 10 10 10 9 8 8 9 10 10 15 24 28 22 21 24 16 21 24 24 20 25 25 27 29 30 31 31 31
14 15 14 13 12 10 11 7 8 8 8 11 11 12 13 14 13 10 8 4 3 5 8 7 10 17 23 23 19 20 17 21 24 23 25 28 32 31 27 28 29 31 31
12 12 11 10 11 11 9 6 8 9 10 11 10 10 7 8 8 7 8 5 3 2 5 8 10 12 13 16 18 20 22 26 26 24 25 27 28 28 26 27 26 29 25
8 10 9 8 8 9 9 7 2 4 7 7 7 9 9 7 6 6 7 7 8 8 8 6 9 11 12 12 15 17 17 20 24 27 25 24 23 23 25 25 23 21 22
7 9 8 6 5 4 5 6 4 4 4 3 3 3 5 6 3 4 7 8 8 8 6 8 9 10 10 13 16 18 17 17 21 21 23 23 21 22 20 17 23 24 21
7 9 8 7 8 9 7 4 2 2 3 4 4 2 2 1 1 6 8 6 8 9 9 9 9 11 12 14 17 18 18 20 20 21 21 20 20 20 20 19 21 22 21
5 8 8 8 8 10 10 9 4 5 7 7 6 7 7 6 4 6 7 6 6 9 8 8 9 11 12 14 18 18 20 22 21 21 22 21 22 21 20 20 22 21 23
6 9 8 8 10 11 10 10 9 7 4 5 6 3 6 8 6 6 5 6 5 7 8 11 12 13 15 17 19 20 21 21 22 22 21 22 23 23 23 25 26 27 26
4 6 8 10 10 10 11 10 8 8 8 6 5 5 4 6 7 6 6 8 9 9 9 9 10 11 13 16 18 18 18 19 19 21 23 24 25 24 23 24 25 25 26
7 8 9 8 8 9 9 9 8 7 8 10 8 6 6 7 9 9 9 10 11 11 12 12 12 13 11 14 13 16 17 18 19 18 20 22 22 23 23 23 24 23 28
8 8 10 13 15 16 16 15 15 13 13 12 12 9 8 10 12 12 12 11 10 12 13 14 14 13 12 10 12 14 16 17 20 22 22 20 21 25 24 24 24 24 23
8 10 13 15 16 18 20 18 16 15 17 17 16 15 14 15 15 15 14 13 12 15 15 14 14 13 11 10 9 11 13 16 19 18 20 19 18 18 20 21 23 22 22
9 10 12 15 17 19 19 19 21 22 20 20 20 20 19 19 19 19 17 16 15 16 17 16 16 16 16 15 12 11 11 13 14 18 13 14 15 17 13 11 14 19 22
11 12 14 15 17 19 21 19 20 23 21 20 22 24 25 24 22 23 21 18 19 18 18 20 17 16 16 15 16 14 13 12 13 12 12 13 12 15 14 12 14 15 12
15 15 15 16 18 20 20 22 24 23 20 20 22 24 26 26 28 27 24 20 20 20 19 16 17 16 14 15 15 13 13 12 11 10 12 9 9 11 8 8 10 15 17

GFSGL_925_spd_111.txt.gz
Wind_Speed
18 20 18 20 22 26 27 30 32 31 32 33 31 27 27 27 27 25 27 31 28 25 22 22 23 24 24 21 17 17 14 14 11 17 14 12 13 10 10 12 9 8 8
18 21 23 26 25 25 27 30 35 24 27 28 32 31 29 29 27 24 24 23 24 25 24 22 21 19 20 19 17 15 15 15 12 14 12 10 10 8 11 11 7 9 8
16 22 21 21 23 24 21 25 30 34 33 31 33 32 30 29 26 25 25 25 28 26 24 24 22 20 20 17 18 16 15 13 14 12 12 8 9 7 6 9 8 7 8
15 19 20 19 16 18 15 16 19 20 22 27 31 33 31 28 26 26 25 25 28 31 29 23 21 21 21 19 19 19 15 13 14 13 11 10 9 9 8 7 8 10 8
16 21 18 12 12 9 9 11 13 14 17 21 23 21 22 22 21 21 19 24 27 30 29 25 21 21 22 20 18 17 15 14 12 12 10 10 9 7 9 7 10 9 10
17 18 15 13 13 8 8 8 11 12 14 16 19 16 16 13 12 17 20 18 20 25 26 25 20 22 24 21 21 20 16 17 15 13 12 13 14 12 11 10 9 7 4
8 4 10 15 17 8 10 11 7 6 7 8 11 15 15 14 17 13 11 11 21 23 20 22 20 18 23 18 21 23 22 22 22 16 16 17 16 15 13 11 11 11 12
16 8 1 6 8 10 12 16 19 17 15 16 13 9 9 9 11 14 14 25 26 21 16 17 19 21 18 16 15 16 19 21 25 25 24 22 20 19 16 12 11 11 11
11 6 4 1 5 5 7 9 11 12 13 17 21 14 11 17 17 17 20 23 21 21 18 19 16 18 14 18 17 17 20 20 21 25 27 26 25 23 19 11 13 11 9
7 9 8 7 4 2 7 8 6 5 5 6 8 9 12 15 17 20 24 27 17 19 21 21 19 11 5 3 7 12 17 21 19 21 23 27 27 25 25 21 19 17 14
5 8 8 9 8 7 2 2 1 1 4 8 5 3 2 10 16 20 22 18 20 16 14 17 19 16 19 17 14 13 16 18 12 17 21 16 14 15 18 20 23 24 21
7 9 11 13 11 8 8 7 6 5 6 6 6 9 11 10 6 9 9 10 9 12 13 12 12 11 15 17 22 22 20 18 15 13 20 20 19 17 18 20 23 26 27
7 8 9 9 9 8 9 8 9 8 9 9 9 8 10 11 13 9 5 4 4 5 8 11 10 12 17 17 17 14 14 17 19 16 17 24 24 19 21 22 23 25 26
10 9 8 8 8 9 5 7 9 9 9 9 7 6 6 6 8 8 6 4 2 1 4 6 8 8 10 11 13 18 21 24 25 26 27 29 27 25 26 22 25 25 25
12 9 7 5 4 5 6 3 6 7 7 8 8 6 6 5 5 5 4 3 4 4 1 1 2 2 3 3 5 6 9 12 16 22 22 23 25 24 23 24 27 24 23
10 11 9 7 7 7 7 6 7 7 5 5 6 5 6 6 4 4 5 6 6 4 3 3 2 2 3 4 5 6 7 10 11 16 20 21 21 19 20 21 24 24 23
7 8 7 9 10 11 11 7 3 1 1 1 2 3 4 3 2 1 3 3 3 3 3 2 3 3 3 4 5 7 9 10 13 16 17 19 20 20 21 23 22 25 24
5 8 6 7 8 8 8 9 9 5 4 3 4 4 6 5 5 3 2 1 4 3 4 5 6 5 6 7 8 10 12 14 15 15 17 19 19 19 19 20 21 23 22
5 7 6 6 7 7 7 7 6 6 7 6 2 2 3 6 8 7 6 6 7 8 6 6 5 6 6 8 8 9 11 14 14 15 17 19 20 20 20 21 23 25 26
4 6 6 5 6 7 8 8 8 6 5 6 5 5 3 3 6 8 8 8 8 8 8 8 7 6 8 9 8 8 12 12 14 14 15 17 18 21 22 22 23 24 24
3 4 6 6 7 7 8 8 9 9 9 8 8 6 6 6 8 9 10 9 9 9 9 9 9 8 9 9 10 9 8 10 11 14 16 18 20 19 20 22 25 27 28
4 4 5 6 8 9 10 10 10 9 9 10 11 10 12 10 11 12 11 11 10 10 10 11 12 12 10 9 8 9 8 8 9 11 15 15 15 17 19 20 21 24 26
3 5 7 9 10 12 13 14 13 12 13 13 14 15 13 13 13 13 13 12 11 11 11 13 13 15 13 12 12 11 10 10 10 12 13 13 13 13 16 17 17 19 20
5 7 8 9 9 11 11 13 13 13 13 15 16 17 18 18 17 17 16 14 14 14 14 14 15 16 16 16 14 13 14 13 15 13 12 12 13 14 11 13 14 15 19
6 7 8 9 9 10 11 12 13 13 13 13 14 15 15 16 17 18 17 17 16 16 16 16 16 18 19 19 19 18 16 18 16 14 12 12 12 12 12 14 13 15 16
7 7 8 8 9 10 12 13 13 13 13 13 13 13 13 13 13 14 15 16 18 19 18 17 17 17 19 19 18 18 18 16 15 14 13 11 12 11 11 8 10 13 12

GFSGL_925_spd_114.txt.gz
Wind_Speed
14 15 15 15 21 30 32 34 32 30 27 29 28 30 32 33 33 33 31 28 28 28 26 24 24 22 24 23 23 21 19 18 15 19 16 13 11 14 13 11 11 10 10
16 15 15 18 18 15 25 28 32 30 31 34 30 33 31 30 30 32 31 30 30 28 27 25 23 21 21 21 21 21 19 18 18 16 15 13 14 11 11 11 10 9 7
15 17 17 17 19 21 23 24 24 27 27 27 29 29 31 29 27 29 30 29 28 28 27 25 23 21 19 18 19 18 18 18 16 16 16 11 10 10 10 9 9 9 10
16 15 18 20 16 16 18 19 20 21 19 22 24 27 28 28 26 25 27 27 26 25 24 24 23 22 21 19 18 17 19 17 17 16 16 11 10 12 12 13 10 9 10
16 17 18 12 6 6 8 8 10 12 14 18 22 22 23 24 23 23 27 29 27 24 23 24 23 22 21 20 18 19 18 19 16 14 16 13 11 12 13 11 12 9 9
14 17 13 12 9 7 7 7 7 8 10 14 14 20 22 25 25 25 28 27 27 25 24 24 23 22 23 24 24 18 19 19 17 17 16 16 15 15 15 14 12 8 9
8 5 11 8 6 5 7 10 9 9 9 10 15 16 17 17 17 20 24 27 25 25 24 24 21 18 19 19 22 22 22 23 22 19 19 17 15 15 15 11 12 11 13
7 6 6 8 8 5 4 8 12 12 11 13 13 12 14 15 16 18 18 19 14 16 15 17 16 14 14 18 15 16 25 24 25 26 23 20 18 15 12 13 14 14 14
10 9 6 2 1 4 6 7 7 9 10 12 14 14 16 15 15 19 16 14 19 17 14 12 14 12 9 12 13 20 23 21 19 24 24 24 24 21 17 13 15 13 15
16 10 7 5 2 4 6 3 3 3 4 7 9 11 16 16 18 16 13 14 16 13 13 13 18 13 4 13 16 21 23 24 17 15 14 20 23 28 27 21 19 19 18
10 9 8 4 3 2 3 2 2 3 10 12 12 7 1 5 7 14 16 15 14 11 12 17 10 11 24 19 14 15 17 14 10 9 13 15 17 16 16 16 19 23 21
8 6 6 6 6 4 6 5 4 5 10 11 11 10 12 12 8 6 8 12 8 9 7 6 10 17 19 19 19 21 20 19 16 11 11 10 14 16 17 16 16 19 23
8 7 7 8 7 9 9 7 8 9 11 10 10 9 7 9 13 8 6 4 3 2 5 7 9 10 11 12 16 18 19 22 21 19 16 13 19 20 18 23 19 22 28
8 8 5 6 6 5 3 5 8 8 9 6 6 7 8 8 8 9 8 7 8 4 1 4 8 9 11 11 12 12 17 20 20 20 21 23 24 27 31 30 25 23 23
6 5 5 5 6 4 7 7 9 8 9 6 8 8 7 8 8 9 8 7 6 4 2 1 3 4 6 6 7 6 8 9 11 12 13 15 18 23 27 26 29 31 32
6 7 7 7 7 7 6 6 6 6 6 6 6 8 6 7 5 5 6 6 6 4 1 1 1 1 2 2 3 5 7 8 10 11 13 14 16 18 20 21 24 24 25
7 6 7 8 9 8 7 4 5 3 1 1 1 1 2 2 0 2 4 5 6 4 4 2 2 3 3 3 4 5 7 7 9 11 11 15 16 16 19 21 23 23 23
6 9 6 7 7 6 6 5 5 4 1 4 1 2 5 5 5 4 4 6 6 5 3 5 5 3 2 3 4 7 5 6 8 10 12 13 15 18 17 17 19 22 21
6 6 6 6 6 5 6 6 5 5 6 5 3 4 3 4 6 7 7 7 10 9 9 5 6 5 5 5 6 7 6 7 8 8 8 10 13 15 18 19 20 24 26
4 6 5 5 5 6 7 8 7 7 5 4 4 4 5 1 7 9 10 7 8 10 7 6 6 6 7 7 8 7 7 7 7 9 10 10 11 10 12 15 18 20 22
5 4 6 8 10 10 10 10 10 10 9 8 8 4 4 7 9 7 7 7 8 8 7 8 8 7 8 9 9 9 9 7 9 9 10 10 12 13 14 14 15 16 18
4 5 5 7 8 9 11 11 10 12 13 13 12 9 9 8 12 11 10 9 9 8 9 9 10 10 12 13 13 13 11 12 10 9 11 11 12 13 14 16 16 18 19
9 8 9 10 10 9 12 11 11 11 12 14 15 16 15 16 14 13 14 14 12 12 11 12 12 13 13 15 17 16 16 16 13 11 12 13 13 14 14 14 15 13 14
15 10 11 12 10 11 11 11 13 12 12 13 13 14 16 18 20 20 17 17 15 15 16 15 15 14 14 15 17 19 19 19 16 14 13 14 16 16 16 16 15 17 19
8 9 11 10 12 12 12 13 13 13 14 14 14 14 14 15 16 17 18 17 17 18 19 19 20 19 19 19 19 20 20 22 21 20 16 17 18 18 18 17 14 14 17
10 10 12 12 12 13 14 15 15 16 17 18 18 16 17 16 14 13 13 13 15 18 20 22 23 22 23 23 22 22 24 27 23 22 17 17 18 17 16 17 13 12 12

GFSGL_925_spd_117.txt.gz
Wind_Speed
17 17 18 18 17 20 30 34 35 32 30 36 22 30 29 31 32 33 33 28 28 27 27 26 25 24 22 20 21 20 19 19 14 19 18 17 12 11 13 14 15 15 15
20 17 16 20 19 20 22 26 30 28 27 32 43 34 30 29 31 34 32 30 29 26 27 28 25 24 25 24 20 22 22 21 20 17 18 16 9 11 13 13 14 14 13
17 21 22 19 21 23 24 20 20 20 22 23 30 42 34 40 32 30 30 28 28 27 27 27 25 23 23 22 22 22 21 21 19 19 18 15 17 10 11 11 13 13 13
20 22 24 21 20 22 23 22 19 19 19 17 17 18 26 39 33 29 24 26 27 27 28 29 26 26 25 23 21 20 19 19 19 20 16 15 16 9 10 14 14 14 12
20 21 22 23 19 17 17 16 14 16 14 11 10 10 14 22 15 20 21 23 26 27 26 27 26 28 25 25 21 20 20 20 20 19 18 15 10 10 15 15 13 13 9
15 17 20 22 14 15 13 11 9 9 8 8 11 13 17 17 15 17 20 18 23 26 26 26 28 24 26 24 25 25 21 22 21 15 17 14 8 14 17 14 16 13 10
14 14 17 16 17 15 12 10 9 10 11 10 11 12 12 13 19 17 20 23 23 24 24 24 24 24 26 24 26 27 27 18 20 18 18 16 5 11 16 15 15 11 12
15 16 18 9 14 13 11 9 8 12 13 13 11 10 12 13 14 12 14 15 19 23 23 23 24 25 21 22 20 20 22 19 21 22 19 20 12 14 14 14 13 12 13
18 20 17 11 6 5 5 4 7 11 12 12 12 13 13 11 9 11 13 11 14 13 12 16 21 19 18 20 18 18 16 18 20 21 19 23 22 22 21 14 14 13 14
22 20 23 11 8 13 7 4 5 7 9 9 8 8 9 10 11 12 11 10 13 15 13 11 11 13 11 11 15 15 12 16 14 13 17 18 19 28 28 23 20 16 14
16 12 15 11 11 8 3 2 3 7 9 11 9 6 3 5 6 12 11 10 7 7 11 12 10 14 14 12 11 8 12 13 11 14 16 17 20 22 18 15 18 22 19
16 14 14 17 18 16 12 10 6 7 14 11 9 10 11 7 3 8 12 12 7 10 7 10 11 13 15 16 19 16 13 13 12 12 12 18 19 18 16 14 15 15 17
13 11 11 12 13 12 11 9 9 10 12 10 8 10 9 8 11 11 12 10 8 8 8 9 8 10 13 14 17 17 15 16 15 15 18 20 26 25 20 21 16 17 17
12 10 8 7 8 11 12 16 14 15 9 5 11 13 14 12 10 8 11 11 8 5 5 5 7 8 9 9 10 11 14 19 16 18 19 19 19 18 22 25 27 23 24
8 7 8 5 6 3 10 12 12 14 16 14 16 14 9 13 9 11 10 9 8 3 3 6 7 8 9 8 8 9 10 10 11 11 11 12 13 17 18 17 18 16 19
10 5 6 6 7 7 5 9 8 7 8 10 10 11 12 11 9 9 9 9 8 3 3 2 3 1 2 3 2 3 5 4 7 8 8 11 11 12 14 14 15 15 15
8 11 5 9 7 7 9 5 9 5 4 4 3 3 4 4 4 4 4 5 4 1 7 2 2 2 3 4 3 2 3 3 5 7 9 10 11 13 14 13 14 16 17
1 4 6 7 8 10 7 7 9 9 3 7 5 1 1 1 1 2 4 7 7 9 7 3 4 4 2 3 4 5 4 4 5 6 7 9 9 10 11 12 16 17 17
6 7 7 6 7 6 8 9 8 7 6 6 4 5 4 1 4 5 5 5 7 8 7 8 1 3 3 5 6 5 5 6 6 7 7 7 8 9 10 13 14 16 17
3 6 5 7 4 5 6 7 9 8 9 7 6 4 3 3 5 8 6 6 7 5 8 6 5 4 4 6 8 7 9 9 9 7 8 7 7 9 11 15 15 13 13
3 2 2 6 7 6 6 9 8 8 9 9 8 7 3 8 9 9 6 5 6 7 7 7 9 6 6 6 9 12 13 16 8 12 10 10 8 9 11 12 13 11 12
10 11 10 10 8 6 10 10 10 7 7 10 12 8 6 8 12 10 10 10 10 7 7 6 8 10 10 9 11 14 17 16 12 12 8 12 13 13 14 13 15 14 15
11 11 17 13 14 11 10 12 9 10 12 13 12 12 11 12 16 16 14 12 13 11 11 10 10 12 12 12 12 14 17 17 16 14 14 16 15 15 15 16 15 15 15
7 8 14 11 5 9 10 12 14 11 9 13 13 14 17 18 17 18 18 15 13 14 14 15 15 14 16 16 16 16 17 17 18 18 17 17 16 18 18 17 18 17 17
5 10 14 15 16 16 16 16 16 17 17 13 15 17 19 20 21 22 21 19 16 17 16 18 20 23 25 18 19 15 21 18 21 21 17 18 20 22 23 22 23 16 18
14 13 13 14 15 15 16 15 16 17 18 13 16 18 17 19 17 16 18 17 18 19 22 21 22 23 22 22 22 23 21 18 26 25 19 20 22 23 24 24 22 17 18

GFSGL_925_spd_120.txt.gz
Wind_Speed
16 18 22 23 20 21 23 29 31 32 37 43 46 29 36 27 21 28 29 29 31 30 28 27 29 30 31 31 24 24 22 22 14 19 19 23 19 16 17 14 16 14 17
25 22 23 18 21 22 23 23 27 30 35 38 37 32 23 9 10 20 27 31 32 32 31 31 28 27 29 30 27 25 25 23 20 17 18 21 16 19 15 17 15 14 14
24 26 19 24 25 24 26 26 24 24 30 34 27 28 30 32 45 41 38 33 35 35 30 30 30 29 28 26 30 27 26 25 21 19 19 19 23 22 19 15 13 13 12
25 25 24 24 24 25 26 27 25 24 22 18 17 25 37 47 41 30 32 30 34 36 35 33 31 32 31 30 29 27 27 23 21 20 19 19 20 19 16 14 12 15 15
24 24 21 23 22 24 25 25 26 25 21 17 14 19 31 40 45 37 15 26 39 50 37 33 32 32 32 34 28 26 23 23 19 19 19 18 19 13 12 11 16 17 10
22 19 19 19 22 23 24 22 22 21 19 19 16 17 21 38 50 36 22 24 37 47 37 34 31 29 34 35 32 29 29 26 22 20 17 18 16 8 13 14 13 13 4
20 19 20 21 20 18 18 16 15 15 13 14 13 14 16 21 29 28 36 35 32 38 29 26 25 25 28 32 29 35 30 26 27 26 21 17 16 9 14 14 15 14 12
18 18 20 23 19 12 12 15 15 15 17 16 13 13 13 14 14 14 22 29 24 21 19 19 22 26 28 28 28 26 29 29 27 26 26 25 20 17 14 14 15 14 14
18 20 20 27 16 9 5 11 15 16 16 17 15 12 10 9 9 11 14 14 16 18 17 17 19 21 22 28 25 27 22 24 20 24 24 21 17 19 18 15 18 14 10
26 26 22 26 35 16 15 11 17 16 14 10 9 7 6 5 10 8 9 8 11 9 8 7 8 14 17 19 19 19 17 15 15 13 14 15 16 18 18 17 16 18 11
26 23 15 23 25 16 4 4 7 10 10 14 11 7 2 2 4 10 9 10 6 7 10 11 10 10 8 7 9 12 9 9 8 10 11 12 16 18 17 16 19 22 20
23 17 14 13 12 10 17 25 24 14 13 15 14 14 13 8 1 7 9 9 4 3 6 13 12 10 8 7 8 9 9 8 9 13 14 12 14 16 16 16 17 12 17
21 15 14 13 16 22 22 14 13 14 8 9 11 12 11 10 14 14 10 5 2 7 6 8 8 8 7 8 8 9 10 10 11 13 12 13 16 17 15 16 19 18 16
24 18 13 6 9 15 19 23 21 22 20 12 12 14 13 14 12 7 9 9 9 6 6 5 4 4 4 6 7 8 9 11 13 12 14 16 14 13 15 16 19 21 24
24 25 15 6 7 13 15 15 17 20 21 19 17 17 14 14 14 15 11 9 6 6 7 5 6 5 6 7 5 6 6 7 7 8 10 10 9 7 8 11 16 18 18
22 19 22 17 14 8 12 10 10 12 12 14 15 15 16 13 10 9 9 8 7 2 3 7 9 7 4 8 4 3 2 1 1 4 6 7 9 9 11 12 10 12 13
14 14 18 15 19 11 13 8 8 6 8 9 8 7 6 5 4 4 6 7 7 6 7 3 3 3 5 6 9 8 7 7 4 4 5 7 8 8 10 11 11 10 12
13 11 13 13 13 16 16 15 11 10 9 6 6 6 4 2 0 2 5 7 10 8 8 4 4 8 11 8 6 5 6 1 3 4 6 5 6 8 10 12 12 11 11
9 9 13 8 4 3 9 14 16 15 13 9 10 8 6 3 2 4 5 4 5 7 5 5 7 5 7 3 1 3 4 5 3 5 6 6 7 7 9 10 11 11 11
6 2 3 9 9 10 9 13 10 8 8 12 7 11 7 4 5 9 8 6 7 9 4 3 2 7 9 4 3 4 6 9 10 9 11 11 10 5 4 12 14 13 12
16 3 15 21 6 7 8 9 9 7 4 6 8 6 5 5 7 10 7 14 10 2 3 4 1 7 4 7 5 8 11 14 16 16 19 11 10 6 11 10 15 9 9
11 8 11 18 12 12 11 11 17 7 11 13 11 5 6 5 9 14 13 14 11 8 10 10 8 7 8 9 8 5 6 10 15 8 11 9 9 11 13 13 13 12 14
17 13 7 13 12 9 6 12 13 14 13 12 17 22 19 17 18 22 24 26 23 22 21 18 15 9 12 8 7 8 7 11 13 14 11 11 11 15 16 17 16 15 16
7 11 11 15 11 12 14 10 13 14 15 11 10 13 16 17 17 19 18 19 20 19 20 19 19 19 20 17 12 14 14 14 15 18 15 15 13 13 15 17 19 20 20
6 9 12 17 15 16 18 17 16 16 16 15 18 16 14 14 16 20 17 15 15 15 18 17 15 15 17 12 15 19 18 18 16 20 22 21 20 16 18 20 21 20 21
12 13 13 15 16 17 18 18 17 17 16 17 14 13 10 13 12 14 19 19 19 20 18 17 17 17 18 9 13 19 22 23 22 19 20 24 21 21 17 22 22 21 18